[[{"header":{"parameterUnit":"m.s-1","parameterCategory":1,"la1":30.6,"la2":29.2853,"lo1":-89.7004,"lo2":-87.6739,"dy":0.0162,"dx":0.0183,"nx":112,"ny":82,"refTime":"2024-06-26T06:00:00:Z","depth":0,"parameterNumber":2,"parameterNumberName":"U-component_of_WINDS"},"data":[0.0,0.0,0.0,0.0,0.0,0.0,0.0,0.0,0.0,0.0,0.0,0.0,0.0,0.0,0.0,0.0,0.0,0.0,0.0,0.0,0.0,0.0,0.0,0.0,0.0,0.0,0.0,0.0,0.0,0.0,0.0,0.0,0.0,0.0,0.0,0.0,0.0,0.0,0.0,0.0,0.0,0.0,0.0,0.0,0.0,0.0,0.0,0.0,0.0,0.0,0.0,0.0,0.0,0.0,0.0,0.0,0.0,0.0,0.0,0.0,0.0,0.0,0.0,0.0,0.0,0.0,0.0,0.0,0.0,0.0,0.0,0.0,0.0,0.0,0.0,0.0,0.0,0.0,0.0,0.0,0.0,0.0,0.0,0.0,0.0,0.0,0.0,0.0,0.0,0.0,-2.8852,-3.0593,-3.0653,-3.0468,-3.0186,-2.998,-2.8944,-2.6766,0.0,0.0,0.0,0.0,0.0,0.0,0.0,0.0,0.0,0.0,0.0,0.0,0.0,0.0,0.0,0.0,0.0,0.0,0.0,0.0,0.0,0.0,0.0,0.0,0.0,0.0,0.0,0.0,0.0,0.0,0.0,0.0,0.0,0.0,0.0,0.0,0.0,0.0,0.0,0.0,0.0,0.0,0.0,0.0,0.0,0.0,0.0,0.0,0.0,0.0,0.0,0.0,0.0,0.0,0.0,0.0,0.0,0.0,0.0,0.0,0.0,0.0,0.0,0.0,0.0,0.0,0.0,0.0,0.0,0.0,0.0,0.0,0.0,0.0,0.0,0.0,0.0,0.0,0.0,0.0,0.0,0.0,0.0,0.0,0.0,0.0,0.0,0.0,0.0,0.0,0.0,0.0,0.0,0.0,0.0,0.0,0.0,0.0,0.0,0.0,0.0,0.0,0.0,0.0,-2.8825,-3.0464,-3.0563,-3.0393,-3.0065,-2.9912,-2.88,-2.6444,0.0,0.0,0.0,0.0,0.0,0.0,0.0,0.0,0.0,0.0,0.0,0.0,0.0,0.0,0.0,0.0,0.0,0.0,0.0,0.0,0.0,0.0,0.0,0.0,0.0,0.0,0.0,0.0,0.0,0.0,0.0,0.0,0.0,0.0,0.0,0.0,0.0,0.0,0.0,0.0,0.0,0.0,0.0,0.0,0.0,0.0,0.0,0.0,0.0,0.0,0.0,0.0,0.0,0.0,0.0,0.0,0.0,0.0,0.0,0.0,0.0,0.0,0.0,0.0,0.0,0.0,0.0,0.0,0.0,0.0,0.0,0.0,0.0,0.0,0.0,0.0,0.0,0.0,0.0,0.0,0.0,0.0,0.0,0.0,0.0,0.0,0.0,0.0,0.0,0.0,0.0,0.0,0.0,0.0,0.0,0.0,0.0,0.0,0.0,0.0,0.0,0.0,0.0,-2.887,-2.9296,-3.0427,-3.0501,-3.0275,-2.9877,-2.9782,-2.869,-2.6195,-2.6435,0.0,0.0,0.0,0.0,0.0,0.0,0.0,0.0,0.0,0.0,0.0,0.0,0.0,0.0,0.0,0.0,0.0,0.0,0.0,0.0,0.0,0.0,0.0,0.0,0.0,0.0,0.0,0.0,0.0,0.0,0.0,0.0,0.0,0.0,0.0,0.0,0.0,0.0,0.0,0.0,0.0,0.0,0.0,0.0,0.0,0.0,0.0,0.0,0.0,0.0,0.0,0.0,0.0,0.0,0.0,0.0,0.0,0.0,0.0,0.0,0.0,0.0,0.0,0.0,0.0,0.0,0.0,0.0,0.0,0.0,0.0,0.0,0.0,0.0,0.0,0.0,0.0,0.0,0.0,0.0,0.0,0.0,0.0,0.0,0.0,0.0,0.0,0.0,0.0,0.0,0.0,0.0,0.0,0.0,0.0,0.0,0.0,0.0,0.0,0.0,0.0,0.0,-2.9447,-2.987,-3.0424,-3.0432,-3.0196,-2.9731,-2.9507,-2.8389,-2.6057,-2.648,0.0,0.0,0.0,0.0,0.0,0.0,0.0,0.0,0.0,0.0,0.0,0.0,0.0,0.0,0.0,0.0,0.0,0.0,0.0,0.0,0.0,0.0,0.0,0.0,0.0,0.0,0.0,0.0,0.0,0.0,0.0,0.0,0.0,0.0,0.0,0.0,0.0,0.0,0.0,0.0,0.0,0.0,0.0,0.0,0.0,0.0,0.0,0.0,0.0,0.0,0.0,0.0,0.0,0.0,0.0,0.0,0.0,0.0,0.0,0.0,0.0,0.0,0.0,0.0,0.0,0.0,0.0,0.0,0.0,0.0,0.0,0.0,0.0,0.0,0.0,0.0,0.0,0.0,0.0,0.0,0.0,0.0,0.0,0.0,0.0,0.0,0.0,0.0,0.0,0.0,0.0,0.0,0.0,0.0,0.0,0.0,0.0,0.0,0.0,0.0,0.0,0.0,-2.9457,-3.0423,-3.0414,-3.0343,-3.0133,-2.9734,-2.8964,-2.7754,-2.6027,-2.5879,0.0,0.0,0.0,0.0,0.0,0.0,0.0,0.0,0.0,0.0,0.0,0.0,0.0,0.0,0.0,0.0,0.0,0.0,0.0,0.0,0.0,0.0,0.0,0.0,0.0,0.0,0.0,0.0,0.0,0.0,0.0,0.0,0.0,0.0,0.0,0.0,0.0,0.0,0.0,0.0,0.0,0.0,0.0,0.0,0.0,0.0,0.0,0.0,0.0,0.0,0.0,0.0,0.0,0.0,0.0,0.0,0.0,0.0,0.0,0.0,0.0,0.0,0.0,0.0,0.0,0.0,0.0,0.0,0.0,0.0,0.0,0.0,0.0,0.0,0.0,0.0,0.0,0.0,0.0,0.0,0.0,0.0,0.0,0.0,0.0,0.0,0.0,0.0,0.0,0.0,0.0,0.0,0.0,0.0,0.0,0.0,0.0,0.0,0.0,0.0,0.0,0.0,-2.8994,-2.986,0.0,-3.018,-2.9937,-2.9662,-2.8614,-2.7356,-2.5978,0.0,0.0,0.0,0.0,0.0,0.0,0.0,0.0,0.0,0.0,0.0,0.0,0.0,0.0,0.0,0.0,0.0,0.0,0.0,0.0,0.0,0.0,0.0,0.0,0.0,0.0,0.0,0.0,0.0,0.0,0.0,0.0,0.0,0.0,0.0,0.0,0.0,0.0,0.0,0.0,0.0,0.0,0.0,0.0,0.0,0.0,0.0,0.0,0.0,0.0,0.0,0.0,0.0,0.0,0.0,0.0,0.0,0.0,0.0,0.0,0.0,0.0,0.0,0.0,0.0,0.0,0.0,0.0,0.0,0.0,0.0,0.0,0.0,0.0,0.0,0.0,0.0,0.0,0.0,0.0,0.0,0.0,0.0,0.0,0.0,0.0,0.0,0.0,0.0,0.0,0.0,0.0,0.0,0.0,0.0,0.0,0.0,0.0,0.0,0.0,0.0,0.0,-2.7913,-2.8877,-2.9706,0.0,-3.0015,-2.9786,-2.9532,-2.8153,-2.6922,-2.596,0.0,0.0,0.0,0.0,0.0,0.0,0.0,0.0,0.0,0.0,0.0,0.0,0.0,0.0,0.0,0.0,0.0,0.0,0.0,0.0,0.0,0.0,0.0,0.0,0.0,0.0,0.0,0.0,0.0,0.0,0.0,0.0,0.0,0.0,0.0,0.0,0.0,0.0,0.0,0.0,0.0,0.0,0.0,0.0,0.0,0.0,0.0,0.0,0.0,0.0,0.0,0.0,0.0,0.0,0.0,0.0,0.0,0.0,0.0,0.0,0.0,0.0,0.0,0.0,0.0,0.0,0.0,0.0,0.0,0.0,0.0,0.0,0.0,0.0,0.0,0.0,0.0,0.0,0.0,0.0,0.0,0.0,0.0,0.0,0.0,0.0,0.0,0.0,0.0,0.0,0.0,0.0,0.0,0.0,0.0,0.0,0.0,0.0,0.0,0.0,0.0,0.0,-2.7923,-2.9248,-3.0177,-2.9921,-2.9888,-2.9734,-2.9334,-2.759,-2.6334,0.0,0.0,0.0,0.0,0.0,0.0,0.0,0.0,0.0,0.0,0.0,0.0,0.0,0.0,0.0,0.0,0.0,0.0,0.0,0.0,0.0,0.0,0.0,0.0,0.0,0.0,0.0,0.0,0.0,0.0,0.0,0.0,0.0,0.0,0.0,0.0,0.0,0.0,0.0,0.0,0.0,0.0,0.0,0.0,0.0,0.0,0.0,0.0,0.0,0.0,0.0,0.0,0.0,0.0,0.0,0.0,0.0,0.0,0.0,0.0,0.0,0.0,0.0,0.0,0.0,0.0,0.0,0.0,0.0,0.0,0.0,0.0,0.0,0.0,0.0,0.0,0.0,0.0,0.0,0.0,0.0,0.0,0.0,0.0,0.0,0.0,0.0,0.0,0.0,0.0,0.0,0.0,0.0,0.0,0.0,0.0,0.0,0.0,0.0,0.0,0.0,0.0,0.0,-2.7827,-2.8645,-2.9403,-2.9864,-2.9644,-2.9435,-2.9314,-2.7328,-2.6261,-2.6662,0.0,0.0,0.0,0.0,0.0,0.0,0.0,0.0,0.0,0.0,0.0,0.0,0.0,0.0,0.0,0.0,0.0,0.0,0.0,0.0,0.0,0.0,0.0,0.0,0.0,0.0,0.0,0.0,0.0,0.0,0.0,0.0,0.0,0.0,0.0,0.0,0.0,0.0,0.0,0.0,0.0,0.0,0.0,0.0,0.0,0.0,0.0,0.0,0.0,0.0,0.0,0.0,0.0,0.0,0.0,0.0,0.0,0.0,0.0,0.0,0.0,0.0,0.0,0.0,0.0,0.0,0.0,0.0,0.0,0.0,0.0,0.0,0.0,0.0,0.0,0.0,0.0,0.0,0.0,0.0,0.0,0.0,0.0,0.0,0.0,0.0,0.0,0.0,0.0,0.0,0.0,0.0,0.0,0.0,0.0,0.0,0.0,0.0,0.0,0.0,0.0,0.0,-2.7656,-2.7956,-2.8578,-2.9549,-2.9156,-2.8748,-2.8559,-2.6916,-2.5897,-2.5913,0.0,0.0,0.0,0.0,0.0,0.0,0.0,0.0,0.0,0.0,0.0,0.0,0.0,0.0,0.0,0.0,0.0,0.0,0.0,0.0,0.0,0.0,0.0,0.0,0.0,0.0,0.0,0.0,0.0,0.0,0.0,0.0,0.0,0.0,0.0,0.0,0.0,0.0,0.0,0.0,0.0,0.0,0.0,0.0,0.0,0.0,0.0,0.0,0.0,0.0,0.0,0.0,0.0,0.0,0.0,0.0,0.0,0.0,0.0,0.0,0.0,0.0,0.0,0.0,0.0,0.0,0.0,0.0,0.0,0.0,0.0,0.0,0.0,0.0,0.0,0.0,0.0,0.0,0.0,0.0,0.0,0.0,0.0,0.0,0.0,0.0,0.0,0.0,0.0,0.0,0.0,0.0,0.0,0.0,0.0,0.0,0.0,0.0,0.0,0.0,0.0,0.0,-2.7283,-2.7151,-2.7635,-2.8924,-2.8361,-2.7733,-2.7307,-2.6339,-2.5351,-2.4461,0.0,0.0,0.0,0.0,0.0,0.0,0.0,0.0,0.0,0.0,0.0,0.0,0.0,0.0,0.0,0.0,0.0,0.0,0.0,0.0,0.0,0.0,0.0,0.0,0.0,0.0,0.0,0.0,0.0,0.0,0.0,0.0,0.0,0.0,0.0,0.0,0.0,0.0,0.0,0.0,0.0,0.0,0.0,0.0,0.0,0.0,0.0,0.0,0.0,0.0,0.0,0.0,0.0,0.0,0.0,0.0,0.0,0.0,0.0,0.0,-2.9374,0.0,0.0,0.0,0.0,0.0,0.0,0.0,0.0,0.0,0.0,0.0,0.0,0.0,0.0,0.0,0.0,0.0,0.0,0.0,0.0,0.0,0.0,0.0,0.0,0.0,0.0,0.0,0.0,0.0,0.0,0.0,0.0,0.0,0.0,0.0,0.0,0.0,0.0,0.0,0.0,0.0,-2.6305,-2.6053,-2.6247,-2.7152,-2.6765,-2.6408,-2.6309,-2.5227,-2.4716,-2.5076,-2.4041,0.0,0.0,0.0,0.0,0.0,0.0,0.0,0.0,0.0,0.0,0.0,0.0,0.0,0.0,0.0,0.0,0.0,0.0,0.0,0.0,0.0,0.0,0.0,0.0,0.0,0.0,0.0,0.0,0.0,0.0,0.0,0.0,0.0,0.0,0.0,0.0,0.0,0.0,0.0,0.0,0.0,0.0,0.0,0.0,0.0,0.0,0.0,0.0,0.0,0.0,0.0,0.0,0.0,0.0,0.0,0.0,0.0,0.0,0.0,0.0,-2.9107,0.0,0.0,0.0,0.0,0.0,0.0,0.0,0.0,0.0,0.0,0.0,0.0,0.0,0.0,0.0,0.0,0.0,0.0,0.0,0.0,0.0,0.0,0.0,0.0,0.0,0.0,0.0,0.0,0.0,0.0,0.0,0.0,0.0,0.0,0.0,0.0,0.0,0.0,0.0,0.0,-2.5706,-2.519,-2.5222,-2.6249,-2.5787,-2.5315,-2.5113,-2.4505,-2.4103,-2.396,-2.3078,0.0,0.0,0.0,0.0,0.0,0.0,0.0,0.0,0.0,0.0,0.0,0.0,0.0,0.0,0.0,0.0,0.0,0.0,0.0,0.0,0.0,0.0,0.0,0.0,0.0,0.0,0.0,0.0,0.0,0.0,0.0,0.0,0.0,0.0,0.0,0.0,0.0,0.0,0.0,0.0,0.0,0.0,0.0,0.0,0.0,0.0,0.0,0.0,0.0,0.0,0.0,0.0,0.0,-3.0468,-3.0468,-2.9828,-2.9808,-2.9416,-2.8771,-2.9489,-2.9223,-2.8232,0.0,0.0,0.0,0.0,0.0,0.0,0.0,0.0,0.0,0.0,0.0,0.0,0.0,0.0,0.0,0.0,0.0,0.0,0.0,0.0,0.0,0.0,0.0,0.0,0.0,-2.7727,-2.8164,0.0,0.0,0.0,0.0,0.0,0.0,0.0,0.0,0.0,0.0,0.0,0.0,-2.5201,-2.4479,-2.4411,-2.5451,-2.4902,-2.4289,-2.3877,-2.3824,-2.3421,-2.2549,-2.1899,-2.1589,0.0,0.0,0.0,0.0,0.0,0.0,0.0,0.0,0.0,0.0,0.0,0.0,0.0,0.0,0.0,0.0,0.0,0.0,0.0,0.0,0.0,0.0,0.0,0.0,0.0,0.0,0.0,0.0,0.0,0.0,0.0,0.0,-2.2178,-2.346,0.0,0.0,0.0,0.0,0.0,0.0,0.0,0.0,0.0,0.0,0.0,0.0,0.0,-3.0478,-3.0527,-3.058,-3.0642,-3.072,-3.0762,-3.0762,-3.0732,-3.0667,-3.0587,-3.0467,-3.0537,0.0,-2.8256,-2.8774,0.0,0.0,0.0,0.0,0.0,0.0,0.0,0.0,0.0,0.0,0.0,0.0,0.0,0.0,0.0,0.0,0.0,0.0,0.0,0.0,0.0,0.0,-2.7865,-2.8561,-2.8198,-2.814,0.0,-2.8932,-2.7956,-2.8514,0.0,0.0,0.0,0.0,0.0,0.0,0.0,0.0,-2.4351,-2.3871,-2.3634,-2.3817,-2.332,-2.2955,-2.2876,-2.2733,-2.2562,-2.2422,-2.2321,-2.2421,-2.2675,-2.2408,0.0,0.0,0.0,0.0,0.0,0.0,0.0,0.0,0.0,0.0,0.0,0.0,0.0,0.0,0.0,0.0,0.0,0.0,0.0,0.0,0.0,0.0,0.0,0.0,0.0,0.0,0.0,0.0,0.0,-2.2264,-2.3624,-2.4762,-2.5606,-2.6473,0.0,0.0,0.0,0.0,0.0,0.0,0.0,0.0,0.0,-3.0927,-3.1782,-3.228,-3.2305,-3.2245,-3.1992,-3.1574,-3.1538,-3.1276,-3.0781,-3.0758,-3.0724,-3.0697,-3.065,-3.0205,-2.9477,-2.9306,-2.9264,-2.9244,0.0,0.0,0.0,0.0,-2.8103,-2.7816,-2.8624,-2.8891,0.0,0.0,0.0,0.0,0.0,0.0,0.0,0.0,0.0,0.0,0.0,0.0,0.0,-2.9162,-2.9087,-2.9014,-2.9723,-2.924,-2.8659,0.0,-2.8441,-2.8241,-2.8034,0.0,0.0,0.0,0.0,-2.4993,-2.4644,-2.3956,-2.3445,-2.3301,-2.2927,-2.2632,-2.2487,-2.2377,-2.2338,-2.2338,-2.2163,-2.2124,-2.2275,-2.2283,-2.263,0.0,0.0,0.0,0.0,0.0,0.0,0.0,0.0,0.0,0.0,0.0,0.0,0.0,0.0,0.0,0.0,0.0,0.0,0.0,0.0,0.0,0.0,0.0,0.0,0.0,0.0,0.0,0.0,-2.3619,-2.4815,-2.6079,-2.69,-2.7576,0.0,0.0,0.0,0.0,0.0,0.0,-3.0959,-3.1695,-3.2187,-3.2432,-3.3058,-3.3376,-3.3398,-3.3359,-3.3024,-3.2426,-3.2182,-3.1714,-3.1023,-3.0774,-3.0645,-3.0593,-3.0571,-3.0543,-3.0453,-2.9777,-2.9853,-3.0309,-2.9602,-2.9295,-2.9216,-2.9216,-2.8848,-2.8427,-2.902,-2.9216,-2.9331,-2.998,0.0,-2.9455,-2.8866,0.0,0.0,0.0,0.0,-2.7711,-2.8519,-2.8557,-2.8613,-2.942,-2.9476,-2.9401,-2.9513,-2.9589,-2.9476,0.0,-2.8671,-2.8275,-2.7584,0.0,0.0,0.0,0.0,-2.5204,-2.4919,-2.4014,-2.3301,-2.3035,-2.2747,-2.2583,-2.2564,-2.2412,-2.2395,-2.2581,-2.2178,-2.1915,-2.1915,-2.2353,-2.2716,-2.3012,0.0,0.0,0.0,0.0,0.0,0.0,0.0,0.0,0.0,0.0,0.0,0.0,0.0,0.0,0.0,0.0,0.0,0.0,0.0,0.0,0.0,0.0,0.0,0.0,0.0,0.0,0.0,0.0,0.0,-2.7672,-2.7643,0.0,0.0,0.0,0.0,-3.0462,-3.0548,-3.0911,-3.1799,-3.1934,-3.2407,-3.3311,-3.3317,-3.3339,-3.3408,-3.3402,-3.3378,-3.3319,-3.2428,-3.1977,-3.1895,-3.1002,-3.06,-3.0593,-3.0527,-3.0511,-3.0491,-3.0374,-3.0337,-3.0292,-3.0188,-3.0128,-3.0128,-3.0128,-3.0109,-3.007,-3.0109,-3.0128,-3.0133,-3.0113,-2.9444,-2.8655,-2.8617,-2.7947,0.0,0.0,-2.8332,-2.8538,-2.9401,-2.9026,-2.8558,-2.9247,-2.8933,-2.8596,-2.9045,-2.9272,-2.9472,0.0,-2.9494,-2.9258,-2.9037,0.0,-2.845,-2.7496,-2.6656,-2.5773,-2.4748,-2.372,-2.301,-2.2764,-2.2487,-2.2598,-2.3291,-2.2699,-2.2598,-2.3291,-2.2654,-2.2282,-2.2282,-2.2975,-2.3363,-2.3363,-2.4137,0.0,0.0,0.0,0.0,0.0,0.0,0.0,0.0,0.0,0.0,0.0,0.0,0.0,0.0,0.0,0.0,0.0,0.0,0.0,0.0,0.0,0.0,0.0,0.0,0.0,0.0,0.0,0.0,-2.8293,-2.8809,0.0,-3.0215,-3.019,-3.0269,-3.0578,-3.1119,-3.1599,-3.1952,-3.3044,-3.3859,-3.4219,-3.4763,-3.5052,-3.5079,-3.5034,-3.4741,-3.4237,-3.3847,-3.3354,-3.2772,-3.2434,-3.22,-3.2055,-3.146,-3.1214,-3.1164,-3.0528,-3.0254,-3.0234,-3.0199,-3.0204,-3.0204,-3.0204,-3.0204,-3.0204,-3.0204,-3.0204,-3.0171,-3.0019,-2.9614,-2.9176,-2.912,-2.8781,-2.8476,-2.8773,-2.8847,-2.8922,-2.924,-2.9091,-2.8922,-2.9156,-2.901,-2.8901,-2.9052,-2.9148,-2.923,-2.9293,-2.9185,-2.9071,-2.8984,-2.8815,-2.8597,-2.8232,-2.7342,-2.639,-2.5486,-2.4725,-2.4046,-2.347,-2.3585,-2.3816,-2.41,-2.3427,-2.3122,-2.3376,-2.2716,-2.231,-2.231,-2.2564,-2.2699,-2.2699,-2.341,-2.3782,0.0,0.0,0.0,0.0,0.0,0.0,0.0,0.0,0.0,0.0,0.0,0.0,0.0,0.0,0.0,0.0,0.0,0.0,0.0,0.0,0.0,0.0,0.0,0.0,0.0,0.0,-2.8276,-2.8917,-2.9604,-3.0122,-3.0375,-3.051,-3.0713,-3.1019,-3.1591,-3.221,-3.2845,-3.3994,-3.4785,-3.513,-3.5691,-3.5999,-3.5991,-3.597,-3.565,-3.5096,-3.4739,-3.4224,-3.3555,-3.3237,-3.3023,-3.2878,-3.2295,-3.186,-3.1527,-3.0904,-3.0475,-3.0194,-3.0199,-3.0204,-3.0204,-3.0204,-3.0204,-3.0185,-3.0128,-3.0064,-3.0038,-2.9805,-2.957,-2.9397,-2.9314,-2.9209,-2.9086,-2.9086,-2.9086,-2.9086,-2.9086,-2.9086,-2.9104,-2.9038,-2.906,-2.9082,-2.8966,-2.8971,-2.8993,-2.8925,-2.8915,-2.8905,-2.8905,-2.8737,-2.8562,-2.8448,-2.7627,-2.673,-2.5994,-2.5331,-2.4689,-2.4104,-2.4292,-2.4608,-2.4831,-2.386,-2.3429,-2.3902,-2.2794,-2.2224,-2.2446,-2.2608,-2.2564,-2.231,-2.3274,-2.3883,-2.4154,0.0,0.0,0.0,0.0,0.0,0.0,0.0,0.0,0.0,0.0,0.0,0.0,0.0,0.0,0.0,0.0,0.0,0.0,0.0,0.0,0.0,0.0,0.0,-2.8086,-2.818,-2.8708,-2.9689,-2.9973,-3.0177,-3.0386,-3.051,-3.0953,-3.1824,-3.1991,-3.2787,-3.4502,-3.4687,-3.513,-3.5966,-3.5996,-3.5991,-3.5991,-3.5988,-3.5951,-3.5883,-3.497,-3.4475,-3.4311,-3.3395,-3.2974,-3.2974,-3.2954,-3.2396,-3.1541,-3.1503,-3.0992,-3.0204,-3.0204,-3.0204,-3.0204,-3.0204,-3.0204,-3.0171,-2.9972,-2.9857,-2.9773,-2.9492,-2.9312,-2.9188,-2.9126,-2.9104,-2.9064,-2.9064,-2.9064,-2.9064,-2.9064,-2.9064,-2.906,-2.8934,-2.8989,-2.8993,-2.8669,-2.8761,-2.8834,-2.8637,-2.8761,-2.8881,-2.8881,-2.8694,-2.8448,-2.8129,-2.7451,0.0,-2.6194,-2.5436,-2.4842,-2.4571,-2.4557,-2.4847,-2.5575,-2.4024,-2.3552,-2.4877,-2.3007,-2.2145,-2.2778,-2.3197,-2.3071,-2.2395,-2.3782,-2.4881,-2.5609,0.0,0.0,0.0,0.0,0.0,0.0,0.0,0.0,0.0,0.0,0.0,0.0,0.0,0.0,0.0,0.0,0.0,0.0,0.0,0.0,0.0,-2.8998,-2.9293,-2.9029,-2.9137,-2.9417,-2.9896,-3.0075,-3.0266,-3.051,-3.0588,-3.0953,-3.1824,-3.2561,-3.3431,-3.4541,-3.5254,-3.5755,-3.5986,-3.5955,-3.5929,-3.5929,-3.5779,-3.5732,-3.5753,-3.5436,-3.5271,-3.524,-3.4932,-3.4751,-3.4669,-3.3993,-3.3216,-3.2398,-3.1762,-3.1002,-3.0204,-3.0204,-3.0204,-3.0204,-3.0204,-3.0204,-3.0171,-2.9972,-2.9857,-2.9773,-2.9492,-2.9228,-2.903,-2.898,-2.8845,-2.8743,-2.8743,-2.8743,-2.8743,-2.8743,-2.8743,-2.8743,-2.8687,-2.8718,-2.8718,-2.8612,-2.8637,-2.8662,-2.8612,-2.8448,-2.8316,-2.8316,-2.8264,-2.8147,-2.784,-2.7449,0.0,-2.6204,-2.615,-2.5976,-2.5355,-2.5778,-2.6167,-2.637,-2.5459,-2.4693,-2.4298,-2.3455,-2.2919,-2.2872,-2.3227,-2.3562,-2.3883,-2.4814,-2.5406,0.0,0.0,0.0,0.0,0.0,0.0,0.0,0.0,0.0,0.0,0.0,0.0,0.0,0.0,0.0,0.0,0.0,0.0,0.0,0.0,0.0,0.0,-2.9114,-2.9472,-2.9472,-2.9608,-2.9786,-3.0066,-3.0209,-3.0371,-3.0588,-3.0907,-3.1493,-3.2415,-3.3331,-3.4241,-3.5135,-3.5702,-3.6009,-3.6001,-3.5923,-3.5908,-3.5908,-3.5732,-3.5641,-3.566,-3.562,-3.5585,-3.5565,-3.5489,-3.5424,0.0,-3.4787,-3.3876,-3.2718,-3.221,-3.1293,0.0,0.0,0.0,0.0,0.0,-3.0019,-2.9921,-2.9716,-2.9608,-2.9532,-2.9249,-2.9048,-2.8905,-2.881,-2.8687,-2.8587,-2.8587,-2.8587,-2.8587,-2.8587,-2.8587,-2.8587,-2.8587,-2.8334,-2.808,-2.808,-2.808,-2.8055,-2.7954,0.0,0.0,-2.7765,-2.7823,-2.784,-2.7552,-2.7338,-2.6977,-2.6404,-2.6553,-2.6539,-2.6116,-2.6437,-2.6691,-2.6691,-2.5732,0.0,0.0,0.0,-2.3193,-2.3305,-2.3681,0.0,0.0,0.0,0.0,0.0,0.0,0.0,0.0,-2.7382,-2.7718,0.0,0.0,0.0,0.0,0.0,0.0,0.0,0.0,0.0,0.0,0.0,0.0,0.0,0.0,0.0,0.0,-2.9532,-2.9644,-2.9644,-2.9753,-2.9918,-3.0157,-3.0336,-3.0505,-3.0704,-3.1381,-3.2264,-3.3361,-3.4072,-3.4875,-3.5798,0.0,0.0,0.0,0.0,-3.5683,-3.5872,-3.564,-3.5544,-3.5585,-3.5585,-3.5565,-3.5493,-3.5412,-3.5364,-3.53,-3.5289,-3.4305,-3.2691,-3.2691,-3.1656,-3.0051,-3.0133,-3.0157,-3.0142,-2.9937,-2.9695,0.0,0.0,0.0,0.0,-2.8782,-2.8713,-2.8761,-2.8637,-2.8587,-2.8587,-2.8587,-2.8587,-2.8587,-2.8587,-2.8587,-2.8569,-2.8478,-2.7918,-2.7381,-2.729,-2.7248,-2.7168,-2.703,-2.746,-2.7745,-2.7289,-2.7461,-2.7522,-2.7181,-2.7149,-2.7053,-2.6725,-2.6691,-2.6691,-2.6691,0.0,0.0,-2.6691,-2.5473,-2.4863,-2.5341,-2.3898,-2.3317,-2.405,-2.4505,-2.505,-2.571,-2.5727,-2.6048,-2.6691,-2.6691,-2.6858,-2.7132,-2.6748,-2.7069,0.0,0.0,0.0,0.0,0.0,0.0,0.0,0.0,0.0,0.0,0.0,0.0,0.0,0.0,0.0,-2.9476,-2.9716,-2.9853,-2.9853,-2.9946,-3.008,-3.0203,-3.0375,-3.0781,-3.1497,-3.1762,-3.2564,-3.4218,-3.3903,-3.4015,-3.4898,-3.4272,0.0,-3.4852,-3.4114,-3.4353,-3.565,-3.4886,-3.4841,-3.5528,0.0,0.0,-3.5493,-3.5364,-3.5315,-3.53,-3.5239,-3.4254,-3.2691,-3.2691,-3.1298,-2.9202,-2.9753,-2.9972,-2.9921,-2.9734,-2.9212,-2.8594,-2.8388,-2.8289,-2.8207,-2.7922,-2.8215,-2.8694,-2.8612,-2.8587,0.0,-2.8587,-2.8587,-2.8587,-2.8587,-2.8587,-2.8424,-2.7797,-2.7501,-2.7236,-2.6584,-2.6261,-2.6287,-2.6879,-2.6732,-2.6653,-2.7109,-2.7244,-2.7181,-2.6858,-2.6791,-2.6758,-2.6725,-2.6691,-2.6691,-2.6691,-2.6691,-2.6691,-2.6691,-2.6147,-2.5478,-2.4749,-2.4349,-2.4486,-2.5243,-2.5914,-2.6336,-2.6471,-2.6488,-2.6556,-2.6691,-2.6691,-2.6725,-2.6791,-2.6994,-2.777,0.0,0.0,0.0,0.0,0.0,0.0,0.0,0.0,0.0,0.0,0.0,-2.8675,-2.9284,0.0,-2.9546,-2.9727,-2.9883,-2.9992,-2.9992,-3.0136,-3.0273,-3.0352,-3.0439,-3.0869,-3.1754,-3.188,-3.2474,-3.3899,-3.3623,-3.3587,-3.4039,-3.3647,-3.3573,-3.3946,-3.3453,-3.3563,-3.4331,-3.3832,-3.3776,-3.4199,-3.4199,-3.4416,-3.4807,-3.4731,-3.4917,-3.5289,-3.5226,-3.4254,-3.2615,-3.179,-3.039,-2.8831,-2.9061,-2.8865,-2.8546,-2.8765,-2.8519,-2.8086,-2.7964,-2.8178,-2.8412,-2.7803,-2.813,-2.8737,-2.8637,-2.8587,-2.8587,-2.8587,-2.8587,-2.8496,-2.808,-2.8279,-2.8388,-2.7598,-2.7091,-2.6645,-2.6135,-2.5584,-2.5358,-2.5842,-2.6034,-2.6285,-2.6852,-2.6956,-2.6891,-2.6725,-2.6691,-2.6691,-2.6691,-2.6691,-2.6691,-2.6691,-2.6691,-2.6624,-2.6436,-2.5835,-2.5191,-2.4451,-2.4573,-2.4968,-2.5539,-2.6097,-2.6505,-2.6691,-2.6691,-2.6691,-2.6691,-2.6691,-2.6691,-2.6691,-2.6858,-2.7831,0.0,0.0,0.0,0.0,0.0,0.0,0.0,0.0,-2.8383,-2.9098,-2.9289,-2.95,-3.0032,-3.0247,-3.0242,-2.9937,-3.0141,-3.0285,-3.0085,-3.026,-3.0359,-3.0267,-3.0393,-3.0859,-3.1794,-3.1902,-3.2336,-3.3308,-3.3241,-3.3159,-3.3141,-3.3003,-3.2949,-3.3039,-3.2804,-3.2818,-3.3072,-3.2798,-3.2756,-3.2891,-3.2891,-3.3244,-3.3876,-3.3834,-3.4208,-3.4795,-3.4576,-3.3719,-3.2348,-3.0787,-2.9569,-2.8654,-2.8438,-2.7714,-2.6893,-2.7567,-2.7608,-2.7328,-2.7328,-2.7769,-2.8146,-2.7374,-2.7765,-2.8524,-2.8402,-2.8478,-2.8587,-2.8587,-2.8587,-2.8406,-2.7616,-2.799,-2.8352,-2.7417,-2.6627,-2.6033,-2.5642,-2.486,-2.437,-2.4804,-2.539,-2.599,-2.6605,-2.6691,-2.6691,-2.6691,-2.6691,-2.6691,-2.6691,-2.6691,-2.6657,-2.6573,-2.6573,-2.6401,-2.5908,-2.5351,-2.4823,-2.4451,-2.4719,-2.5098,-2.5503,-2.5872,-2.6245,-2.6573,-2.6657,-2.6691,-2.6691,-2.6691,-2.6691,-2.6691,-2.6843,-2.7793,-2.5517,-2.5402,-2.5811,-2.8145,-2.8217,-2.8096,0.0,0.0,-2.9939,-3.0048,-3.012,-3.0189,-3.0273,-3.0814,-3.0967,-3.0051,-3.0674,-3.0948,-3.0064,-3.0188,-3.0144,-2.9438,-3.0037,-3.0859,-3.1729,-3.1923,-3.2367,-3.3249,-3.2702,-3.2305,-3.2242,-3.1578,-3.1454,-3.2045,-3.13,-3.1543,-3.2916,-3.2211,-3.2199,-3.2891,-3.2891,-3.2955,-3.3031,-3.2971,-3.3001,-3.3049,-3.2244,-3.1809,-3.1546,-3.0402,-2.9409,-2.8569,-2.826,-2.7158,-2.5838,-2.6514,-2.6303,-2.5678,-2.5678,-2.5693,-2.5683,-2.5531,-2.6468,-2.7634,-2.7544,-2.8051,-2.8587,-2.8587,-2.8587,-2.8406,-2.7616,-2.799,-2.8207,-2.6711,-2.6075,-2.5636,-2.4897,-2.3784,-2.3327,-2.466,-2.4769,-2.5113,-2.6454,-2.6691,-2.6691,-2.6691,-2.6691,-2.6691,-2.6691,-2.6691,-2.6539,-2.621,-2.6175,-2.5872,-2.5082,-2.5275,-2.5275,-2.4863,-2.4863,-2.5098,-2.5503,-2.5872,-2.6139,-2.6175,-2.6505,-2.6691,-2.6691,-2.6691,-2.6691,-2.6708,-2.7385,-2.7964,-2.5275,-2.5669,-2.622,-2.7235,-2.795,-2.8572,-2.9273,-2.9751,-3.003,-3.003,-3.0071,-3.0095,-2.9973,-3.0323,-3.0624,0.0,-3.0636,-3.0672,-3.075,-3.0573,-3.0298,-2.9997,-3.0278,-3.0665,-3.1132,-3.1256,-3.1688,-3.2582,-3.1893,-3.1425,-3.1403,-3.1003,-3.0884,-3.1144,-3.0742,-3.082,-3.1448,-3.1121,-3.1121,-3.1448,-3.1448,-3.1693,-3.2148,-3.2108,-3.234,-3.2699,-3.1847,-3.1503,-3.1412,-3.033,-2.9328,-2.8454,-2.8184,-2.7301,-2.6219,-2.6486,-2.608,-2.5403,-2.5403,-2.5674,-2.5983,-2.5445,-2.6005,-2.7004,-2.7391,-2.7725,-2.7973,-2.7955,-2.8275,-2.8297,-2.7037,-2.7652,-2.8272,-2.6968,-2.6598,-2.6187,-2.5077,-2.4058,-2.3485,-2.3949,-2.4279,-2.4814,-2.5879,-2.642,-2.6691,-2.6691,-2.6691,-2.6691,-2.6691,-2.6691,-2.6421,-2.5611,-2.5105,-2.4777,-2.4665,-2.4591,-2.4766,-2.5205,-2.5237,-2.5427,-2.5835,-2.6016,-2.621,-2.6419,-2.6607,-2.6691,-2.6691,-2.6691,-2.6691,-2.6708,-2.7012,-2.725,-2.5275,-2.571,-2.6092,-2.6529,-2.7357,-2.8118,-2.8417,-2.9004,-2.9498,-2.9498,-2.9715,-2.9864,-2.9731,-3.0018,-3.0386,-3.0633,-3.0468,-3.0468,-3.0918,-3.0603,-3.0271,-3.016,-3.0375,-3.0488,-3.035,-3.0595,-3.1055,-3.1756,-3.125,-3.0898,-3.0895,-3.0777,-3.0672,-3.06,-3.0535,-3.0472,-3.041,-3.0398,-3.0398,-3.0398,-3.0398,-3.0694,-3.1232,-3.1153,-3.1412,-3.1886,-3.1248,-3.0966,-3.0909,-3.0067,-2.9305,-2.8633,-2.842,-2.7624,-2.6612,-2.6612,-2.608,-2.5384,-2.5164,-2.5438,-2.5821,-2.5193,-2.5521,-2.6267,-2.679,-2.7214,-2.7489,-2.7495,-2.8027,-2.8261,-2.6892,-2.7556,-2.8337,-2.7271,-2.6943,-2.6525,-2.5253,-2.431,-2.3636,-2.3451,-2.3816,-2.4492,-2.5439,-2.6048,-2.6471,-2.6657,-2.6691,-2.6691,-2.6691,-2.6624,-2.6117,-2.5059,-2.4576,-2.4292,-2.4175,-2.426,-2.4633,-2.5281,-2.5427,-2.5652,-2.5908,-2.6052,-2.6245,-2.6539,-2.6657,-2.6691,-2.6691,-2.6691,-2.6691,-2.6691,-2.6691,-2.6691,-2.5729,-2.5404,-2.5319,-2.6873,-2.6572,-2.6164,-2.7214,-2.7954,-2.8459,-2.8459,-2.9115,-2.9713,-2.9696,-3.0283,-3.0527,-2.9758,-3.0283,-3.0584,-3.0023,-3.0026,-2.9883,-2.9301,-3.0046,-3.0296,0.0,-3.0214,-3.0747,-3.0838,-3.0876,-3.0898,-3.0895,-3.0777,-3.0672,-3.06,-3.0535,-3.0472,-3.041,-3.0398,-3.0398,-3.0398,-3.0398,-3.0367,-3.0343,-3.0071,-2.9972,-2.9964,-2.9755,-2.9664,-2.9645,-2.9415,-2.9295,-2.9256,-2.9052,-2.8007,-2.6612,-2.6612,-2.608,-2.5293,-2.4502,-2.4245,-2.4263,-2.4168,-2.4679,-2.5335,-2.529,-2.6318,-2.7507,-2.7507,-2.8021,-2.8406,-2.7598,-2.7997,-2.8337,-2.7271,-2.6809,-2.6321,-2.5242,-2.4167,-2.3422,-2.3393,-2.341,-2.3883,-2.5355,-2.5625,-2.5879,-2.659,-2.6691,-2.6691,-2.6691,-2.635,-2.5716,-2.4623,-2.5102,-2.4894,-2.3467,-2.463,-2.5297,-2.4942,-2.5275,-2.5503,-2.554,-2.5908,-2.6104,-2.6139,-2.6505,-2.6691,-2.6691,-2.6691,-2.6691,-2.6691,-2.6691,-2.6691,-2.4644,-2.4568,-2.4652,-2.5265,-2.5618,-2.5897,-2.6274,-2.6889,-2.74,-2.74,-2.8072,-2.8634,-2.8574,-2.9325,-3.0019,-3.0217,-3.0112,-3.0133,-3.0452,-3.0273,-3.0035,-2.9882,-3.0257,0.0,-3.0217,-3.0531,0.0,-3.0799,-3.0857,-3.0898,-3.0895,-3.0777,-3.0672,-3.06,-3.0535,-3.0472,-3.041,-3.0398,-3.0398,-3.0398,-3.0398,-3.0355,-3.0286,-3.0071,-2.9931,-2.9888,-2.9681,-2.9608,-2.9589,-2.9395,-2.9293,-2.9272,-2.9089,-2.8663,-2.8136,-2.7585,-2.6888,-2.6007,-2.4667,-2.419,-2.4208,-2.417,-2.4721,-2.5472,-2.5962,-2.6812,-2.756,-2.756,-2.807,-2.8406,-2.7616,-2.799,-2.8412,-2.7652,-2.7401,-2.6988,-2.5685,-2.5128,-2.4577,-2.3579,-2.3799,-2.4272,-2.478,-2.527,-2.5862,-2.659,-2.6691,-2.6691,-2.6691,-2.6367,-2.5681,-2.4623,-2.4478,-2.4242,-2.3739,-2.4157,-2.4665,-2.5243,-2.5689,-2.5908,-2.5908,-2.628,-2.6505,-2.6505,-2.6624,-2.6691,-2.6691,-2.6691,-2.6691,-2.6691,-2.6691,-2.6691,-2.322,-2.3578,-2.3934,-2.3526,-2.421,-2.4931,-2.476,-2.5467,-2.6254,-2.6468,-2.7214,-2.7941,-2.8184,-2.8796,-2.9442,-2.999,-2.9706,-2.9622,-3.0187,-2.9998,-2.9905,-3.0171,-3.0309,-3.0451,-3.0599,-3.0675,0.0,-3.0799,-3.0857,-3.0898,-3.0895,-3.0777,-3.0672,-3.06,-3.0535,-3.0472,-3.041,-3.0398,-3.0398,-3.0398,-3.0379,-3.0343,-3.0279,-3.0011,-2.9869,-2.9787,-2.9494,-2.9394,-2.9394,-2.9249,-2.9185,-2.9185,-2.9044,-2.881,-2.8484,-2.7677,-2.6851,-2.6025,-2.4979,-2.4428,-2.4245,-2.4538,-2.4961,-2.5509,-2.6334,-2.7013,-2.756,-2.756,-2.807,-2.8478,-2.7978,-2.8207,-2.844,-2.7847,-2.7701,-2.7295,-2.5922,-2.5609,-2.5169,-2.368,-2.3765,-2.4201,-2.4472,-2.5321,-2.615,-2.6623,-2.6573,-2.6539,-2.6691,-2.647,-2.5857,-2.4623,-2.4269,-2.3915,-2.3378,-2.3696,-2.4201,-2.4874,-2.5542,-2.5872,-2.5872,-2.628,-2.6505,-2.6505,-2.6624,-2.6691,-2.6691,-2.6691,-2.6691,-2.6691,-2.6691,-2.6691,-2.1552,-2.2364,-2.3094,-2.1752,-2.2373,-2.3203,-2.2827,-2.3783,-2.4941,-2.5593,-2.6567,-2.7585,-2.8458,-2.8724,-2.891,-2.9067,-2.9126,-2.9197,-2.9299,-2.9321,-2.9532,0.0,0.0,0.0,0.0,0.0,0.0,-3.0794,0.0,-3.0898,-3.0895,-3.078,-3.0676,-3.0607,-3.0535,-3.0472,-3.041,-3.041,-3.0398,-3.0398,-3.0336,-3.0311,-3.0299,-2.9869,-2.9662,-2.9589,-2.9181,-2.8994,-2.8994,-2.8994,-2.8994,-2.8994,-2.8994,-2.8539,-2.7769,-2.6998,-2.6209,-2.5531,-2.5531,-2.4961,-2.4392,-2.5201,-2.5434,-2.5555,-2.6326,-2.7041,-2.7562,-2.7562,-2.8057,-2.8587,-2.8587,-2.8587,-2.844,-2.7858,-2.7701,-2.7313,-2.5956,-2.5659,-2.5236,-2.3782,-2.3511,-2.3714,-2.4404,-2.571,-2.6691,-2.6691,-2.635,-2.6245,-2.6624,-2.6657,-2.6082,-2.4671,-2.4502,-2.3887,-2.2508,-2.3286,-2.3875,-2.3913,-2.489,-2.5465,-2.5503,-2.5872,-2.6104,-2.6123,-2.6505,-2.6691,-2.6691,-2.6691,-2.6691,-2.6691,-2.6691,-2.6691,-1.9448,-2.0,-2.0718,-2.0454,-2.0668,-2.1138,-2.1834,-2.2286,-2.3041,-2.4599,-2.5607,-2.6494,-2.7423,-2.8569,0.0,-2.9136,-2.9545,0.0,-2.9423,-2.9455,0.0,-2.9864,0.0,-3.0266,-3.0439,-3.0535,0.0,0.0,-3.0796,-3.0857,-3.0895,-3.0871,-3.0794,-3.0672,-3.0607,-3.0543,-3.0482,-3.0406,-3.0398,-3.0398,-3.0379,-3.0343,-3.0279,-2.9883,-2.9662,-2.9589,-2.9181,-2.8994,-2.8994,-2.8994,-2.8994,-2.8994,-2.8994,-2.8865,-2.8686,-2.8443,-2.7879,-2.7181,-2.7181,-2.6264,-2.5237,-2.6025,-2.6661,-2.7127,-2.7332,-2.7861,-2.8403,-2.8403,-2.8499,-2.8587,-2.8587,-2.8587,-2.8492,-2.8093,-2.7858,-2.7512,-2.694,-2.6618,-2.615,-2.522,-2.505,-2.4915,-2.4574,-2.571,-2.6691,-2.6691,-2.635,-2.6139,-2.6245,-2.598,-2.555,-2.4882,-2.4366,-2.3872,-2.3465,-2.3452,-2.3546,-2.3815,-2.4601,-2.5198,-2.5503,-2.5872,-2.6245,-2.6539,-2.6657,-2.6691,-2.6691,-2.6691,-2.6691,-2.6691,-2.6691,-2.6691,-1.7348,-1.8226,-1.9111,-1.8442,-1.9379,-2.0492,-2.0678,-2.1744,-2.304,-2.4348,-2.5402,-2.6366,-2.7184,-2.821,-2.8963,0.0,0.0,0.0,-2.9642,-2.9428,-2.9397,0.0,-2.9927,0.0,-3.0375,-3.0472,-3.0564,0.0,-3.0765,-3.0834,-3.0895,-3.0895,-3.0843,-3.0691,-3.0633,-3.056,-3.0471,-3.0414,-3.0398,-3.0398,-3.0367,-3.0343,-3.0279,-2.9848,-2.9643,-2.9589,0.0,-2.8994,-2.8994,-2.8994,-2.8994,-2.8994,-2.8994,-2.8994,-2.8957,-2.8613,-2.8191,-2.7787,-2.7787,-2.72,-2.6521,-2.6979,-2.7394,-2.7766,-2.8072,-2.8421,-2.8694,-2.8644,-2.8637,-2.8587,-2.8587,-2.8587,-2.8492,-2.8037,-2.78,-2.7582,-2.7068,-2.6825,-2.6471,-2.5744,-2.5609,-2.5473,-2.505,-2.593,-2.6691,-2.6691,-2.635,-2.6033,-2.5872,-2.5652,-2.5351,-2.4942,-2.4286,-2.38,-2.36,-2.342,-2.3444,-2.3815,-2.4523,-2.5098,-2.5503,-2.5872,-2.621,-2.6436,-2.6607,-2.6691,-2.6691,-2.6691,-2.6691,-2.6691,-2.6691,-2.6691,-1.5155,-1.6483,-1.7546,-1.6285,-1.8129,-2.0114,-1.9541,-2.1417,-2.3505,-2.4364,-2.5441,-2.6446,-2.7265,-2.7719,-2.8251,-2.8923,0.0,-2.8879,-2.9751,-2.9272,-2.9079,-2.9715,-2.9784,-2.9943,-3.0352,-3.0386,-3.0482,-3.0667,-3.0758,-3.0811,-3.0896,-3.0895,-3.0843,-3.0691,-3.0633,-3.0535,-3.0414,-3.039,-3.0398,-3.0398,-3.0304,-3.0279,-3.0279,-2.9813,-2.9606,-2.9589,0.0,0.0,-2.8994,-2.8994,-2.8994,-2.8994,-2.8994,-2.8994,-2.8925,-2.8227,-2.7952,-2.7952,-2.7952,-2.7952,-2.7952,-2.7952,-2.7907,-2.7986,-2.8609,-2.8761,-2.8687,-2.8612,-2.8587,-2.8587,-2.8587,-2.8562,-2.8414,-2.7886,-2.7683,-2.7474,-2.6873,-2.6725,-2.6471,-2.5744,-2.5693,-2.571,-2.5625,-2.6201,-2.6691,-2.6691,-2.635,-2.5944,-2.554,-2.5465,-2.5275,-2.4863,-2.4209,-2.37,-2.3365,-2.3341,-2.3483,-2.3875,-2.4484,-2.5005,-2.5465,-2.5835,-2.6052,-2.6175,-2.6505,-2.6691,-2.6691,-2.6691,-2.6691,-2.6691,-2.6691,-2.6691,-1.2734,-1.3416,-1.4251,-1.5002,-1.6082,-1.7273,-1.8622,-1.9747,-2.1203,-2.3744,-2.4452,-2.5067,-2.665,-2.75,-2.8051,-2.818,-2.8696,-2.9116,-2.9227,-2.9136,-2.9203,0.0,-2.977,-2.9931,-3.0273,-3.0371,0.0,0.0,0.0,-3.0777,-3.0896,-3.0895,-3.0843,-3.0691,-3.0633,-3.0568,-3.0472,-3.0436,-3.0398,-3.0398,-3.0209,-3.0182,-3.0279,-2.9864,-2.9643,-2.9589,-2.9355,0.0,-2.8994,-2.8994,-2.8994,-2.8994,-2.8994,-2.8994,-2.8975,-2.8851,-2.8796,-2.8796,-2.8796,-2.8796,-2.8796,-2.8796,-2.875,-2.8699,-2.8773,-2.8761,-2.8687,-2.8612,-2.8587,-2.8587,-2.8587,-2.8378,-2.8156,-2.8047,-2.7666,-2.7244,-2.7149,-2.6891,-2.6471,-2.5744,-2.6099,-2.6319,-2.571,-2.6201,-2.6691,-2.6691,-2.635,-2.5944,-2.554,-2.5198,-2.4823,-2.4451,-2.3807,-2.3483,-2.3716,-2.3444,-2.3444,-2.3793,-2.42,-2.4719,-2.5465,-2.5577,-2.5908,-2.6573,-2.6657,-2.6691,-2.6691,-2.6691,-2.6691,-2.6691,-2.6691,-2.6691,-1.071,-1.1406,-1.2283,-1.3291,-1.445,-1.5834,-1.7567,-1.9492,-2.1476,-2.3341,-2.4597,-2.5581,-2.6387,-2.7013,-2.7486,-2.7892,-2.8215,-2.8596,-2.907,-2.9047,-2.9093,-2.9491,-2.9664,-2.9874,-3.0166,-3.0286,-3.0389,-3.054,0.0,-3.0746,-3.084,-3.0855,-3.0796,-3.0691,-3.0633,-3.0576,-3.0501,-3.0428,-3.0398,-3.0398,-3.0299,-3.0215,-3.0133,-2.9851,-2.9607,-2.9435,-2.9228,0.0,-2.8994,-2.8994,-2.8994,-2.8994,-2.8994,-2.8994,-2.8994,-2.8994,-2.8994,-2.8994,-2.8994,-2.8994,-2.8994,-2.8994,-2.8994,-2.8929,-2.8834,-2.8785,-2.8737,-2.8637,-2.8587,-2.8562,-2.8396,-2.8228,-2.802,-2.7707,-2.7272,-2.6956,-2.6956,-2.6825,-2.659,-2.6234,-2.6454,-2.659,-2.6234,-2.6471,-2.6691,-2.6691,-2.6556,-2.628,-2.5872,-2.5465,-2.4981,-2.4385,-2.401,-2.3906,-2.4051,-2.3906,-2.3971,-2.4351,-2.4531,-2.4981,-2.5799,-2.5799,-2.6087,-2.6691,-2.6691,-2.6691,-2.6691,-2.6691,-2.6691,-2.6691,-2.6691,-2.6691,-0.9105,-0.9857,-1.0757,-1.1715,-1.3193,-1.4841,-1.6552,-1.9278,-2.1719,-2.2726,-2.4512,-2.5938,-2.6033,-2.6367,-2.6843,0.0,-2.7698,-2.8027,-2.8823,-2.8918,-2.8985,-2.937,-2.9531,0.0,-3.0079,-3.0199,0.0,0.0,0.0,0.0,-3.0818,-3.0814,-3.0693,-3.047,-3.0386,-3.0312,-3.0238,-3.0169,-3.0217,-3.0398,-3.0355,-3.0215,-2.9992,-2.9799,-2.9551,-2.9293,-2.9138,0.0,0.0,-2.8994,-2.8994,-2.8994,-2.8994,-2.8994,-2.8994,-2.8994,-2.8994,-2.8994,-2.8994,-2.8994,-2.8994,-2.8994,-2.8994,-2.8994,-2.8858,-2.881,-2.8761,-2.8662,-2.8612,-2.8543,-2.8299,-2.8156,-2.7964,-2.7352,-2.6956,-2.6691,-2.6691,-2.6691,-2.6691,-2.6691,-2.6691,-2.6691,-2.6691,-2.6691,-2.6691,-2.6691,-2.6691,-2.6539,-2.6175,-2.5835,-2.5313,-2.4533,-2.4343,-2.4302,-2.4302,-2.4302,-2.441,-2.4759,-2.4744,-2.5082,-2.5799,-2.5908,-2.6175,-2.6573,-2.6657,-2.6691,-2.6691,-2.6691,-2.6691,-2.6691,-2.6691,-2.6691,-0.8114,-0.8542,-0.9053,-1.0755,-1.2305,-1.3886,-1.5698,-1.7877,-1.9984,-2.1434,-2.3086,-2.4441,-2.5179,-2.5721,-2.6241,-2.6725,0.0,-2.7875,-2.8092,-2.8667,-2.9143,-2.9365,0.0,0.0,-3.0064,-3.0109,-3.0202,0.0,0.0,0.0,-3.0838,-3.0827,-3.0467,-2.9726,-2.9576,-2.9486,-2.9407,-2.9284,-2.9621,-3.0398,-3.0209,-3.008,-2.9992,-2.9799,-2.9551,-2.9293,-2.9272,0.0,0.0,-2.8994,-2.8994,-2.8994,-2.8994,-2.8994,-2.8994,-2.8994,-2.8994,-2.8994,-2.8994,-2.8994,-2.8994,-2.8994,-2.8994,-2.8994,-2.8905,-2.8858,-2.8785,-2.8694,-2.8662,-2.8587,-2.8562,-2.8326,-2.7964,-2.7352,-2.6956,-2.6691,-2.6691,-2.6691,-2.6691,-2.6691,-2.6691,-2.6691,-2.6691,-2.6691,-2.6691,-2.6691,-2.6691,-2.6539,-2.6175,-2.6068,-2.5726,-2.4942,-2.4533,-2.4302,-2.4302,-2.4302,-2.4317,-2.4343,-2.4343,-2.4574,-2.4981,-2.5351,-2.5762,-2.6139,-2.6505,-2.6691,-2.6691,-2.6691,-2.6691,-2.6691,-2.6691,-2.6691,-0.673,-0.7413,-0.8297,-0.9962,-1.1075,-1.2396,-1.4865,-1.7114,-1.906,-2.0525,-2.2424,-2.3927,-2.4296,-2.5082,-2.5701,0.0,-2.6636,-2.7165,-2.7213,-2.8346,-2.906,-2.8731,-2.9492,0.0,0.0,0.0,-3.0196,0.0,0.0,0.0,-3.0051,-2.957,-2.9127,-2.8769,-2.871,-2.8631,-2.8528,-2.8472,-2.8839,-2.9621,-2.9536,-2.9666,-3.0003,-2.978,-2.9589,-2.9353,-2.9203,0.0,0.0,-2.8994,-2.8994,-2.8994,-2.8994,-2.8994,-2.8994,-2.8994,-2.8994,-2.8994,-2.8994,-2.8994,-2.8994,-2.8994,-2.8994,-2.8994,-2.8929,-2.8858,-2.8785,-2.8718,-2.8644,-2.8543,-2.8352,-2.7926,-2.7487,-2.7276,-2.6956,-2.6691,-2.6691,-2.6691,-2.6691,-2.6691,-2.6691,-2.6691,-2.6691,-2.6691,-2.6691,-2.6691,-2.6691,-2.6657,-2.647,-2.6245,-2.5872,-2.5313,-2.5121,-2.4942,-2.4679,-2.4863,-2.502,-2.502,-2.502,-2.5082,-2.5237,-2.5427,-2.5577,-2.5726,-2.6123,-2.635,-2.635,-2.6573,-2.6691,-2.6691,-2.6691,-2.6691,-0.5882,-0.6661,-0.7621,-0.9216,-1.0172,-1.146,-1.4343,-1.6524,-1.8434,-1.9888,-2.199,-2.3591,-2.3661,-2.4657,-2.546,0.0,-2.6286,-2.6927,-2.7029,-2.834,-2.9189,-2.89,0.0,-3.0219,0.0,-3.0037,0.0,0.0,0.0,0.0,0.0,-2.8079,-2.7593,-2.7803,-2.7794,-2.7731,-2.7608,-2.7593,-2.7981,-2.8736,-2.8736,-2.9058,-2.9637,-2.9485,-2.9399,-2.9392,0.0,0.0,0.0,-2.8994,-2.8994,-2.8994,-2.8994,-2.8994,-2.8994,-2.8994,-2.8994,-2.8994,-2.8994,-2.8994,-2.8994,-2.8994,-2.8994,-2.8994,-2.8952,-2.8881,-2.881,-2.8761,-2.8662,-2.8562,-2.8326,-2.7869,-2.7444,-2.7369,-2.7085,-2.6825,-2.6725,-2.6691,-2.6691,-2.6691,-2.6691,-2.6691,-2.6691,-2.6691,-2.6691,-2.6691,-2.6691,-2.6657,-2.6539,-2.628,-2.5908,-2.5389,-2.5427,-2.5351,-2.4942,-2.5275,-2.5503,-2.5503,-2.5503,-2.5503,-2.5503,-2.5615,-2.5689,-2.5689,-2.6052,-2.628,-2.628,-2.6539,-2.6691,-2.6691,-2.6691,-2.6691,-0.5849,-0.6352,-0.6807,-0.8588,-0.9874,-1.1399,-1.407,-1.6178,-1.7991,-1.9651,-2.1682,-2.326,-2.3405,-2.4545,-2.5503,-2.5503,-2.6529,-2.7394,-2.7737,-2.8767,-2.9754,0.0,0.0,-3.0142,-3.073,-3.0379,0.0,0.0,0.0,0.0,0.0,-2.6523,-2.6015,-2.6888,-2.6846,-2.678,-2.6702,-2.6651,-2.7044,-2.7909,-2.7909,-2.8234,-2.8812,-2.8736,-2.8957,0.0,0.0,0.0,0.0,-2.8994,-2.8994,-2.8994,-2.8994,-2.8994,-2.8994,-2.8994,-2.8994,-2.8994,-2.8994,-2.8994,-2.8994,-2.8994,-2.8994,-2.8994,-2.8994,-2.8952,-2.8863,-2.881,-2.8712,-2.8587,-2.8587,-2.8352,-2.802,-2.7771,-2.743,-2.7117,-2.6758,-2.6691,-2.6691,-2.6691,-2.6691,-2.6691,-2.6691,-2.6691,-2.6691,-2.6691,-2.6691,-2.6556,-2.6175,-2.6104,-2.5799,-2.4981,-2.5275,-2.5351,-2.4942,-2.5275,-2.5503,-2.5503,-2.5503,-2.5503,-2.5503,-2.5872,-2.6087,-2.6087,-2.6505,-2.6691,-2.6691,-2.6691,-2.6691,-2.6691,-2.6691,-2.6691,-0.5905,-0.6817,-0.7674,-0.9169,-1.0701,-1.2236,-1.4039,-1.607,-1.7955,-1.9355,-2.1049,-2.2438,-2.286,-2.3906,-2.4941,-2.5695,0.0,0.0,0.0,-2.8987,0.0,-2.9176,-2.9344,-2.9622,0.0,0.0,0.0,0.0,0.0,0.0,0.0,-2.7111,-2.6387,-2.6013,-2.5995,-2.5924,-2.582,-2.5788,-2.6188,-2.7005,-2.6929,-2.7616,-2.9001,-2.8755,0.0,0.0,0.0,0.0,0.0,-2.9067,-2.8994,-2.8994,-2.8994,-2.8994,-2.8994,-2.8994,-2.8994,-2.8994,-2.8994,-2.8994,-2.8994,-2.8994,-2.8994,-2.8994,-2.8952,-2.8881,-2.881,-2.8687,-2.8637,-2.8587,-2.8587,-2.8352,-2.802,-2.7771,-2.7444,-2.7117,-2.6758,-2.6691,-2.6691,-2.6691,-2.6691,-2.6691,-2.6691,-2.6691,-2.6691,-2.6691,-2.6691,-2.6657,-2.6539,-2.6505,-2.6315,-2.5799,-2.5835,-2.5652,-2.4942,-2.5275,-2.5615,-2.5908,-2.5908,-2.5908,-2.5908,-2.6016,-2.598,-2.5689,-2.6087,-2.628,-2.628,-2.659,-2.6691,-2.6691,-2.6691,-2.6691,-0.6721,-0.746,-0.8203,-0.994,-1.1461,-1.2894,-1.4579,-1.6452,-1.8142,-1.9345,-2.0845,-2.2035,-2.242,-2.345,-2.4524,-2.5258,-2.6054,0.0,0.0,0.0,0.0,-2.9017,0.0,0.0,0.0,0.0,0.0,0.0,0.0,0.0,0.0,-2.6893,-2.6229,-2.5659,-2.5597,-2.551,-2.5395,-2.5374,-2.5619,-2.612,-2.5964,-2.6833,-2.8521,-2.8251,0.0,0.0,0.0,0.0,0.0,-2.9044,-2.8994,-2.8994,-2.8994,-2.8994,-2.8994,-2.8994,-2.8994,-2.8994,-2.8994,-2.8994,-2.8994,-2.8994,-2.8975,-2.8952,-2.8881,-2.881,-2.8737,-2.8662,-2.8612,-2.8587,-2.8587,-2.8466,-2.8201,-2.7926,-2.7695,-2.7426,-2.6971,-2.6891,-2.6858,-2.6725,-2.6691,-2.6691,-2.6691,-2.6691,-2.6691,-2.6691,-2.6691,-2.6657,-2.6505,-2.647,-2.6315,-2.5908,-2.5872,-2.5689,-2.516,-2.5351,-2.5615,-2.5872,-2.5872,-2.5944,-2.6087,-2.6104,-2.6052,-2.5944,-2.621,-2.6315,-2.6315,-2.6573,-2.6691,-2.6691,-2.6691,-2.6691,0.0,-0.8317,-0.8619,-1.0872,-1.2112,-1.3413,-1.5618,-1.7159,0.0,-1.9634,-2.0966,-2.2002,-2.2184,-2.3348,-2.4291,-2.4441,-2.5679,0.0,0.0,-2.9125,0.0,0.0,-3.0063,0.0,0.0,0.0,0.0,0.0,0.0,0.0,0.0,-2.6041,-2.5634,-2.57,-2.5577,-2.548,-2.5403,-2.534,-2.5303,-2.5303,-2.516,-2.5982,-2.7586,-2.7399,0.0,0.0,0.0,0.0,0.0,-2.9017,-2.8994,-2.8994,-2.8994,-2.8994,-2.8994,-2.8994,-2.8994,-2.8994,-2.8994,-2.8994,-2.8994,-2.8994,-2.8952,-2.8881,-2.881,-2.8761,-2.8694,-2.8694,-2.8662,-2.8587,-2.8587,-2.8587,-2.8518,-2.8183,-2.8102,-2.7936,-2.7321,-2.7213,-2.7085,-2.6758,-2.6691,-2.6691,-2.6691,-2.6691,-2.6691,-2.6691,-2.6691,-2.6539,-2.6175,-2.6104,-2.5928,-2.5475,-2.5433,-2.5449,-2.5422,-2.547,-2.5503,-2.554,-2.554,-2.5726,-2.6087,-2.6139,-2.6315,-2.6657,-2.6691,-2.6691,-2.6691,-2.6691,-2.6691,-2.6691,-2.6691,-2.6691,-1.0531,0.0,-1.0348,-1.1541,-1.2985,-1.4466,0.0,-1.726,-1.8657,-2.0217,-2.1369,-2.2315,-2.3281,-2.3615,-2.4243,-2.5687,-2.6529,-2.7501,-2.9021,-2.9748,0.0,-2.8621,-2.9004,-2.9237,0.0,0.0,0.0,0.0,0.0,0.0,0.0,-2.6041,-2.5634,-2.57,-2.5618,-2.5542,-2.548,-2.5357,-2.5303,-2.5303,-2.516,-2.5982,-2.7599,-2.7443,0.0,0.0,0.0,0.0,-2.9228,-2.9067,-2.8994,-2.8994,-2.8994,-2.8994,-2.8994,-2.8994,-2.8994,-2.8994,-2.8994,-2.8994,-2.8994,-2.8994,-2.8952,-2.8881,-2.881,-2.8761,-2.8694,-2.8637,-2.8612,-2.8587,-2.8587,-2.8587,-2.8518,-2.8183,-2.8102,-2.7936,-2.7321,-2.7213,-2.7085,-2.6758,-2.6691,-2.6691,-2.6691,-2.6691,-2.6691,-2.6691,-2.6691,-2.6539,-2.6175,-2.6104,-2.573,-2.4814,-2.4916,-2.4952,-2.4742,-2.5232,-2.5652,-2.5944,-2.5944,-2.598,-2.6104,-2.6401,-2.647,-2.6245,-2.6539,-2.6691,-2.6691,-2.6691,-2.6691,-2.6691,-2.6691,-2.6691,-1.1469,-1.1514,-1.1379,-1.2935,-1.4143,-1.5319,-1.6763,-1.7942,-1.9078,-2.0181,-2.1307,-2.224,-2.2673,-2.3672,-2.4606,-2.5138,-2.6776,0.0,0.0,0.0,-2.9584,-2.8253,-2.8496,0.0,0.0,0.0,0.0,0.0,0.0,0.0,0.0,-2.585,-2.5634,-2.57,-2.5625,-2.558,-2.5504,-2.5406,-2.5331,-2.5303,-2.516,-2.5735,-2.6934,-2.7169,-2.7859,0.0,0.0,0.0,-2.916,-2.9044,-2.8994,-2.8994,-2.8994,-2.8994,-2.8994,-2.8994,-2.8994,-2.8994,-2.8994,-2.8994,-2.8994,-2.8994,-2.8952,-2.8905,-2.8858,-2.8785,-2.8687,-2.8612,-2.8587,-2.8587,-2.8587,-2.8492,-2.8326,-2.8129,-2.7992,-2.7783,-2.7289,-2.7213,-2.7085,-2.6758,-2.6691,-2.6691,-2.6691,-2.6691,-2.6657,-2.647,-2.6419,-2.628,-2.5872,-2.5835,-2.5615,-2.5005,-2.5088,-2.5131,-2.4952,-2.5276,-2.5577,-2.5799,-2.5835,-2.5908,-2.6087,-2.6315,-2.6401,-2.6367,-2.659,-2.6691,-2.6691,-2.6691,-2.6691,-2.6691,-2.6691,-2.6691,-1.1974,-1.2096,-1.2422,-1.4405,-1.5309,-1.6074,-1.7634,-1.8633,-1.9414,-1.9876,-2.1064,-2.1935,-2.1794,-2.3639,0.0,0.0,0.0,0.0,-2.9178,-2.9547,-2.94,-2.8253,-2.8242,0.0,0.0,0.0,0.0,0.0,0.0,0.0,0.0,-2.559,-2.5631,-2.57,-2.5648,-2.5574,-2.5504,-2.5432,-2.5365,-2.5303,-2.5182,-2.5463,-2.6124,-2.682,-2.7438,0.0,0.0,0.0,-2.8994,-2.8994,-2.8994,-2.8994,-2.8994,-2.8994,-2.8994,-2.8994,-2.8994,-2.8994,-2.8994,-2.8994,-2.8994,-2.8994,-2.8952,-2.8929,-2.8887,-2.8815,-2.8718,-2.8637,-2.8612,-2.8587,-2.8587,-2.8352,-2.8102,-2.8102,-2.7897,-2.7612,-2.7276,-2.7213,-2.7085,-2.6758,-2.6691,-2.6691,-2.6691,-2.6691,-2.6573,-2.6245,-2.6139,-2.5944,-2.554,-2.5465,-2.5357,-2.5169,-2.5249,-2.5303,-2.5282,-2.5363,-2.5427,-2.5503,-2.5577,-2.5762,-2.6175,-2.6123,-2.628,-2.6691,-2.6691,-2.6691,-2.6691,-2.6691,-2.6691,-2.6691,-2.6691,-2.6691,-1.3599,-1.4152,-1.4398,-1.4883,-1.5731,-1.6689,-1.7769,-1.8382,-1.8982,0.0,-2.0795,-2.1883,-2.3187,-2.3824,-2.4519,0.0,0.0,-2.8477,0.0,0.0,-2.9377,-2.8237,0.0,0.0,0.0,0.0,0.0,0.0,0.0,0.0,0.0,-2.5537,-2.5626,-2.5699,-2.5683,-2.5637,-2.5504,-2.5432,-2.5365,-2.5303,-2.5274,-2.5535,-2.6042,-2.6884,-2.7511,0.0,0.0,-2.9085,-2.8994,-2.8994,-2.8994,-2.8994,-2.8994,-2.8994,-2.8994,-2.8994,-2.8994,-2.8994,-2.8994,-2.8994,-2.8994,-2.8994,-2.8994,-2.8975,-2.8929,-2.8881,-2.8839,-2.8718,-2.8637,-2.8587,-2.8587,-2.8352,-2.8102,-2.8102,-2.7897,-2.7612,-2.7276,-2.7213,-2.7085,-2.6758,-2.6691,-2.6691,-2.6691,-2.6691,-2.6691,-2.6624,-2.6315,-2.5944,-2.554,-2.5198,-2.4642,-2.3725,-2.4151,-2.4405,-2.4157,-2.4687,-2.5121,-2.5465,-2.5835,-2.6175,-2.6573,-2.628,-2.628,-2.6691,-2.6691,-2.6691,-2.6691,-2.6691,-2.6691,-2.6691,-2.6691,-2.6691,-1.443,-1.5227,-1.59,-1.6417,-1.6919,-1.7618,-1.8788,-1.9207,-1.9535,0.0,0.0,0.0,0.0,0.0,-2.5949,-2.7879,0.0,-2.8531,-2.8437,-2.8732,-2.8735,0.0,0.0,0.0,0.0,0.0,0.0,0.0,0.0,0.0,0.0,0.0,-2.5639,-2.5699,-2.5703,-2.5644,-2.5504,-2.5473,-2.5395,-2.5303,-2.5303,-2.5329,-2.5376,-2.6342,-2.6942,-2.7303,0.0,-2.8732,-2.8994,-2.8994,-2.8994,-2.8994,-2.8994,-2.8994,-2.8994,-2.8994,-2.8994,-2.8994,-2.8994,-2.8994,-2.8994,-2.8994,-2.8994,-2.8994,-2.8952,-2.8929,-2.8881,-2.8785,-2.8712,-2.8662,-2.8612,-2.8352,-2.8075,-2.7926,-2.7654,-2.7338,-2.7021,-2.6923,-2.6891,-2.6725,-2.6691,-2.6691,-2.6691,-2.6691,-2.6624,-2.6401,-2.621,-2.5944,-2.554,-2.516,-2.4713,-2.4201,-2.424,-2.4261,-2.4122,-2.4387,-2.4823,-2.5465,-2.5872,-2.6175,-2.6367,-2.6401,-2.6505,-2.6691,-2.6691,-2.6691,-2.6691,-2.6691,-2.6691,-2.6691,-2.6691,-2.6691,-1.5121,-1.6155,-1.7227,-1.8086,-1.819,-1.8417,-1.9579,-2.0042,-2.0295,0.0,0.0,0.0,0.0,-2.4373,0.0,-2.8731,-2.8718,-2.8357,-2.8065,0.0,0.0,0.0,0.0,0.0,0.0,0.0,0.0,0.0,0.0,0.0,0.0,0.0,-2.5632,-2.5699,-2.5703,-2.5631,-2.5526,-2.551,-2.5432,-2.5303,-2.5303,-2.5149,-2.4869,-2.5855,-2.644,-2.6755,-2.7693,-2.8426,-2.8994,-2.8994,-2.8994,-2.8994,-2.8994,-2.8994,-2.8994,-2.8994,-2.8994,-2.8994,-2.8994,-2.8994,-2.8994,-2.8994,-2.8994,-2.8994,-2.8994,-2.8952,-2.8881,-2.881,-2.8761,-2.8669,-2.8612,-2.8352,-2.8047,-2.784,-2.7535,-2.7244,-2.6891,-2.6825,-2.6791,-2.6725,-2.6691,-2.6691,-2.6691,-2.6691,-2.659,-2.628,-2.6175,-2.598,-2.5689,-2.5198,-2.4902,-2.4902,-2.4533,-2.4302,-2.4302,-2.4302,-2.4574,-2.516,-2.5689,-2.598,-2.6104,-2.6505,-2.6691,-2.6691,-2.6691,-2.6691,-2.6691,-2.6691,-2.6691,-2.6691,-2.6691,-2.6691,-1.6036,-1.7289,-1.8549,-1.9267,-1.9093,-1.8839,-1.9316,-2.0105,0.0,-2.0809,0.0,0.0,0.0,-2.4806,-2.6116,-2.6398,-2.7054,-2.7466,0.0,0.0,0.0,0.0,0.0,0.0,0.0,0.0,0.0,0.0,0.0,0.0,0.0,0.0,0.0,-2.5699,-2.57,-2.5662,-2.5598,-2.5532,-2.5432,-2.5303,-2.5303,-2.5201,-2.5013,-2.5836,-2.6415,-2.684,-2.7636,-2.8384,-2.8994,-2.8994,-2.8994,-2.8994,-2.8994,-2.8994,-2.8994,-2.8994,-2.8994,-2.8994,-2.8994,-2.8994,-2.8994,-2.8994,-2.8994,-2.8994,-2.8994,-2.8952,-2.8881,-2.881,-2.8761,-2.8669,-2.8612,-2.8352,-2.8102,-2.8075,-2.7869,-2.7565,-2.7244,-2.7149,-2.7085,-2.6758,-2.6691,-2.6691,-2.6691,-2.6691,-2.6691,-2.6657,-2.635,-2.6104,-2.6052,-2.5389,-2.4902,-2.4902,-2.4533,-2.4302,-2.4302,-2.4302,-2.4302,-2.4385,-2.5121,-2.5726,-2.6087,-2.6505,-2.6691,-2.6691,-2.6691,-2.6691,-2.6691,-2.6691,-2.6691,-2.6691,-2.6691,-2.6691,-1.6612,-1.7891,-1.9097,-1.9186,-1.95,0.0,0.0,-2.0772,-2.1118,-2.097,-2.1623,0.0,0.0,0.0,-2.6594,-2.6743,-2.7218,-2.7572,0.0,0.0,0.0,0.0,0.0,0.0,0.0,0.0,0.0,0.0,0.0,0.0,0.0,0.0,0.0,-2.5707,-2.5697,-2.5642,-2.5535,-2.5507,-2.5432,-2.5303,-2.5303,-2.5182,-2.5006,-2.5404,-2.6105,-2.7007,-2.7307,-2.8087,-2.9181,-2.9044,-2.8994,-2.8994,-2.8994,-2.8994,-2.8994,-2.8994,-2.8994,-2.8994,-2.8994,-2.8994,-2.8994,-2.8994,-2.8952,-2.8929,-2.8929,-2.8881,-2.8834,-2.8761,-2.8718,-2.8669,-2.8612,-2.8518,-2.8352,-2.8156,-2.802,-2.7811,-2.7307,-2.7213,-2.7085,-2.6758,-2.6691,-2.6691,-2.6691,-2.6691,-2.6691,-2.6691,-2.6573,-2.647,-2.647,-2.5762,-2.5275,-2.5275,-2.4679,-2.4302,-2.4302,-2.4302,-2.4302,-2.4302,-2.4823,-2.5313,-2.5726,-2.6087,-2.6419,-2.6691,-2.6691,-2.6691,-2.6691,-2.6691,-2.6691,-2.6691,-2.6691,-2.6691,-1.7302,-1.856,-1.9734,-1.9643,0.0,0.0,-2.1166,-2.1471,-2.1616,-2.1506,-2.2002,-2.2976,-2.4582,0.0,0.0,0.0,0.0,0.0,0.0,0.0,0.0,0.0,0.0,0.0,0.0,0.0,0.0,0.0,0.0,0.0,0.0,0.0,0.0,0.0,-2.5696,-2.5663,-2.5567,-2.5522,-2.5453,-2.5357,-2.5322,-2.5222,-2.5099,-2.5179,-2.5787,-2.6817,-2.6785,-2.7586,-2.8883,-2.875,-2.8805,-2.8994,-2.8994,-2.8994,-2.8994,-2.8994,-2.8994,-2.8994,-2.8994,-2.8994,-2.8994,-2.8994,-2.8952,-2.8929,-2.8905,-2.8858,-2.8785,-2.8718,-2.8669,-2.8662,-2.8612,-2.8587,-2.8518,-2.8183,-2.8102,-2.7936,-2.7321,-2.7213,-2.7085,-2.6758,-2.6691,-2.6691,-2.6691,-2.6691,-2.6691,-2.6691,-2.6691,-2.6691,-2.6691,-2.6104,-2.5577,-2.5351,-2.4823,-2.4451,-2.4302,-2.4302,-2.4302,-2.4302,-2.4574,-2.4902,-2.5275,-2.5835,-2.6245,-2.6505,-2.6505,-2.6573,-2.6691,-2.6573,-2.659,-2.6691,-2.6691,-2.6691,-1.8213,-1.9349,-2.066,-2.0944,0.0,0.0,-2.165,-2.1996,-2.2263,-2.2466,-2.2694,-2.3275,-2.4364,0.0,0.0,0.0,0.0,0.0,0.0,0.0,0.0,0.0,0.0,0.0,0.0,0.0,0.0,0.0,0.0,0.0,0.0,0.0,0.0,0.0,-2.5694,-2.5702,-2.5702,-2.5578,-2.5504,-2.5498,-2.5357,-2.5293,-2.5311,-2.5222,-2.5581,-2.62,-2.6152,-2.6827,-2.7988,-2.8007,-2.8399,-2.8994,-2.8994,-2.8994,-2.8994,-2.8994,-2.8994,-2.8994,-2.8994,-2.8994,-2.8994,-2.8994,-2.8994,-2.8994,-2.8929,-2.8858,-2.8785,-2.8718,-2.8644,-2.8587,-2.8587,-2.8587,-2.8518,-2.8183,-2.8102,-2.7936,-2.7321,-2.7213,-2.7085,-2.6758,-2.6691,-2.6691,-2.6691,-2.6691,-2.6691,-2.6691,-2.6691,-2.6691,-2.6691,-2.635,-2.5799,-2.4981,-2.4902,-2.4719,-2.4343,-2.4302,-2.4302,-2.4302,-2.4302,-2.4492,-2.4863,-2.5689,-2.6104,-2.6104,-2.6087,-2.628,-2.6691,-2.628,-2.6315,-2.6691,-2.6691,-2.6691,-1.8215,-1.9358,-2.051,-2.0105,0.0,0.0,0.0,-2.1636,0.0,0.0,-2.3274,-2.3776,-2.4583,0.0,0.0,0.0,0.0,0.0,0.0,0.0,0.0,0.0,0.0,0.0,0.0,0.0,0.0,0.0,0.0,0.0,0.0,0.0,0.0,0.0,-2.5642,-2.5644,-2.5568,-2.5517,-2.5453,-2.5357,-2.5224,-2.5201,-2.5311,-2.5222,-2.5627,-2.6435,-2.684,-2.7455,-2.8241,-2.8572,-2.8823,-2.8994,-2.8994,-2.8994,-2.8994,-2.8994,-2.8994,-2.8994,-2.8994,-2.8994,-2.8994,-2.8994,-2.8952,-2.8929,-2.8905,-2.8834,-2.8737,-2.8712,-2.8644,-2.8562,-2.8326,-2.8255,-2.8228,-2.8129,-2.7954,-2.7713,-2.7307,-2.7213,-2.7085,-2.6758,-2.6691,-2.6691,-2.6691,-2.6691,-2.6691,-2.6691,-2.6691,-2.6624,-2.6315,-2.5908,-2.5465,-2.4942,-2.4639,-2.4426,-2.4302,-2.4302,-2.4302,-2.4302,-2.4302,-2.4492,-2.4863,-2.5389,-2.5799,-2.6087,-2.6385,-2.6573,-2.6691,-2.6573,-2.6573,-2.6691,-2.6691,-2.6691,-1.8834,-1.9685,-2.051,-2.0105,-2.066,-2.1348,-2.1444,0.0,0.0,0.0,-2.298,-2.3116,-2.4082,-2.4598,0.0,0.0,0.0,0.0,0.0,0.0,0.0,0.0,0.0,0.0,0.0,0.0,0.0,0.0,0.0,0.0,0.0,0.0,0.0,0.0,-2.564,-2.5664,-2.5579,-2.5526,-2.546,-2.5382,-2.5244,-2.5201,-2.522,-2.5091,-2.5354,-2.5958,-2.6954,-2.7749,-2.8333,-2.8897,-2.9067,-2.8994,-2.8994,-2.8994,-2.8994,-2.8994,-2.8994,-2.8994,-2.8994,-2.8994,-2.8994,-2.8994,-2.8975,-2.8929,-2.8905,-2.8815,-2.8718,-2.8712,-2.8644,-2.8518,-2.8201,-2.802,-2.7926,-2.7765,-2.7607,-2.7413,-2.7085,-2.6989,-2.6956,-2.6725,-2.6691,-2.6691,-2.6691,-2.659,-2.647,-2.647,-2.647,-2.6332,-2.5908,-2.5799,-2.554,-2.4942,-2.4679,-2.4451,-2.4302,-2.4302,-2.4302,-2.4302,-2.4302,-2.4426,-2.4639,-2.5059,-2.5389,-2.5615,-2.5872,-2.6052,-2.621,-2.6052,-2.6068,-2.621,-2.621,-2.621,-1.9742,-2.0119,-2.051,-2.051,-2.056,-2.0795,-2.1534,-2.1852,-2.2179,-2.2817,0.0,-2.1715,-2.3062,0.0,0.0,0.0,0.0,0.0,0.0,0.0,0.0,0.0,0.0,0.0,0.0,0.0,0.0,0.0,0.0,0.0,0.0,0.0,0.0,-2.5581,-2.5661,-2.5701,-2.5682,-2.5566,-2.5498,0.0,-2.5348,-2.5222,-2.5084,-2.4915,-2.4964,-2.5272,-2.6725,-2.7754,-2.8464,-2.9038,-2.9181,-2.904,-2.9017,-2.8994,-2.8994,-2.8994,-2.8994,-2.8994,-2.8994,-2.8994,-2.8994,-2.8994,-2.8994,-2.8994,-2.8929,-2.8858,-2.8785,-2.8737,-2.8644,-2.8518,-2.8174,-2.7869,-2.7612,-2.7244,-2.7149,-2.7085,-2.6758,-2.6691,-2.6691,-2.6691,-2.6691,-2.6691,-2.6691,-2.6367,-2.6104,-2.6052,-2.6068,-2.5908,-2.554,-2.5799,-2.5726,-2.4981,-2.4863,-2.4719,-2.4343,-2.4302,-2.4302,-2.4302,-2.4302,-2.4302,-2.4302,-2.4679,-2.4902,-2.4902,-2.4981,-2.516,-2.5503,-2.516,-2.516,-2.5503,-2.5503,-2.5503,-1.9172,-1.9556,-1.9952,-1.9952,-2.0308,-2.0641,-2.0732,-2.0657,-2.077,-2.1591,-2.157,-2.1613,-2.2409,0.0,0.0,0.0,0.0,0.0,0.0,0.0,0.0,0.0,0.0,0.0,0.0,0.0,0.0,0.0,0.0,0.0,0.0,0.0,0.0,-2.5441,-2.5612,-2.5664,-2.5613,-2.5541,-2.5473,0.0,-2.5235,-2.5138,-2.5103,-2.505,-2.5655,-2.672,-2.6874,-2.7848,-2.9308,-2.9151,-2.9138,-2.9228,-2.9067,-2.8994,-2.8994,-2.8994,-2.8994,-2.8994,-2.8994,-2.8994,-2.8994,-2.8994,-2.8952,-2.8929,-2.8887,-2.8834,-2.8718,-2.8694,-2.8644,-2.8466,-2.7915,-2.7742,-2.7535,-2.6939,-2.6791,-2.6791,-2.6725,-2.6691,-2.6691,-2.6691,-2.6691,-2.6691,-2.6691,-2.6367,-2.598,-2.5689,-2.5615,-2.5615,-2.5503,-2.5313,-2.5082,-2.4902,-2.4599,-2.4385,-2.4302,-2.4302,-2.4302,-2.4302,-2.4302,-2.4302,-2.4302,-2.4679,-2.4902,-2.4902,-2.554,-2.5726,-2.5503,-2.5726,-2.5726,-2.5503,-2.5503,-2.5503,-2.0055,-2.0003,-1.9736,-1.9472,-1.961,-1.9804,-1.9814,-1.9377,-1.9211,-2.0012,-2.0343,-2.0589,0.0,0.0,0.0,0.0,0.0,0.0,0.0,0.0,0.0,0.0,0.0,0.0,0.0,0.0,0.0,0.0,0.0,0.0,0.0,-2.5146,-2.5332,-2.5401,-2.5606,-2.5683,-2.5641,-2.5554,-2.5486,-2.5446,-2.5274,-2.5126,-2.5,-2.4974,-2.5517,-2.6516,-2.6409,-2.7326,-2.8876,-2.8758,-2.8897,-2.916,-2.916,-2.9071,-2.8994,-2.8994,-2.8994,-2.8994,-2.8994,-2.8994,-2.8994,-2.8952,-2.8929,-2.8905,-2.8858,-2.8785,-2.8694,-2.8694,-2.8644,-2.8466,-2.7876,-2.7701,-2.7535,-2.6858,-2.6691,-2.6691,-2.6691,-2.6691,-2.6691,-2.6691,-2.6691,-2.6691,-2.6691,-2.621,-2.5615,-2.502,-2.5098,-2.5121,-2.4942,-2.4902,-2.4839,-2.4639,-2.4426,-2.4302,-2.4302,-2.4302,-2.4302,-2.4302,-2.4302,-2.4302,-2.4302,-2.4492,-2.4599,-2.4599,-2.5005,-2.5137,-2.4942,-2.5137,-2.5121,-2.4942,-2.4942,-2.4942,-2.1028,-2.0409,-1.957,-1.912,-1.8933,0.0,-1.8714,-1.8164,-1.7847,-1.8361,-1.8865,0.0,0.0,0.0,0.0,0.0,0.0,0.0,0.0,0.0,0.0,0.0,0.0,0.0,0.0,0.0,0.0,0.0,0.0,0.0,-2.4987,-2.5196,-2.5332,-2.5401,-2.5606,-2.57,-2.5702,-2.557,-2.5504,-2.5498,-2.5365,-2.5149,-2.4869,-2.4832,-2.5155,-2.5743,-2.5791,-2.6597,-2.7901,-2.8035,-2.8311,-2.8662,-2.8947,-2.8938,-2.8815,-2.8938,-2.897,-2.8929,-2.8994,-2.897,-2.8929,-2.8929,-2.8905,-2.8881,-2.881,-2.8718,-2.8601,-2.8669,-2.8569,-2.8335,-2.7847,-2.7672,-2.7444,-2.6858,-2.6691,-2.6691,-2.6691,-2.6657,-2.6624,-2.6691,-2.6657,-2.6573,-2.6505,-2.5872,-2.516,-2.441,-2.4574,-2.4679,-2.4343,-2.4599,-2.4679,-2.4343,-2.4302,-2.4302,-2.4302,-2.4302,-2.4302,-2.4302,-2.4302,-2.4302,-2.4302,-2.4302,-2.4302,-2.4302,-2.4385,-2.4385,-2.4302,-2.4385,-2.4385,-2.4302,-2.4302,-2.4302,-2.0066,-1.9552,-1.9064,-1.9021,-1.8647,-1.819,0.0,0.0,-1.7289,0.0,-1.7651,0.0,0.0,0.0,0.0,0.0,0.0,0.0,0.0,0.0,0.0,0.0,0.0,0.0,0.0,0.0,0.0,0.0,0.0,0.0,-2.4579,-2.5053,-2.5329,-2.5395,-2.5595,-2.5702,-2.5703,-2.5578,-2.5504,-2.5498,-2.5365,-2.5118,-2.4823,-2.4799,-2.5073,-2.5522,-2.5483,-2.6059,-2.7046,-2.6888,-2.6982,-2.7249,-2.7788,-2.7996,-2.8044,-2.8741,-2.8858,-2.8694,-2.8905,-2.8858,-2.8694,-2.8905,-2.8952,-2.8881,-2.881,-2.8551,-2.8308,-2.8543,-2.8237,-2.7818,-2.773,-2.7474,-2.7181,-2.6791,-2.6691,-2.6691,-2.6691,-2.6436,-2.628,-2.6624,-2.6436,-2.6068,-2.5726,-2.5275,-2.4839,-2.4385,-2.4343,-2.4343,-2.4302,-2.4343,-2.4343,-2.4302,-2.4302,-2.4302,-2.4302,-2.4302,-2.4302,-2.4302,-2.4302,-2.4302,-2.4302,-2.4302,-2.4302,-2.4302,-2.4639,-2.4639,-2.4302,-2.4639,-2.4639,-2.4302,-2.4302,-2.4302,-1.9846,-1.9623,-1.9364,-1.9071,-1.8363,-1.7689,-1.741,-1.7115,-1.6958,-1.7068,0.0,0.0,0.0,0.0,0.0,0.0,0.0,0.0,0.0,0.0,0.0,0.0,0.0,0.0,0.0,0.0,0.0,0.0,0.0,-2.4192,-2.4208,-2.4915,-2.5252,-2.5183,-2.5515,-2.5701,-2.5703,-2.5566,-2.5467,-2.539,-2.5331,-2.5118,-2.479,-2.4799,-2.4794,-2.4763,-2.4743,-2.5241,-2.6058,-2.6096,-2.6354,-2.6777,-2.7169,-2.7493,-2.7842,-2.8209,-2.8432,-2.8601,-2.8743,-2.8576,-2.8334,-2.8404,-2.843,-2.8378,-2.8326,-2.8165,-2.8,-2.8128,-2.7933,-2.7672,-2.7461,-2.7307,-2.7117,-2.6791,-2.6691,-2.6657,-2.6385,-2.621,-2.6104,-2.6052,-2.5872,-2.5652,-2.5237,-2.502,-2.4744,-2.4343,-2.4302,-2.4302,-2.4302,-2.4302,-2.4302,-2.4302,-2.4302,-2.4302,-2.4302,-2.4302,-2.4302,-2.4302,-2.4302,-2.4302,-2.4302,-2.4302,-2.4302,-2.4302,-2.4451,-2.4492,-2.4302,-2.4492,-2.4451,-2.4302,-2.4302,-2.4302,-2.0186,-1.9956,-1.9673,-1.912,-1.829,-1.758,0.0,0.0,-1.6869,0.0,0.0,0.0,0.0,0.0,0.0,0.0,0.0,0.0,0.0,0.0,0.0,0.0,0.0,0.0,0.0,0.0,0.0,0.0,0.0,-2.393,-2.3969,-2.4765,-2.5178,-2.5051,-2.5254,-2.5483,-2.57,-2.557,-2.5439,-2.5322,-2.5313,-2.5138,-2.485,-2.4799,-2.4604,-2.4321,-2.4228,-2.4538,-2.5109,-2.5264,-2.5577,-2.6046,-2.6614,-2.711,-2.753,-2.7952,-2.8304,-2.8601,-2.8601,-2.836,-2.8102,-2.802,-2.801,-2.7982,-2.7926,-2.7783,-2.7683,-2.776,-2.7612,-2.7413,-2.7244,-2.7149,-2.7021,-2.6758,-2.6691,-2.6539,-2.6068,-2.5944,-2.5835,-2.5427,-2.5351,-2.5237,-2.4942,-2.4839,-2.4639,-2.4343,-2.4302,-2.4302,-2.4302,-2.4302,-2.4302,-2.4302,-2.4302,-2.4302,-2.4302,-2.4302,-2.4302,-2.4302,-2.4302,-2.4302,-2.4302,-2.4302,-2.4302,-2.4302,-2.4302,-2.4302,-2.4302,-2.4302,-2.4302,-2.4302,-2.4302,-2.4302,-2.1175,-2.0452,-1.9673,-1.912,-1.8572,-1.8037,0.0,0.0,0.0,0.0,0.0,0.0,0.0,0.0,0.0,0.0,0.0,0.0,0.0,0.0,0.0,0.0,0.0,0.0,0.0,0.0,0.0,0.0,0.0,-2.3769,-2.3892,-2.4615,-2.5067,-2.5187,-2.4719,-2.4853,-2.5681,-2.557,-2.5467,-2.5379,-2.5332,-2.5198,-2.4981,-2.4785,-2.47,-2.466,-2.4339,-2.4226,-2.4263,-2.4264,-2.4301,-2.4483,-2.6027,-2.6631,-2.6851,-2.8393,-2.8779,-2.8601,-2.8601,-2.836,-2.8102,-2.8102,-2.8047,-2.7982,-2.7926,-2.7619,-2.7396,-2.7624,-2.7258,-2.6825,-2.7117,-2.6956,-2.6725,-2.6691,-2.6691,-2.6505,-2.5689,-2.554,-2.5427,-2.502,-2.4942,-2.4942,-2.4902,-2.4558,-2.4302,-2.4302,-2.4302,-2.4302,-2.4302,-2.4302,-2.4302,-2.4302,-2.4302,-2.4302,-2.4302,-2.4302,-2.4302,-2.4302,-2.4302,-2.4302,-2.4302,-2.4302,-2.4302,-2.4302,-2.4302,-2.4302,-2.4302,-2.4302,-2.4302,-2.4302,-2.4302,-2.4302,-2.0797,-2.0213,-1.9541,-1.9019,-1.851,-1.8025,-1.7413,-1.7301,-1.7173,0.0,0.0,0.0,0.0,0.0,0.0,0.0,0.0,0.0,0.0,0.0,0.0,0.0,0.0,0.0,0.0,0.0,0.0,0.0,0.0,0.0,-2.3397,-2.3849,-2.4102,-2.411,-2.3714,-2.3644,-2.3961,-2.4462,-2.4678,-2.4559,-2.4495,-2.4651,-2.4994,-2.4934,-2.4823,-2.4692,-2.4444,-2.4338,-2.4321,-2.4247,-2.4094,-2.403,-2.4754,-2.5594,-2.6417,-2.7171,-2.7939,-2.8576,-2.836,-2.8093,-2.7783,-2.7547,-2.7426,-2.7413,-2.7338,-2.7198,-2.7038,-2.7152,-2.694,-2.6725,-2.6858,-2.6791,-2.6624,-2.6367,-2.5908,-2.5465,-2.516,-2.5121,-2.4981,-2.4599,-2.4533,-2.4533,-2.4533,-2.4385,-2.4302,-2.4302,-2.4302,-2.4302,-2.4302,-2.4302,-2.4302,-2.4302,-2.4302,-2.4302,-2.4302,-2.4302,-2.4302,-2.4302,-2.4302,-2.4302,-2.4302,-2.4302,-2.4302,-2.4302,-2.4302,-2.4302,-2.4302,-2.4302,-2.4302,-2.4302,-2.4302,-2.4302,-2.0973,0.0,-1.9911,0.0,-1.892,-1.8403,-1.8116,0.0,-1.7652,0.0,0.0,0.0,0.0,0.0,0.0,0.0,0.0,0.0,0.0,0.0,0.0,0.0,0.0,0.0,0.0,0.0,0.0,0.0,0.0,0.0,-2.278,-2.3437,-2.3765,-2.3643,-2.3508,-2.3311,-2.3032,-2.385,-2.4219,-2.4138,-2.4322,-2.4643,-2.5068,-2.4947,-2.4837,-2.4749,-2.4459,-2.4355,-2.4389,-2.4266,-2.4036,-2.3834,-2.4288,-2.495,-2.5718,-2.6271,-2.6991,-2.7691,-2.7718,-2.7359,-2.6906,-2.6778,-2.6612,-2.6483,-2.6385,-2.6472,-2.6607,-2.6607,-2.6674,-2.6691,-2.6691,-2.6624,-2.6401,-2.598,-2.5389,-2.4902,-2.4902,-2.4784,-2.4599,-2.4343,-2.4302,-2.4302,-2.4302,-2.4302,-2.4302,-2.4302,-2.4302,-2.4219,-2.4094,-2.4219,-2.4219,-2.4078,-2.4219,-2.4302,-2.4302,-2.4302,-2.4302,-2.4302,-2.4302,-2.4302,-2.4302,-2.4302,-2.4302,-2.4302,-2.4302,-2.4302,-2.4302,-2.4302,-2.4302,-2.4302,-2.4302,-2.4302,0.0,0.0,0.0,0.0,0.0,0.0,-1.9635,0.0,-1.862,0.0,0.0,0.0,0.0,0.0,0.0,0.0,0.0,0.0,0.0,0.0,0.0,0.0,0.0,0.0,0.0,0.0,0.0,0.0,0.0,-2.2071,-2.2099,-2.344,-2.4095,-2.3832,-2.4078,-2.3829,-2.3027,-2.3763,-2.4139,-2.4172,-2.4811,-2.5154,-2.5182,-2.4861,-2.4779,-2.4874,-2.4409,-2.4284,-2.4389,-2.4266,-2.4054,-2.3868,-2.4664,-2.482,-2.4724,-2.5773,-2.6051,-2.6,-2.6631,-2.6224,-2.548,-2.588,-2.5688,-2.5263,-2.5163,-2.5577,-2.6087,-2.6087,-2.635,-2.6691,-2.6691,-2.635,-2.598,-2.5577,-2.5176,-2.4863,-2.4863,-2.4558,-2.4261,-2.4302,-2.4302,-2.4302,-2.4302,-2.4302,-2.4302,-2.4302,-2.4302,-2.4135,-2.3681,-2.4009,-2.4135,-2.3681,-2.4036,-2.4302,-2.4302,-2.4302,-2.4302,-2.4302,-2.4302,-2.4302,-2.4302,-2.4302,-2.4302,-2.4302,-2.4302,-2.4302,-2.4302,-2.4302,-2.4302,-2.4302,-2.4302,-2.4302,-2.2825,0.0,0.0,0.0,0.0,0.0,0.0,0.0,0.0,0.0,0.0,0.0,0.0,0.0,0.0,0.0,0.0,0.0,0.0,0.0,0.0,0.0,0.0,0.0,0.0,0.0,0.0,0.0,-2.0557,-2.1354,-2.1797,-2.2114,-2.2156,-2.1942,-2.2169,-2.1901,-2.115,-2.1965,-2.2685,-2.3269,-2.3396,-2.4062,-2.5212,-2.5099,-2.5013,-2.4888,-2.4657,-2.4495,-2.4389,-2.4266,-2.3917,-2.354,-2.3967,-2.4221,-2.4445,-2.4885,-2.5422,-2.5886,-2.5826,-2.5623,-2.548,-2.588,-2.5688,-2.5363,-2.5847,-2.5848,-2.5689,-2.5689,-2.5944,-2.628,-2.628,-2.5762,-2.5198,-2.5082,-2.4759,-2.4451,-2.4451,-2.412,-2.3909,-2.4219,-2.4302,-2.4302,-2.4302,-2.4302,-2.4302,-2.4302,-2.3994,-2.3867,-2.4078,-2.3909,-2.3867,-2.4078,-2.4219,-2.4302,-2.4302,-2.4302,-2.4302,-2.4302,-2.4302,-2.4302,-2.4302,-2.4302,-2.4302,-2.4302,-2.4302,-2.4302,-2.4302,-2.4302,-2.4302,-2.4302,-2.4302,-2.4302,-2.46,-2.3633,0.0,0.0,0.0,0.0,0.0,-1.8498,0.0,0.0,0.0,0.0,0.0,0.0,0.0,0.0,0.0,0.0,0.0,0.0,0.0,0.0,0.0,0.0,0.0,0.0,0.0,-1.8595,-1.9403,-2.0273,-2.1345,-2.1449,-2.1475,-2.1494,-2.1353,-2.1172,-2.0944,-2.1414,-2.2079,-2.2908,-2.3207,-2.3995,-2.5212,-2.5134,-2.4955,-2.4644,-2.4607,-2.4407,-2.4155,-2.419,-2.3896,-2.3414,-2.3566,-2.3643,-2.3667,-2.3883,-2.4233,-2.46,-2.4813,-2.4812,-2.4816,-2.5355,-2.5338,-2.5144,-2.5454,-2.546,-2.5329,-2.5291,-2.554,-2.5799,-2.5652,-2.5237,-2.4863,-2.4679,-2.4451,-2.4302,-2.4302,-2.4094,-2.3952,-2.4261,-2.4135,-2.4078,-2.4261,-2.4302,-2.4302,-2.4302,-2.3909,-2.3638,-2.3696,-2.3653,-2.3638,-2.3696,-2.4094,-2.4302,-2.4302,-2.4302,-2.4302,-2.4302,-2.4302,-2.4302,-2.4302,-2.4302,-2.4302,-2.4302,-2.4302,-2.4302,-2.4302,-2.4302,-2.4302,-2.4302,-2.4302,-2.4302,-2.6688,-2.5134,0.0,-2.4366,-2.313,0.0,-2.1693,-2.0784,-1.9893,0.0,0.0,0.0,0.0,0.0,0.0,0.0,0.0,0.0,0.0,0.0,0.0,0.0,0.0,0.0,0.0,-1.5278,-1.5759,-1.7435,-1.8054,-1.9103,-2.0803,-2.1187,-2.1518,-2.1958,-2.1334,-2.1185,-2.1643,-2.1619,-2.2045,-2.2906,-2.3727,-2.4493,-2.5214,-2.5075,-2.4752,-2.4296,-2.4405,-2.4192,-2.3816,-2.4094,-2.3896,-2.3392,-2.3392,-2.3122,-2.2738,-2.297,-2.2902,-2.2824,-2.372,-2.3936,-2.3926,-2.4631,-2.4822,-2.4788,-2.4606,-2.4778,-2.5013,-2.4918,-2.5137,-2.5275,-2.4981,-2.4863,-2.4759,-2.4385,-2.4302,-2.4302,-2.4302,-2.4219,-2.4177,-2.4219,-2.3909,-2.3724,-2.4135,-2.4219,-2.4219,-2.4302,-2.3867,-2.3421,-2.3113,-2.3334,-2.3377,-2.3113,-2.3824,-2.4302,-2.4302,-2.4302,-2.4302,-2.4302,-2.4302,-2.4302,-2.4302,-2.4302,-2.4302,-2.4302,-2.4302,-2.4302,-2.4302,-2.4302,-2.4302,-2.4302,-2.4302,-2.4302,-2.7865,-2.7333,-2.6786,-2.5146,0.0,0.0,-2.1989,-2.1095,-2.0652,0.0,0.0,0.0,0.0,0.0,0.0,0.0,0.0,0.0,0.0,0.0,0.0,0.0,0.0,0.0,0.0,-1.5823,-1.6109,-1.6522,-1.7502,-1.8731,-2.0194,-2.0631,-2.134,-2.2429,-2.1349,-2.0923,-2.1297,-2.1557,-2.2085,-2.291,-2.3778,-2.459,-2.5367,-2.5214,-2.4853,-2.431,-2.4538,-2.4319,-2.3816,-2.4094,-2.3896,-2.3392,-2.3392,-2.3122,-2.2712,-2.2764,-2.2738,-2.2729,-2.292,-2.3342,-2.388,-2.4343,-2.4645,-2.4816,-2.5019,-2.4863,-2.4645,-2.4839,-2.4719,-2.4599,-2.4839,-2.4639,-2.4385,-2.4302,-2.4302,-2.4302,-2.4302,-2.3696,-2.329,-2.3638,-2.3638,-2.3638,-2.3724,-2.3739,-2.3867,-2.4261,-2.3595,-2.329,-2.3952,-2.3465,-2.329,-2.3952,-2.4177,-2.4302,-2.4302,-2.4302,-2.4302,-2.4302,-2.4302,-2.4302,-2.4302,-2.4302,-2.4302,-2.4302,-2.4302,-2.4302,-2.4302,-2.4302,-2.4302,-2.4302,-2.4302,-2.4302,-2.921,-2.8644,-2.7865,-2.7089,0.0,0.0,0.0,-2.2571,-2.1899,-2.1917,-2.0674,0.0,0.0,0.0,0.0,0.0,0.0,0.0,0.0,0.0,0.0,0.0,0.0,0.0,0.0,-1.5499,-1.5521,-1.5629,-1.6829,-1.7866,-1.8573,-1.9342,-2.0218,-2.1233,-2.0697,-2.0797,-2.1644,-2.1575,-2.2003,-2.2908,-2.3772,-2.4392,-2.4767,-2.5052,-2.46,-2.3594,-2.4385,-2.4061,-2.3112,-2.3871,-2.3896,-2.3392,-2.3392,-2.3014,-2.2446,-2.2446,-2.2446,-2.2446,-2.2446,-2.317,-2.4147,-2.4309,-2.4696,-2.5123,-2.5118,-2.4775,-2.4441,-2.4574,-2.4467,-2.4343,-2.4533,-2.4451,-2.4302,-2.4302,-2.4302,-2.4302,-2.4302,-2.3952,-2.3508,-2.329,-2.3246,-2.3334,-2.3551,-2.3595,-2.3681,-2.3909,-2.3334,-2.3068,-2.3551,-2.3201,-2.3157,-2.3867,-2.4177,-2.4302,-2.4302,-2.4302,-2.4302,-2.4302,-2.4302,-2.4302,-2.4302,-2.4302,-2.4302,-2.4302,-2.4302,-2.4302,-2.4302,-2.4302,-2.4302,-2.4302,-2.4302,-2.4133,0.0,0.0,0.0,0.0,0.0,-2.5905,0.0,0.0,0.0,-2.3241,0.0,0.0,0.0,0.0,0.0,0.0,0.0,0.0,0.0,0.0,0.0,0.0,0.0,0.0,0.0,-1.4744,-1.4681,-1.5057,-1.6103,-1.6916,-1.7312,-1.8436,-1.9432,-2.0288,-2.0466,-2.1103,-2.225,-2.1841,-2.2061,-2.2908,-2.3634,-2.3948,-2.3914,-2.4466,-2.4024,-2.2862,-2.3761,-2.3418,-2.2303,-2.3242,-2.3343,-2.2936,-2.3285,-2.2923,-2.222,-2.2265,-2.2265,-2.222,-2.2265,-2.3134,-2.4194,-2.419,-2.4652,-2.5192,-2.4934,-2.4533,-2.4135,-2.4051,-2.4036,-2.4036,-2.4135,-2.4177,-2.4177,-2.4261,-2.4302,-2.4261,-2.4177,-2.4094,-2.3767,-2.2934,-2.2663,-2.2785,-2.3377,-2.3465,-2.3508,-2.361,-2.3201,-2.2934,-2.3024,-2.2934,-2.3113,-2.3681,-2.4078,-2.4302,-2.4302,-2.4302,-2.4302,-2.4302,-2.4302,-2.4302,-2.4302,-2.4302,-2.4302,-2.4302,-2.4302,-2.4302,-2.4302,-2.4302,-2.4302,-2.4302,-2.4302,-2.3948,0.0,0.0,0.0,0.0,-2.7215,0.0,0.0,0.0,-2.5196,-2.4265,0.0,0.0,0.0,0.0,0.0,0.0,0.0,0.0,0.0,0.0,0.0,0.0,0.0,0.0,0.0,0.0,-1.4082,-1.5569,-1.5637,-1.6353,-1.8152,-1.9324,-2.0559,-2.1803,-2.2051,-2.2373,-2.2898,-2.2614,-2.2619,-2.2902,-2.3062,-2.3129,-2.3118,-2.3039,-2.2918,-2.2772,-2.2402,-2.2118,-2.1925,-2.1667,-2.1358,-2.1247,-2.2789,-2.2923,-2.2237,-2.2517,-2.2463,-2.2248,-2.2544,-2.3027,-2.3549,-2.3719,-2.4152,-2.4523,-2.4078,-2.3824,-2.3595,-2.3201,-2.3068,-2.3157,-2.3551,-2.3681,-2.3767,-2.4219,-2.4302,-2.4177,-2.3782,-2.3334,-2.2889,-2.2402,-2.1888,-2.1874,-2.2844,-2.2979,-2.3113,-2.3551,-2.3201,-2.3068,-2.3465,-2.3157,-2.3246,-2.4135,-2.4261,-2.4302,-2.4302,-2.4302,-2.4302,-2.4302,-2.4302,-2.4302,-2.4302,-2.4302,-2.4302,-2.4302,-2.4302,-2.4302,-2.4302,-2.4302,-2.4302,-2.4302,-2.4302,-2.3948,0.0,0.0,0.0,0.0,0.0,0.0,-2.587,0.0,-2.533,0.0,0.0,0.0,0.0,0.0,0.0,0.0,0.0,0.0,0.0,0.0,0.0,0.0,0.0,0.0,0.0,0.0,0.0,0.0,0.0,-1.6764,-1.7922,-1.9382,-2.06,-2.1595,-2.1719,-2.2162,-2.2984,-2.2608,-2.233,-2.2157,-2.269,-2.271,-2.2269,-2.2557,-2.2254,-2.1472,-2.177,-2.1406,-2.0657,-2.0856,-2.1066,-2.1266,-2.2054,-2.2046,-2.1617,-2.2035,-2.2101,-2.1998,-2.213,-2.2559,-2.315,-2.3726,-2.4128,-2.4317,-2.3824,-2.3653,-2.3508,-2.3024,-2.2889,-2.3024,-2.3465,-2.3595,-2.3724,-2.4177,-2.4094,-2.3824,-2.3638,-2.3246,-2.2754,-2.2278,-2.2044,-2.2077,-2.2799,-2.2889,-2.2979,-2.3157,-2.3024,-2.2979,-2.3157,-2.3024,-2.3246,-2.4219,-2.4302,-2.4302,-2.4302,-2.4302,-2.4302,-2.4302,-2.4302,-2.4302,-2.4302,-2.4302,-2.4302,-2.4302,-2.4302,-2.4302,-2.4302,-2.4302,-2.4302,-2.4302,-2.4302,-2.3733,-2.692,0.0,0.0,0.0,0.0,0.0,0.0,0.0,0.0,0.0,0.0,0.0,0.0,0.0,0.0,0.0,0.0,0.0,0.0,0.0,0.0,0.0,0.0,0.0,0.0,0.0,0.0,0.0,0.0,0.0,-1.8382,-1.9579,-2.0609,-2.1453,-2.1576,-2.2038,-2.2916,-2.2533,-2.207,-2.1608,-2.2031,-2.1939,-2.1357,-2.1822,-2.1472,-2.0507,-2.0945,-2.0551,-1.9619,-1.996,-2.0343,-2.0786,-2.1125,-2.1131,-2.1032,-2.1673,-2.1811,-2.1678,-2.1768,-2.2092,-2.2638,-2.3374,-2.3748,-2.3891,-2.3535,-2.3421,-2.329,-2.2663,-2.248,-2.2618,-2.3113,-2.3201,-2.3377,-2.3952,-2.3867,-2.3551,-2.3421,-2.3157,-2.2709,-2.2077,-2.1996,-2.2123,-2.2618,-2.2799,-2.2889,-2.2889,-2.2889,-2.2844,-2.2709,-2.2799,-2.3201,-2.4036,-2.4219,-2.4302,-2.4302,-2.4302,-2.4302,-2.4302,-2.4302,-2.4302,-2.4302,-2.4302,-2.4302,-2.4302,-2.4302,-2.4302,-2.4302,-2.4302,-2.4302,-2.4302,-2.4302,-2.3686,0.0,0.0,0.0,-2.493,0.0,0.0,0.0,0.0,-2.5386,0.0,0.0,0.0,0.0,0.0,0.0,0.0,0.0,0.0,0.0,0.0,0.0,0.0,0.0,0.0,0.0,0.0,0.0,0.0,0.0,0.0,-2.014,-2.0253,-2.0764,-2.1834,-2.2271,-2.2541,-2.2722,-2.2508,-2.2125,-2.1589,-2.0898,-2.0522,-2.0434,-2.0399,-2.0392,-2.036,-1.9543,-1.9237,-1.9263,-1.8556,-1.8523,-1.8988,-2.0041,-2.0492,-2.0737,-2.181,-2.1807,-2.1371,-2.1708,-2.1762,-2.1815,-2.222,-2.2661,-2.3035,-2.3024,-2.295,-2.2709,-2.1746,-2.1471,-2.1568,-2.2137,-2.2217,-2.2495,-2.3377,-2.3595,-2.3465,-2.3024,-2.2889,-2.2618,-2.1602,-2.1423,-2.1616,-2.2137,-2.2572,-2.2889,-2.2889,-2.2889,-2.2768,-2.2278,-2.2632,-2.3068,-2.3551,-2.4036,-2.4302,-2.4302,-2.4302,-2.4302,-2.4302,-2.4302,-2.4302,-2.4302,-2.4302,-2.4302,-2.4302,-2.4302,-2.4302,-2.4302,-2.4302,-2.4302,-2.4302,-2.4302,-2.3933,0.0,0.0,-2.3265,-2.3803,0.0,0.0,0.0,0.0,0.0,0.0,0.0,0.0,0.0,0.0,0.0,0.0,0.0,0.0,0.0,0.0,0.0,0.0,0.0,0.0,0.0,0.0,0.0,0.0,0.0,0.0,0.0,-2.1461,-2.1806,-2.2815,-2.261,-2.2329,-2.1971,-2.2168,-2.1713,-2.0614,-2.0495,-2.0416,-2.0395,-2.0328,-2.004,-1.9597,-1.925,-1.8896,-1.8512,-1.7912,-1.8308,-1.9325,-1.9756,-2.0268,-2.0828,-2.1635,-2.1661,-2.1277,-2.123,-2.1438,-2.178,-2.218,-2.2678,-2.3127,-2.3185,-2.3098,-2.2815,-2.2123,-2.1664,-2.152,-2.2044,-2.2184,-2.2356,-2.2979,-2.2889,-2.2632,-2.2495,-2.217,-2.1793,-2.1471,-2.1423,-2.1568,-2.2137,-2.2586,-2.2799,-2.2495,-2.2709,-2.2844,-2.2663,-2.2799,-2.3201,-2.3994,-2.4219,-2.4302,-2.4302,-2.4302,-2.4302,-2.4302,-2.4302,-2.4302,-2.4302,-2.4302,-2.4302,-2.4302,-2.4302,-2.4302,-2.4302,-2.4302,-2.4302,-2.4302,-2.4302,-2.3948,-2.2125,-2.2121,0.0,-2.2768,-2.2974,0.0,-2.3989,0.0,0.0,0.0,0.0,0.0,0.0,0.0,0.0,0.0,0.0,0.0,0.0,-2.4119,0.0,0.0,0.0,0.0,0.0,0.0,-2.2586,-2.2957,0.0,0.0,0.0,0.0,-2.2681,-2.3489,-2.2846,-2.2318,-2.1899,-2.2131,-2.1655,-2.0529,-2.0465,-2.042,-2.0395,-2.0328,-1.9907,-1.9195,-1.9121,-1.877,-1.8168,-1.7726,-1.8336,-1.9514,-1.9744,-2.0234,-2.0893,-2.154,-2.1509,-2.1055,-2.0712,-2.0793,-2.1155,-2.1491,-2.2063,-2.2682,-2.2859,-2.2922,-2.2875,-2.2356,-2.1793,-2.1471,-2.1841,-2.1949,-2.203,-2.2526,-2.2402,-2.2184,-2.2184,-2.1949,-2.1616,-2.1423,-2.1423,-2.152,-2.1841,-2.231,-2.254,-2.2231,-2.2572,-2.2844,-2.2663,-2.2799,-2.3201,-2.3952,-2.4219,-2.4302,-2.4302,-2.4302,-2.4302,-2.4302,-2.4302,-2.4302,-2.4302,-2.4302,-2.4302,-2.4302,-2.4302,-2.4302,-2.4302,-2.4302,-2.4302,-2.4302,-2.4302,-2.4071]},{"header":{"parameterUnit":"m.s-1","parameterCategory":1,"la1":30.6,"la2":29.2853,"lo1":-89.7004,"lo2":-87.6739,"dy":0.0162,"dx":0.0183,"nx":112,"ny":82,"refTime":"2024-06-26T06:00:00:Z","depth":0,"parameterNumber":3,"parameterNumberName":"V-component_of_WINDS"},"data":[0.0,0.0,0.0,0.0,0.0,0.0,0.0,0.0,0.0,0.0,0.0,0.0,0.0,0.0,0.0,0.0,0.0,0.0,0.0,0.0,0.0,0.0,0.0,0.0,0.0,0.0,0.0,0.0,0.0,0.0,0.0,0.0,0.0,0.0,0.0,0.0,0.0,0.0,0.0,0.0,0.0,0.0,0.0,0.0,0.0,0.0,0.0,0.0,0.0,0.0,0.0,0.0,0.0,0.0,0.0,0.0,0.0,0.0,0.0,0.0,0.0,0.0,0.0,0.0,0.0,0.0,0.0,0.0,0.0,0.0,0.0,0.0,0.0,0.0,0.0,0.0,0.0,0.0,0.0,0.0,0.0,0.0,0.0,0.0,0.0,0.0,0.0,0.0,0.0,0.0,-0.0945,-0.0868,-0.2345,-0.3944,-0.5391,-0.6715,-0.7891,-0.8826,0.0,0.0,0.0,0.0,0.0,0.0,0.0,0.0,0.0,0.0,0.0,0.0,0.0,0.0,0.0,0.0,0.0,0.0,0.0,0.0,0.0,0.0,0.0,0.0,0.0,0.0,0.0,0.0,0.0,0.0,0.0,0.0,0.0,0.0,0.0,0.0,0.0,0.0,0.0,0.0,0.0,0.0,0.0,0.0,0.0,0.0,0.0,0.0,0.0,0.0,0.0,0.0,0.0,0.0,0.0,0.0,0.0,0.0,0.0,0.0,0.0,0.0,0.0,0.0,0.0,0.0,0.0,0.0,0.0,0.0,0.0,0.0,0.0,0.0,0.0,0.0,0.0,0.0,0.0,0.0,0.0,0.0,0.0,0.0,0.0,0.0,0.0,0.0,0.0,0.0,0.0,0.0,0.0,0.0,0.0,0.0,0.0,0.0,0.0,0.0,0.0,0.0,0.0,0.0,-0.1889,-0.3135,-0.382,-0.4746,-0.6322,-0.7181,-0.8258,-0.969,0.0,0.0,0.0,0.0,0.0,0.0,0.0,0.0,0.0,0.0,0.0,0.0,0.0,0.0,0.0,0.0,0.0,0.0,0.0,0.0,0.0,0.0,0.0,0.0,0.0,0.0,0.0,0.0,0.0,0.0,0.0,0.0,0.0,0.0,0.0,0.0,0.0,0.0,0.0,0.0,0.0,0.0,0.0,0.0,0.0,0.0,0.0,0.0,0.0,0.0,0.0,0.0,0.0,0.0,0.0,0.0,0.0,0.0,0.0,0.0,0.0,0.0,0.0,0.0,0.0,0.0,0.0,0.0,0.0,0.0,0.0,0.0,0.0,0.0,0.0,0.0,0.0,0.0,0.0,0.0,0.0,0.0,0.0,0.0,0.0,0.0,0.0,0.0,0.0,0.0,0.0,0.0,0.0,0.0,0.0,0.0,0.0,0.0,0.0,0.0,0.0,0.0,0.0,-0.2082,-0.2628,-0.3803,-0.4287,-0.5338,-0.7242,-0.7702,-0.8635,-1.0451,-1.095,0.0,0.0,0.0,0.0,0.0,0.0,0.0,0.0,0.0,0.0,0.0,0.0,0.0,0.0,0.0,0.0,0.0,0.0,0.0,0.0,0.0,0.0,0.0,0.0,0.0,0.0,0.0,0.0,0.0,0.0,0.0,0.0,0.0,0.0,0.0,0.0,0.0,0.0,0.0,0.0,0.0,0.0,0.0,0.0,0.0,0.0,0.0,0.0,0.0,0.0,0.0,0.0,0.0,0.0,0.0,0.0,0.0,0.0,0.0,0.0,0.0,0.0,0.0,0.0,0.0,0.0,0.0,0.0,0.0,0.0,0.0,0.0,0.0,0.0,0.0,0.0,0.0,0.0,0.0,0.0,0.0,0.0,0.0,0.0,0.0,0.0,0.0,0.0,0.0,0.0,0.0,0.0,0.0,0.0,0.0,0.0,0.0,0.0,0.0,0.0,0.0,0.0,-0.3095,-0.3535,-0.4276,-0.4752,-0.587,-0.7897,-0.7976,-0.8883,-1.0994,-1.1445,0.0,0.0,0.0,0.0,0.0,0.0,0.0,0.0,0.0,0.0,0.0,0.0,0.0,0.0,0.0,0.0,0.0,0.0,0.0,0.0,0.0,0.0,0.0,0.0,0.0,0.0,0.0,0.0,0.0,0.0,0.0,0.0,0.0,0.0,0.0,0.0,0.0,0.0,0.0,0.0,0.0,0.0,0.0,0.0,0.0,0.0,0.0,0.0,0.0,0.0,0.0,0.0,0.0,0.0,0.0,0.0,0.0,0.0,0.0,0.0,0.0,0.0,0.0,0.0,0.0,0.0,0.0,0.0,0.0,0.0,0.0,0.0,0.0,0.0,0.0,0.0,0.0,0.0,0.0,0.0,0.0,0.0,0.0,0.0,0.0,0.0,0.0,0.0,0.0,0.0,0.0,0.0,0.0,0.0,0.0,0.0,0.0,0.0,0.0,0.0,0.0,0.0,-0.414,-0.4683,-0.5226,-0.5624,-0.6474,-0.8037,-0.7964,-0.8817,-1.1115,-1.1455,0.0,0.0,0.0,0.0,0.0,0.0,0.0,0.0,0.0,0.0,0.0,0.0,0.0,0.0,0.0,0.0,0.0,0.0,0.0,0.0,0.0,0.0,0.0,0.0,0.0,0.0,0.0,0.0,0.0,0.0,0.0,0.0,0.0,0.0,0.0,0.0,0.0,0.0,0.0,0.0,0.0,0.0,0.0,0.0,0.0,0.0,0.0,0.0,0.0,0.0,0.0,0.0,0.0,0.0,0.0,0.0,0.0,0.0,0.0,0.0,0.0,0.0,0.0,0.0,0.0,0.0,0.0,0.0,0.0,0.0,0.0,0.0,0.0,0.0,0.0,0.0,0.0,0.0,0.0,0.0,0.0,0.0,0.0,0.0,0.0,0.0,0.0,0.0,0.0,0.0,0.0,0.0,0.0,0.0,0.0,0.0,0.0,0.0,0.0,0.0,0.0,0.0,-0.4333,-0.4863,0.0,-0.6346,-0.7326,-0.8296,-0.8816,-0.9754,-1.1228,0.0,0.0,0.0,0.0,0.0,0.0,0.0,0.0,0.0,0.0,0.0,0.0,0.0,0.0,0.0,0.0,0.0,0.0,0.0,0.0,0.0,0.0,0.0,0.0,0.0,0.0,0.0,0.0,0.0,0.0,0.0,0.0,0.0,0.0,0.0,0.0,0.0,0.0,0.0,0.0,0.0,0.0,0.0,0.0,0.0,0.0,0.0,0.0,0.0,0.0,0.0,0.0,0.0,0.0,0.0,0.0,0.0,0.0,0.0,0.0,0.0,0.0,0.0,0.0,0.0,0.0,0.0,0.0,0.0,0.0,0.0,0.0,0.0,0.0,0.0,0.0,0.0,0.0,0.0,0.0,0.0,0.0,0.0,0.0,0.0,0.0,0.0,0.0,0.0,0.0,0.0,0.0,0.0,0.0,0.0,0.0,0.0,0.0,0.0,0.0,0.0,0.0,-0.4172,-0.4703,-0.5305,0.0,-0.6999,-0.7842,-0.8748,-0.942,-1.02,-1.122,0.0,0.0,0.0,0.0,0.0,0.0,0.0,0.0,0.0,0.0,0.0,0.0,0.0,0.0,0.0,0.0,0.0,0.0,0.0,0.0,0.0,0.0,0.0,0.0,0.0,0.0,0.0,0.0,0.0,0.0,0.0,0.0,0.0,0.0,0.0,0.0,0.0,0.0,0.0,0.0,0.0,0.0,0.0,0.0,0.0,0.0,0.0,0.0,0.0,0.0,0.0,0.0,0.0,0.0,0.0,0.0,0.0,0.0,0.0,0.0,0.0,0.0,0.0,0.0,0.0,0.0,0.0,0.0,0.0,0.0,0.0,0.0,0.0,0.0,0.0,0.0,0.0,0.0,0.0,0.0,0.0,0.0,0.0,0.0,0.0,0.0,0.0,0.0,0.0,0.0,0.0,0.0,0.0,0.0,0.0,0.0,0.0,0.0,0.0,0.0,0.0,0.0,-0.5175,-0.5421,-0.6071,-0.7391,-0.7521,-0.8037,-0.939,-0.95,-1.0043,0.0,0.0,0.0,0.0,0.0,0.0,0.0,0.0,0.0,0.0,0.0,0.0,0.0,0.0,0.0,0.0,0.0,0.0,0.0,0.0,0.0,0.0,0.0,0.0,0.0,0.0,0.0,0.0,0.0,0.0,0.0,0.0,0.0,0.0,0.0,0.0,0.0,0.0,0.0,0.0,0.0,0.0,0.0,0.0,0.0,0.0,0.0,0.0,0.0,0.0,0.0,0.0,0.0,0.0,0.0,0.0,0.0,0.0,0.0,0.0,0.0,0.0,0.0,0.0,0.0,0.0,0.0,0.0,0.0,0.0,0.0,0.0,0.0,0.0,0.0,0.0,0.0,0.0,0.0,0.0,0.0,0.0,0.0,0.0,0.0,0.0,0.0,0.0,0.0,0.0,0.0,0.0,0.0,0.0,0.0,0.0,0.0,0.0,0.0,0.0,0.0,0.0,0.0,-0.5157,-0.5763,-0.6519,-0.7377,-0.8361,-0.9069,-0.9454,-1.0285,-1.1012,-1.1662,0.0,0.0,0.0,0.0,0.0,0.0,0.0,0.0,0.0,0.0,0.0,0.0,0.0,0.0,0.0,0.0,0.0,0.0,0.0,0.0,0.0,0.0,0.0,0.0,0.0,0.0,0.0,0.0,0.0,0.0,0.0,0.0,0.0,0.0,0.0,0.0,0.0,0.0,0.0,0.0,0.0,0.0,0.0,0.0,0.0,0.0,0.0,0.0,0.0,0.0,0.0,0.0,0.0,0.0,0.0,0.0,0.0,0.0,0.0,0.0,0.0,0.0,0.0,0.0,0.0,0.0,0.0,0.0,0.0,0.0,0.0,0.0,0.0,0.0,0.0,0.0,0.0,0.0,0.0,0.0,0.0,0.0,0.0,0.0,0.0,0.0,0.0,0.0,0.0,0.0,0.0,0.0,0.0,0.0,0.0,0.0,0.0,0.0,0.0,0.0,0.0,0.0,-0.6005,-0.6454,-0.7125,-0.8195,-0.8914,-0.9549,-1.0043,-1.0806,-1.1462,-1.1809,0.0,0.0,0.0,0.0,0.0,0.0,0.0,0.0,0.0,0.0,0.0,0.0,0.0,0.0,0.0,0.0,0.0,0.0,0.0,0.0,0.0,0.0,0.0,0.0,0.0,0.0,0.0,0.0,0.0,0.0,0.0,0.0,0.0,0.0,0.0,0.0,0.0,0.0,0.0,0.0,0.0,0.0,0.0,0.0,0.0,0.0,0.0,0.0,0.0,0.0,0.0,0.0,0.0,0.0,0.0,0.0,0.0,0.0,0.0,0.0,0.0,0.0,0.0,0.0,0.0,0.0,0.0,0.0,0.0,0.0,0.0,0.0,0.0,0.0,0.0,0.0,0.0,0.0,0.0,0.0,0.0,0.0,0.0,0.0,0.0,0.0,0.0,0.0,0.0,0.0,0.0,0.0,0.0,0.0,0.0,0.0,0.0,0.0,0.0,0.0,0.0,0.0,-0.7374,-0.7339,-0.7859,-0.9328,-0.9352,-0.9685,-1.0826,-1.118,-1.1486,-1.1733,0.0,0.0,0.0,0.0,0.0,0.0,0.0,0.0,0.0,0.0,0.0,0.0,0.0,0.0,0.0,0.0,0.0,0.0,0.0,0.0,0.0,0.0,0.0,0.0,0.0,0.0,0.0,0.0,0.0,0.0,0.0,0.0,0.0,0.0,0.0,0.0,0.0,0.0,0.0,0.0,0.0,0.0,0.0,0.0,0.0,0.0,0.0,0.0,0.0,0.0,0.0,0.0,0.0,0.0,0.0,0.0,0.0,0.0,0.0,0.0,-0.0256,0.0,0.0,0.0,0.0,0.0,0.0,0.0,0.0,0.0,0.0,0.0,0.0,0.0,0.0,0.0,0.0,0.0,0.0,0.0,0.0,0.0,0.0,0.0,0.0,0.0,0.0,0.0,0.0,0.0,0.0,0.0,0.0,0.0,0.0,0.0,0.0,0.0,0.0,0.0,0.0,0.0,-0.7172,-0.7841,-0.8528,-0.9151,-1.0007,-1.0603,-1.0897,-1.143,-1.1922,-1.2298,-1.2986,0.0,0.0,0.0,0.0,0.0,0.0,0.0,0.0,0.0,0.0,0.0,0.0,0.0,0.0,0.0,0.0,0.0,0.0,0.0,0.0,0.0,0.0,0.0,0.0,0.0,0.0,0.0,0.0,0.0,0.0,0.0,0.0,0.0,0.0,0.0,0.0,0.0,0.0,0.0,0.0,0.0,0.0,0.0,0.0,0.0,0.0,0.0,0.0,0.0,0.0,0.0,0.0,0.0,0.0,0.0,0.0,0.0,0.0,0.0,0.0,-0.0889,0.0,0.0,0.0,0.0,0.0,0.0,0.0,0.0,0.0,0.0,0.0,0.0,0.0,0.0,0.0,0.0,0.0,0.0,0.0,0.0,0.0,0.0,0.0,0.0,0.0,0.0,0.0,0.0,0.0,0.0,0.0,0.0,0.0,0.0,0.0,0.0,0.0,0.0,0.0,0.0,-0.8105,-0.8428,-0.8993,-0.9879,-1.0419,-1.0942,-1.1445,-1.182,-1.2149,-1.2473,-1.319,0.0,0.0,0.0,0.0,0.0,0.0,0.0,0.0,0.0,0.0,0.0,0.0,0.0,0.0,0.0,0.0,0.0,0.0,0.0,0.0,0.0,0.0,0.0,0.0,0.0,0.0,0.0,0.0,0.0,0.0,0.0,0.0,0.0,0.0,0.0,0.0,0.0,0.0,0.0,0.0,0.0,0.0,0.0,0.0,0.0,0.0,0.0,0.0,0.0,0.0,0.0,0.0,0.0,0.0266,-0.0133,-0.0976,-0.0976,-0.1027,-0.1005,-0.1159,-0.0957,-0.0739,0.0,0.0,0.0,0.0,0.0,0.0,0.0,0.0,0.0,0.0,0.0,0.0,0.0,0.0,0.0,0.0,0.0,0.0,0.0,0.0,0.0,0.0,0.0,0.0,0.0,-0.5767,-0.5475,0.0,0.0,0.0,0.0,0.0,0.0,0.0,0.0,0.0,0.0,0.0,0.0,-0.911,-0.9092,-0.9493,-1.0672,-1.0763,-1.1133,-1.2035,-1.2139,-1.2322,-1.2499,-1.342,-1.402,0.0,0.0,0.0,0.0,0.0,0.0,0.0,0.0,0.0,0.0,0.0,0.0,0.0,0.0,0.0,0.0,0.0,0.0,0.0,0.0,0.0,0.0,0.0,0.0,0.0,0.0,0.0,0.0,0.0,0.0,0.0,0.0,0.9874,0.9241,0.0,0.0,0.0,0.0,0.0,0.0,0.0,0.0,0.0,0.0,0.0,0.0,0.0,0.0798,0.0133,0.0601,0.0401,-0.0402,0.0067,-0.0067,-0.0805,-0.1004,-0.1068,-0.113,-0.1734,0.0,-0.1914,-0.2961,0.0,0.0,0.0,0.0,0.0,0.0,0.0,0.0,0.0,0.0,0.0,0.0,0.0,0.0,0.0,0.0,0.0,0.0,0.0,0.0,0.0,0.0,-0.5479,-0.5681,-0.5609,-0.5597,0.0,-0.648,-0.6712,-0.6977,0.0,0.0,0.0,0.0,0.0,0.0,0.0,0.0,-0.9044,-0.9584,-1.0154,-1.0418,-1.1311,-1.195,-1.21,-1.2407,-1.2635,-1.2686,-1.2822,-1.3273,-1.4169,-1.3598,0.0,0.0,0.0,0.0,0.0,0.0,0.0,0.0,0.0,0.0,0.0,0.0,0.0,0.0,0.0,0.0,0.0,0.0,0.0,0.0,0.0,0.0,0.0,0.0,0.0,0.0,0.0,0.0,0.0,0.9681,0.9306,0.8829,0.7767,0.6846,0.0,0.0,0.0,0.0,0.0,0.0,0.0,0.0,0.0,0.135,0.0971,0.0563,0.007,0.0281,0.0,-0.0689,-0.055,-0.0887,-0.1546,-0.1612,-0.1879,-0.2281,-0.2614,-0.2975,-0.3359,-0.3793,-0.4243,-0.4763,0.0,0.0,0.0,0.0,-0.5973,-0.5912,-0.615,-0.6207,0.0,0.0,0.0,0.0,0.0,0.0,0.0,0.0,0.0,0.0,0.0,0.0,0.0,-0.7203,-0.7185,-0.7234,-0.7618,-0.7766,-0.7746,0.0,-0.8021,-0.8634,-0.8839,0.0,0.0,0.0,0.0,-0.9719,-0.9646,-1.0045,-1.0438,-1.0804,-1.1619,-1.2224,-1.2529,-1.2725,-1.2832,-1.2832,-1.3055,-1.3425,-1.3851,-1.4059,-1.4278,0.0,0.0,0.0,0.0,0.0,0.0,0.0,0.0,0.0,0.0,0.0,0.0,0.0,0.0,0.0,0.0,0.0,0.0,0.0,0.0,0.0,0.0,0.0,0.0,0.0,0.0,0.0,0.0,0.9423,0.8971,0.8726,0.7587,0.662,0.0,0.0,0.0,0.0,0.0,0.0,0.2437,0.1661,0.1124,0.0778,0.0721,0.0437,0.0073,-0.0073,-0.0432,-0.0991,-0.1264,-0.1662,-0.2101,-0.2287,-0.2681,-0.3215,-0.3416,-0.3818,-0.4348,-0.4384,-0.4662,-0.514,-0.5754,-0.6093,-0.6277,-0.6277,-0.6132,-0.6042,-0.6168,-0.6277,-0.6301,-0.6441,0.0,-0.7481,-0.7264,0.0,0.0,0.0,0.0,-0.7946,-0.8245,-0.8256,-0.8272,-0.8645,-0.8592,-0.85,-0.8812,-0.8765,-0.8522,0.0,-0.8493,-0.8983,-0.8963,0.0,0.0,0.0,0.0,-1.0247,-1.0322,-1.0504,-1.0804,-1.136,-1.1968,-1.2518,-1.3027,-1.2939,-1.293,-1.3037,-1.326,-1.343,-1.343,-1.4241,-1.4471,-1.4033,0.0,0.0,0.0,0.0,0.0,0.0,0.0,0.0,0.0,0.0,0.0,0.0,0.0,0.0,0.0,0.0,0.0,0.0,0.0,0.0,0.0,0.0,0.0,0.0,0.0,0.0,0.0,0.0,0.0,0.9259,0.7536,0.0,0.0,0.0,0.0,0.4281,0.3616,0.3181,0.3132,0.2233,0.1486,0.08,0.0436,-0.0145,-0.0802,-0.1021,-0.1166,-0.1164,-0.1841,-0.2166,-0.223,-0.2849,-0.3149,-0.3215,-0.3951,-0.4356,-0.4625,-0.4743,-0.5213,-0.5888,-0.621,-0.6404,-0.6404,-0.6404,-0.64,-0.6392,-0.64,-0.6404,-0.6474,-0.6745,-0.7205,-0.7611,-0.7601,-0.7685,0.0,0.0,-0.8191,-0.8251,-0.8431,-0.8323,-0.8392,-0.9082,-0.8708,-0.8538,-0.9648,-0.9582,-0.9081,0.0,-0.8877,-0.9436,-0.9857,0.0,-1.085,-1.1039,-1.077,-1.061,-1.0825,-1.1061,-1.141,-1.1977,-1.2529,-1.3047,-1.3447,-1.3105,-1.3047,-1.3447,-1.3145,-1.2929,-1.2929,-1.3331,-1.3557,-1.3557,-1.3936,0.0,0.0,0.0,0.0,0.0,0.0,0.0,0.0,0.0,0.0,0.0,0.0,0.0,0.0,0.0,0.0,0.0,0.0,0.0,0.0,0.0,0.0,0.0,0.0,0.0,0.0,0.0,0.0,0.8113,0.725,0.0,0.5668,0.4782,0.4254,0.4298,0.3614,0.2973,0.2515,0.1659,0.0739,-0.0075,-0.0379,-0.0688,-0.1148,-0.1759,-0.1745,-0.1196,-0.1996,-0.2625,-0.3011,-0.3266,-0.3954,-0.4862,-0.5124,-0.5294,-0.5355,-0.5589,-0.5881,-0.6083,-0.635,-0.642,-0.642,-0.642,-0.642,-0.642,-0.642,-0.642,-0.6482,-0.7068,-0.7728,-0.8366,-0.8626,-0.8937,-0.9252,-0.9349,-0.9373,-0.9397,-0.943,-0.9382,-0.9397,-0.9685,-0.9566,-0.946,-0.9933,-0.9894,-0.9709,-0.9518,-0.9907,-1.0295,-1.0478,-1.0989,-1.1337,-1.1406,-1.1465,-1.1406,-1.1281,-1.1993,-1.2518,-1.2479,-1.3208,-1.375,-1.3844,-1.3525,-1.335,-1.3496,-1.3115,-1.2881,-1.2881,-1.3027,-1.3105,-1.3105,-1.3516,-1.373,0.0,0.0,0.0,0.0,0.0,0.0,0.0,0.0,0.0,0.0,0.0,0.0,0.0,0.0,0.0,0.0,0.0,0.0,0.0,0.0,0.0,0.0,0.0,0.0,0.0,0.0,0.8915,0.7613,0.7039,0.6334,0.5219,0.4628,0.418,0.3946,0.3251,0.2464,0.1721,0.0816,0.0,-0.069,-0.0935,-0.11,-0.1335,-0.1806,-0.1946,-0.1686,-0.2429,-0.322,-0.3971,-0.4155,-0.4862,-0.5871,-0.5913,-0.5905,-0.5986,-0.6217,-0.6269,-0.628,-0.635,-0.642,-0.642,-0.642,-0.642,-0.6416,-0.6679,-0.6872,-0.7073,-0.7847,-0.8549,-0.9128,-0.9454,-0.9773,-1.0015,-1.0015,-1.0015,-1.0015,-1.0015,-1.0015,-1.0021,-1.0212,-1.0148,-1.0085,-1.0471,-1.0401,-1.0338,-1.0528,-1.0667,-1.0807,-1.0807,-1.1247,-1.1685,-1.1856,-1.1941,-1.2041,-1.219,-1.2837,-1.3266,-1.3156,-1.3744,-1.4136,-1.4336,-1.3985,-1.387,-1.422,-1.3561,-1.3222,-1.342,-1.3185,-1.3027,-1.2881,-1.3437,-1.3789,-1.3945,0.0,0.0,0.0,0.0,0.0,0.0,0.0,0.0,0.0,0.0,0.0,0.0,0.0,0.0,0.0,0.0,0.0,0.0,0.0,0.0,0.0,0.0,0.0,0.9739,0.9088,0.8368,0.7747,0.692,0.6071,0.5153,0.4628,0.4006,0.3275,0.2518,0.1718,0.0828,-0.0076,-0.069,-0.0863,-0.1178,-0.1335,-0.1335,-0.1414,-0.1805,-0.2588,-0.3213,-0.4004,-0.4822,-0.5514,-0.5888,-0.6111,-0.6108,-0.6224,-0.6417,-0.6409,-0.6376,-0.642,-0.642,-0.642,-0.642,-0.642,-0.642,-0.6482,-0.7265,-0.7722,-0.8117,-0.9017,-0.9524,-0.9837,-0.9958,-1.0021,-1.0078,-1.0078,-1.0078,-1.0078,-1.0078,-1.0078,-1.0148,-1.0674,-1.0408,-1.0338,-1.1365,-1.1185,-1.0996,-1.1498,-1.1185,-1.087,-1.087,-1.1303,-1.1856,-1.2451,-1.2294,0.0,-1.3636,-1.3525,-1.3558,-1.4043,-1.4107,-1.4346,-1.4766,-1.4435,-1.4646,-1.5621,-1.4376,-1.3838,-1.4372,-1.3801,-1.332,-1.293,-1.373,-1.4365,-1.4785,0.0,0.0,0.0,0.0,0.0,0.0,0.0,0.0,0.0,0.0,0.0,0.0,0.0,0.0,0.0,0.0,0.0,0.0,0.0,0.0,0.0,0.9352,0.9518,0.9572,0.8977,0.8158,0.7246,0.6461,0.5609,0.4628,0.4367,0.4006,0.3275,0.2491,0.1752,0.0829,-0.0077,-0.0702,-0.0864,-0.1727,-0.2198,-0.2198,-0.3366,-0.3834,-0.3443,-0.4194,-0.4722,-0.4953,-0.5299,-0.5815,-0.6504,-0.6607,-0.6607,-0.6518,-0.6606,-0.6519,-0.642,-0.642,-0.642,-0.642,-0.642,-0.642,-0.6482,-0.7265,-0.7722,-0.8117,-0.9017,-0.9779,-1.0351,-1.0548,-1.0856,-1.1178,-1.1178,-1.1178,-1.1178,-1.1178,-1.1178,-1.1178,-1.1373,-1.124,-1.124,-1.156,-1.1498,-1.1435,-1.156,-1.1856,-1.202,-1.202,-1.2143,-1.2458,-1.313,-1.3536,0.0,-1.3787,-1.4421,-1.4772,-1.4639,-1.4883,-1.5107,-1.5225,-1.4848,-1.4764,-1.511,-1.4093,-1.3771,-1.4223,-1.375,-1.3603,-1.3789,-1.4326,-1.4668,0.0,0.0,0.0,0.0,0.0,0.0,0.0,0.0,0.0,0.0,0.0,0.0,0.0,0.0,0.0,0.0,0.0,0.0,0.0,0.0,0.0,0.0,0.918,0.9081,0.9081,0.863,0.7842,0.6597,0.6009,0.5355,0.4367,0.4344,0.3937,0.2836,0.2404,0.157,0.0307,-0.0312,-0.0707,-0.1021,-0.1961,-0.2511,-0.2511,-0.3834,-0.4455,-0.43,-0.4768,-0.516,-0.5553,-0.578,-0.6167,0.0,-0.692,-0.6892,-0.6805,-0.6846,-0.6652,0.0,0.0,0.0,0.0,0.0,-0.7068,-0.7391,-0.8102,-0.849,-0.8818,-0.9716,-1.0358,-1.0807,-1.1059,-1.1373,-1.1622,-1.1622,-1.1622,-1.1622,-1.1622,-1.1622,-1.1622,-1.1622,-1.152,-1.1417,-1.1417,-1.1417,-1.1478,-1.1722,0.0,0.0,-1.3243,-1.3122,-1.313,-1.3812,-1.4231,-1.4495,-1.4486,-1.5023,-1.5322,-1.5078,-1.5264,-1.541,-1.541,-1.5461,0.0,0.0,0.0,-1.4776,-1.4562,-1.4019,0.0,0.0,0.0,0.0,0.0,0.0,0.0,0.0,-1.3802,-1.3295,0.0,0.0,0.0,0.0,0.0,0.0,0.0,0.0,0.0,0.0,0.0,0.0,0.0,0.0,0.0,0.0,0.8818,0.8361,0.8361,0.8042,0.7321,0.6067,0.5554,0.5036,0.4384,0.434,0.3747,0.226,0.2159,0.137,-0.0469,0.0,0.0,0.0,0.0,-0.2652,-0.2744,-0.3589,-0.4443,-0.516,-0.516,-0.5553,-0.6338,-0.6563,-0.6714,-0.6942,-0.7099,-0.7135,-0.7023,-0.7023,-0.6729,-0.6388,-0.6474,-0.6548,-0.6613,-0.7326,-0.7957,0.0,0.0,0.0,0.0,-1.069,-1.1094,-1.1185,-1.1498,-1.1622,-1.1622,-1.1622,-1.1622,-1.1622,-1.1622,-1.1622,-1.1615,-1.1578,-1.135,-1.1063,-1.1026,-1.1078,-1.1323,-1.1894,-1.237,-1.3011,-1.4282,-1.3992,-1.3872,-1.4529,-1.4588,-1.4765,-1.5352,-1.541,-1.541,-1.541,0.0,0.0,-1.541,-1.5995,-1.6613,-1.7092,-1.6811,-1.6176,-1.5028,-1.4506,-1.4463,-1.4844,-1.4853,-1.5039,-1.541,-1.541,-1.5118,-1.4579,-1.3629,-1.3202,0.0,0.0,0.0,0.0,0.0,0.0,0.0,0.0,0.0,0.0,0.0,0.0,0.0,0.0,0.0,0.8452,0.8102,0.7582,0.7582,0.712,0.6531,0.5939,0.5219,0.4669,0.4497,0.383,0.3136,0.2318,0.1703,0.0742,-0.0533,-0.0598,0.0,-0.2208,-0.291,-0.3686,-0.4535,-0.5214,-0.5752,-0.6025,0.0,0.0,-0.6338,-0.6714,-0.6865,-0.6942,-0.7249,-0.7281,-0.7023,-0.7023,-0.6724,-0.634,-0.7006,-0.7265,-0.7391,-0.8037,-0.8239,-0.8199,-0.8951,-0.926,-0.9506,-1.037,-1.0972,-1.1303,-1.156,-1.1622,0.0,-1.1622,-1.1622,-1.1622,-1.1622,-1.1622,-1.1556,-1.1231,-1.1181,-1.1004,-1.0741,-1.1012,-1.1498,-1.1897,-1.2822,-1.3727,-1.4414,-1.441,-1.4529,-1.5118,-1.5235,-1.5294,-1.5352,-1.541,-1.541,-1.541,-1.541,-1.541,-1.541,-1.5944,-1.6388,-1.6537,-1.6501,-1.5978,-1.4869,-1.5037,-1.5205,-1.5283,-1.5293,-1.5332,-1.541,-1.541,-1.5352,-1.5235,-1.4505,-1.377,0.0,0.0,0.0,0.0,0.0,0.0,0.0,0.0,0.0,0.0,0.0,0.5509,0.6693,0.0,0.6686,0.7757,0.7381,0.6924,0.6924,0.6268,0.5679,0.5352,0.4957,0.4476,0.3899,0.3491,0.2841,0.1777,0.1395,0.066,-0.052,-0.0587,-0.1172,-0.2299,-0.3074,-0.3898,-0.4825,-0.551,-0.5956,-0.603,-0.603,-0.6146,-0.6294,-0.6594,-0.6866,-0.7099,-0.7407,-0.7281,-0.7007,-0.6757,-0.6668,-0.6656,-0.7448,-0.7734,-0.7716,-0.852,-0.8924,-0.9126,-0.9492,-0.9771,-0.9991,-1.0464,-1.0868,-1.1247,-1.1498,-1.1622,-1.1622,-1.1622,-1.1622,-1.1586,-1.1417,-1.1497,-1.1542,-1.115,-1.0946,-1.0901,-1.0959,-1.1058,-1.1423,-1.2465,-1.3265,-1.405,-1.4808,-1.4942,-1.5059,-1.5352,-1.541,-1.541,-1.541,-1.541,-1.541,-1.541,-1.541,-1.5526,-1.5806,-1.6698,-1.7313,-1.7684,-1.7447,-1.6841,-1.6036,-1.5914,-1.569,-1.541,-1.541,-1.541,-1.541,-1.541,-1.541,-1.541,-1.5118,-1.472,0.0,0.0,0.0,0.0,0.0,0.0,0.0,0.0,0.5775,0.5788,0.5627,0.5667,0.6384,0.6498,0.6705,0.7326,0.6889,0.6506,0.6601,0.5745,0.508,0.4794,0.4746,0.4406,0.3552,0.3283,0.2616,0.1454,0.1161,0.0579,-0.0506,-0.0576,-0.1151,-0.2383,-0.3086,-0.3884,-0.4795,-0.5415,-0.5776,-0.58,-0.58,-0.5937,-0.6279,-0.65,-0.6727,-0.7079,-0.7271,-0.7167,-0.695,-0.6684,-0.6759,-0.7144,-0.7887,-0.8078,-0.803,-0.889,-0.9506,-0.9947,-0.9947,-1.0107,-1.0383,-1.0439,-1.0728,-1.1093,-1.1403,-1.1578,-1.1622,-1.1622,-1.1622,-1.1549,-1.1158,-1.138,-1.1527,-1.1077,-1.0894,-1.085,-1.1216,-1.1198,-1.1559,-1.305,-1.3571,-1.4185,-1.5206,-1.541,-1.541,-1.541,-1.541,-1.541,-1.541,-1.541,-1.5468,-1.5575,-1.5575,-1.5864,-1.6585,-1.7424,-1.8201,-1.8762,-1.8375,-1.782,-1.7202,-1.6641,-1.6083,-1.5575,-1.5468,-1.541,-1.541,-1.541,-1.541,-1.541,-1.5498,-1.5486,0.212,0.3063,0.4088,0.5153,0.5613,0.5908,0.0,0.0,0.6159,0.6113,0.5855,0.5595,0.5679,0.6269,0.6865,0.7353,0.7011,0.6861,0.7218,0.621,0.518,0.4662,0.4623,0.4543,0.4389,0.3074,0.2192,0.2179,0.0928,-0.007,-0.0492,-0.0482,-0.1373,-0.3227,-0.3221,-0.4013,-0.5656,-0.5607,-0.5677,-0.58,-0.58,-0.5885,-0.6122,-0.6334,-0.6489,-0.6649,-0.678,-0.6761,-0.6777,-0.7229,-0.7264,-0.7322,-0.8505,-0.8693,-0.8458,-0.9324,-0.9508,-0.9283,-0.9283,-0.9415,-0.9666,-0.9736,-1.0293,-1.0955,-1.1128,-1.1333,-1.1622,-1.1622,-1.1622,-1.1549,-1.1158,-1.138,-1.1468,-1.0792,-1.1001,-1.128,-1.102,-1.1472,-1.2208,-1.3112,-1.373,-1.4353,-1.5273,-1.541,-1.541,-1.541,-1.541,-1.541,-1.541,-1.541,-1.5633,-1.614,-1.6197,-1.6641,-1.7809,-1.7534,-1.7534,-1.8147,-1.8147,-1.782,-1.7202,-1.6641,-1.6255,-1.6197,-1.569,-1.541,-1.541,-1.541,-1.541,-1.542,-1.5811,-1.5661,0.344,0.4353,0.5037,0.5541,0.5941,0.6204,0.6289,0.6664,0.6933,0.6933,0.6666,0.6465,0.692,0.6792,0.6789,0.0,0.7002,0.666,0.7029,0.6081,0.5206,0.4751,0.4728,0.4241,0.3135,0.2117,0.1384,0.0995,0.0348,-0.0137,-0.048,-0.088,-0.1821,-0.3205,-0.3639,-0.44,-0.5545,-0.5488,-0.5488,-0.5545,-0.5545,-0.5731,-0.5958,-0.6169,-0.6506,-0.6801,-0.6769,-0.6696,-0.6749,-0.7281,-0.7585,-0.7757,-0.8751,-0.9135,-0.922,-0.9575,-0.9492,-0.9183,-0.9183,-0.9408,-0.9586,-0.9577,-0.9917,-1.0366,-1.0721,-1.0991,-1.116,-1.1153,-1.1352,-1.1505,-1.0924,-1.1172,-1.1567,-1.1447,-1.1565,-1.1865,-1.2163,-1.2324,-1.2619,-1.3275,-1.3806,-1.4326,-1.4941,-1.5254,-1.541,-1.541,-1.541,-1.541,-1.541,-1.541,-1.5486,-1.5772,-1.6459,-1.6949,-1.7111,-1.7218,-1.7342,-1.7567,-1.7589,-1.7313,-1.6698,-1.6415,-1.614,-1.5796,-1.5517,-1.541,-1.541,-1.541,-1.541,-1.542,-1.5596,-1.5496,0.5085,0.5582,0.5844,0.6125,0.6442,0.6621,0.6365,0.703,0.7629,0.7629,0.7409,0.7377,0.7897,0.7484,0.7295,0.7922,0.7456,0.7034,0.6996,0.6226,0.5474,0.4844,0.4607,0.3946,0.2455,0.1737,0.1084,0.0346,0.0136,-0.0135,-0.0472,-0.1209,-0.2078,-0.3149,-0.3885,-0.4622,-0.5362,-0.5428,-0.5428,-0.5428,-0.5428,-0.555,-0.5859,-0.6267,-0.6749,-0.7142,-0.7214,-0.722,-0.7207,-0.7846,-0.8196,-0.8482,-0.9234,-0.9579,-0.9686,-0.9686,-0.9492,-0.9176,-0.9097,-0.9259,-0.9462,-0.9357,-0.9542,-0.9886,-1.0217,-1.0583,-1.0898,-1.083,-1.1182,-1.149,-1.0865,-1.1203,-1.1665,-1.1929,-1.2137,-1.2439,-1.3076,-1.3062,-1.3035,-1.3404,-1.375,-1.4141,-1.4687,-1.5039,-1.5283,-1.5391,-1.541,-1.541,-1.541,-1.5526,-1.5693,-1.5735,-1.6655,-1.7168,-1.6927,-1.7145,-1.7328,-1.7457,-1.7313,-1.6978,-1.6585,-1.6358,-1.6083,-1.5633,-1.5468,-1.541,-1.541,-1.541,-1.541,-1.541,-1.541,-1.541,0.6834,0.6688,0.6313,0.7013,0.7307,0.7317,0.6785,0.736,0.7959,0.7959,0.8006,0.7962,0.8027,0.8469,0.8754,0.8533,0.8684,0.8482,0.7625,0.6863,0.5944,0.4772,0.4156,0.3586,0.0,0.2444,0.1813,0.1144,0.0404,-0.0135,-0.0472,-0.1209,-0.2078,-0.3149,-0.3885,-0.4622,-0.5362,-0.5428,-0.5428,-0.5428,-0.5428,-0.5491,-0.5624,-0.6666,-0.7265,-0.754,-0.8182,-0.8436,-0.8501,-0.9134,-0.9448,-0.9506,-1.0288,-1.0194,-0.9686,-0.9686,-0.9492,-0.9143,-0.8918,-0.8824,-0.8831,-0.8976,-0.9227,-0.9535,-0.9708,-1.0301,-1.0905,-1.0905,-1.125,-1.1549,-1.115,-1.1311,-1.1665,-1.1929,-1.243,-1.2909,-1.314,-1.3327,-1.3455,-1.3506,-1.3516,-1.3789,-1.4639,-1.4795,-1.4941,-1.5352,-1.541,-1.541,-1.541,-1.5911,-1.6304,-1.6375,-1.6852,-1.7431,-1.8088,-1.7568,-1.7468,-1.8038,-1.7534,-1.7202,-1.7146,-1.6585,-1.6312,-1.6255,-1.569,-1.541,-1.541,-1.541,-1.541,-1.541,-1.541,-1.541,0.777,0.7687,0.7478,0.7544,0.7589,0.761,0.7286,0.7837,0.8377,0.8377,0.8449,0.8618,0.9009,0.8896,0.8892,0.9383,0.8991,0.8569,0.8445,0.7268,0.6179,0.5538,0.486,0.0,0.3243,0.2135,0.0,0.1143,0.0404,-0.0135,-0.0472,-0.1209,-0.2078,-0.3149,-0.3885,-0.4622,-0.5362,-0.5428,-0.5428,-0.5428,-0.5428,-0.5557,-0.5818,-0.6666,-0.7186,-0.7521,-0.8231,-0.849,-0.8554,-0.9198,-0.9518,-0.9582,-1.0301,-1.0504,-1.0241,-1.004,-0.9786,-0.9466,-0.8978,-0.8804,-0.8811,-0.8857,-0.9059,-0.9334,-0.9642,-1.0158,-1.0717,-1.0717,-1.1128,-1.1549,-1.1158,-1.138,-1.1841,-1.2748,-1.3143,-1.3456,-1.4091,-1.4289,-1.4189,-1.3613,-1.374,-1.4014,-1.4307,-1.459,-1.4932,-1.5352,-1.541,-1.541,-1.541,-1.5921,-1.636,-1.6375,-1.6902,-1.7372,-1.7566,-1.7391,-1.7351,-1.7512,-1.6922,-1.6585,-1.6585,-1.6026,-1.569,-1.569,-1.5526,-1.541,-1.541,-1.541,-1.541,-1.541,-1.541,-1.541,0.9264,0.8992,0.8593,0.8043,0.8277,0.8524,0.7985,0.8583,0.9297,0.9568,0.957,0.9621,1.005,0.9775,0.9566,0.9962,0.9509,0.9127,0.9013,0.8108,0.7042,0.6001,0.5481,0.4755,0.3689,0.2549,0.0,0.1143,0.0404,-0.0135,-0.0472,-0.1209,-0.2078,-0.3149,-0.3885,-0.4622,-0.5362,-0.5428,-0.5428,-0.5428,-0.5425,-0.5624,-0.5954,-0.6929,-0.7517,-0.7912,-0.8877,-0.9268,-0.9268,-0.9716,-0.9907,-0.9907,-1.0428,-1.0557,-1.0367,-1.0074,-0.9773,-0.9472,-0.9092,-0.8891,-0.8824,-0.8931,-0.9085,-0.9348,-0.965,-1.0234,-1.0717,-1.0717,-1.1128,-1.1578,-1.1304,-1.1468,-1.1926,-1.3208,-1.3511,-1.3758,-1.4591,-1.4785,-1.4531,-1.3672,-1.3721,-1.3902,-1.4058,-1.4619,-1.5098,-1.5371,-1.5575,-1.5633,-1.541,-1.5748,-1.6079,-1.6375,-1.6758,-1.7058,-1.7299,-1.7295,-1.7262,-1.7256,-1.6826,-1.6641,-1.6641,-1.6026,-1.569,-1.569,-1.5526,-1.541,-1.541,-1.541,-1.541,-1.541,-1.541,-1.541,1.1219,1.0548,0.9625,0.8623,0.9324,0.9969,0.8877,0.9488,1.0523,1.1328,1.1141,1.0866,1.0995,1.0954,1.0737,1.0364,1.0314,1.0053,0.9308,0.9175,0.8398,0.0,0.0,0.0,0.0,0.0,0.0,0.1277,0.0,-0.0135,-0.0472,-0.1142,-0.2011,-0.3082,-0.3885,-0.4622,-0.5362,-0.5362,-0.5428,-0.5428,-0.5554,-0.5686,-0.5958,-0.7517,-0.8296,-0.8554,-0.9977,-1.0624,-1.0624,-1.0624,-1.0624,-1.0624,-1.0624,-1.0388,-1.0107,-0.9826,-0.9539,-0.923,-0.923,-0.9085,-0.8878,-0.911,-0.9383,-0.9618,-0.9843,-1.038,-1.0926,-1.0926,-1.1265,-1.1622,-1.1622,-1.1622,-1.1926,-1.3139,-1.3511,-1.3767,-1.461,-1.4814,-1.457,-1.373,-1.3574,-1.3691,-1.4019,-1.4844,-1.541,-1.541,-1.5911,-1.6083,-1.5526,-1.5468,-1.5749,-1.6407,-1.6449,-1.6726,-1.7349,-1.7389,-1.7347,-1.7294,-1.7267,-1.7257,-1.7202,-1.6641,-1.6312,-1.6244,-1.569,-1.541,-1.541,-1.541,-1.541,-1.541,-1.541,-1.541,1.269,1.184,1.0958,1.0535,1.0588,1.0655,1.0298,1.0392,1.0622,1.1016,1.1201,1.1314,1.1219,1.1615,0.0,1.0461,1.0535,0.0,0.956,0.9005,0.0,0.7377,0.0,0.5609,0.4957,0.3885,0.0,0.0,0.121,0.0404,-0.0472,-0.0674,-0.1277,-0.2347,-0.3082,-0.3818,-0.4556,-0.5156,-0.5428,-0.5428,-0.5425,-0.5624,-0.5954,-0.7381,-0.8226,-0.8554,-0.9977,-1.0624,-1.0624,-1.0624,-1.0624,-1.0624,-1.0624,-1.0577,-1.0441,-1.0423,-1.0147,-0.9893,-0.9893,-0.9559,-0.9123,-0.9472,-0.9836,-1.021,-1.0219,-1.0695,-1.1188,-1.1188,-1.137,-1.1622,-1.1622,-1.1622,-1.1802,-1.2581,-1.3139,-1.3717,-1.44,-1.4907,-1.5098,-1.4561,-1.4463,-1.4385,-1.4116,-1.4844,-1.541,-1.541,-1.5911,-1.6255,-1.6083,-1.6472,-1.6991,-1.7585,-1.73,-1.7185,-1.7443,-1.7753,-1.7824,-1.7462,-1.771,-1.7644,-1.7202,-1.6641,-1.6083,-1.5633,-1.5468,-1.541,-1.541,-1.541,-1.541,-1.541,-1.541,-1.541,1.4174,1.306,1.2058,1.1692,1.1586,1.1535,1.1403,1.144,1.1613,1.214,1.2253,1.2225,1.2317,1.2413,1.2294,0.0,0.0,0.0,1.0497,0.9918,0.9128,0.0,0.7116,0.0,0.5219,0.4486,0.3482,0.0,0.1478,0.0605,-0.0472,-0.0472,-0.101,-0.2079,-0.2815,-0.3685,-0.4758,-0.5226,-0.5428,-0.5428,-0.5491,-0.5624,-0.5954,-0.7442,-0.8221,-0.8554,0.0,-1.0624,-1.0624,-1.0624,-1.0624,-1.0624,-1.0624,-1.0624,-1.0611,-1.0414,-1.0261,-1.0114,-1.0114,-0.99,-0.9653,-0.982,-1.0106,-1.0451,-1.0636,-1.0981,-1.1303,-1.1428,-1.1498,-1.1622,-1.1622,-1.1622,-1.1802,-1.2704,-1.326,-1.3752,-1.4697,-1.5177,-1.5283,-1.4863,-1.4785,-1.4707,-1.4463,-1.4971,-1.541,-1.541,-1.5911,-1.6425,-1.6641,-1.6978,-1.7424,-1.8038,-1.7645,-1.7451,-1.7784,-1.8052,-1.7989,-1.7462,-1.7817,-1.782,-1.7202,-1.6641,-1.614,-1.5806,-1.5517,-1.541,-1.541,-1.541,-1.541,-1.541,-1.541,-1.541,1.5557,1.4203,1.3162,1.2496,1.2518,1.2629,1.2329,1.2553,1.3029,1.3854,1.3599,1.3402,1.3817,1.3519,1.3174,1.3257,0.0,1.1888,1.1495,1.1163,1.0155,0.8032,0.7772,0.7051,0.5352,0.5153,0.4284,0.2414,0.1612,0.074,-0.0404,-0.0472,-0.101,-0.2079,-0.2815,-0.3885,-0.5226,-0.5359,-0.5428,-0.5428,-0.5617,-0.5749,-0.5954,-0.7502,-0.828,-0.8554,0.0,0.0,-1.0624,-1.0624,-1.0624,-1.0624,-1.0624,-1.0624,-1.0528,-1.0274,-1.0174,-1.0174,-1.0174,-1.0174,-1.0174,-1.0174,-1.0296,-1.0533,-1.0982,-1.1185,-1.1373,-1.156,-1.1622,-1.1622,-1.1622,-1.1685,-1.1988,-1.3078,-1.3502,-1.3923,-1.505,-1.5352,-1.5283,-1.4863,-1.4834,-1.4844,-1.4795,-1.5127,-1.541,-1.541,-1.5911,-1.6528,-1.7146,-1.7257,-1.7534,-1.8147,-1.7751,-1.7618,-1.8091,-1.8154,-1.7938,-1.7347,-1.7871,-1.7918,-1.7257,-1.6698,-1.6358,-1.6197,-1.569,-1.541,-1.541,-1.541,-1.541,-1.541,-1.541,-1.541,1.6521,1.5433,1.4693,1.3868,1.398,1.4112,1.3345,1.3509,1.3968,1.4408,1.4403,1.4473,1.4849,1.5087,1.468,1.3141,1.3002,1.2434,1.0782,1.0461,0.9913,0.0,0.7977,0.7186,0.5885,0.5355,0.0,0.0,0.0,0.1209,-0.0404,-0.0472,-0.101,-0.2079,-0.2815,-0.3618,-0.4486,-0.5093,-0.5428,-0.5428,-0.6009,-0.6141,-0.5954,-0.7377,-0.8221,-0.8554,-0.9326,0.0,-1.0624,-1.0624,-1.0624,-1.0624,-1.0624,-1.0624,-1.0618,-1.0501,-1.0481,-1.0481,-1.0481,-1.0481,-1.0481,-1.0481,-1.0607,-1.0801,-1.1045,-1.1185,-1.1373,-1.156,-1.1622,-1.1622,-1.1622,-1.1973,-1.2389,-1.2634,-1.3494,-1.441,-1.4588,-1.5059,-1.5283,-1.4863,-1.5068,-1.5195,-1.4844,-1.5127,-1.541,-1.541,-1.5911,-1.6528,-1.7146,-1.7644,-1.8201,-1.8762,-1.835,-1.7938,-1.7629,-1.7989,-1.7989,-1.7526,-1.8319,-1.8375,-1.7257,-1.709,-1.6585,-1.5575,-1.5468,-1.541,-1.541,-1.541,-1.541,-1.541,-1.541,-1.541,1.7649,1.6595,1.608,1.6052,1.5978,1.5765,1.5338,1.5435,1.5532,1.5303,1.5221,1.5371,1.5621,1.5517,1.5235,1.452,1.3838,1.3032,1.2041,1.115,1.0231,0.9087,0.8436,0.7657,0.6412,0.5818,0.5017,0.3682,0.0,0.1477,0.0067,-0.0539,-0.121,-0.2079,-0.2815,-0.3551,-0.4287,-0.5024,-0.5428,-0.5428,-0.5752,-0.6079,-0.6474,-0.7512,-0.835,-0.9069,-0.9779,0.0,-1.0624,-1.0624,-1.0624,-1.0624,-1.0624,-1.0624,-1.0624,-1.0624,-1.0624,-1.0624,-1.0624,-1.0624,-1.0624,-1.0624,-1.0624,-1.0744,-1.0996,-1.1122,-1.1247,-1.1498,-1.1622,-1.1685,-1.1981,-1.2274,-1.2696,-1.3364,-1.4273,-1.4942,-1.4942,-1.5177,-1.5352,-1.5146,-1.5273,-1.5352,-1.5146,-1.5283,-1.541,-1.541,-1.5642,-1.6026,-1.6641,-1.7257,-1.7984,-1.8881,-1.8758,-1.851,-1.8289,-1.851,-1.8394,-1.7855,-1.8235,-1.7984,-1.6754,-1.6754,-1.6301,-1.541,-1.541,-1.541,-1.541,-1.541,-1.541,-1.541,-1.541,-1.541,1.8876,1.7783,1.7299,1.7869,1.7668,1.73,1.714,1.7206,1.7122,1.6436,1.6224,1.6208,1.6425,1.5921,1.5576,0.0,1.4805,1.3821,1.3288,1.2201,1.0982,0.9472,0.8958,0.0,0.6806,0.635,0.0,0.0,0.0,0.0,0.0336,-0.0605,-0.134,-0.1864,-0.2725,-0.3454,-0.4048,-0.4913,-0.5328,-0.5428,-0.5557,-0.6079,-0.6924,-0.7637,-0.8544,-0.9518,-1.0104,0.0,0.0,-1.0624,-1.0624,-1.0624,-1.0624,-1.0624,-1.0624,-1.0624,-1.0624,-1.0624,-1.0624,-1.0624,-1.0624,-1.0624,-1.0624,-1.0624,-1.0933,-1.1059,-1.1185,-1.1435,-1.156,-1.1677,-1.2158,-1.2389,-1.2818,-1.4163,-1.4942,-1.541,-1.541,-1.541,-1.541,-1.541,-1.541,-1.541,-1.541,-1.541,-1.541,-1.541,-1.541,-1.5633,-1.6197,-1.6698,-1.7479,-1.8655,-1.8934,-1.8987,-1.8987,-1.8987,-1.8815,-1.8321,-1.8309,-1.7809,-1.6754,-1.6585,-1.6197,-1.5575,-1.5468,-1.541,-1.541,-1.541,-1.541,-1.541,-1.541,-1.541,2.0209,1.9073,1.8358,1.835,1.8416,1.8345,1.79,1.8113,1.8232,1.7906,1.7396,1.7193,1.7467,1.6944,1.6239,1.5585,0.0,1.5135,1.3099,1.3064,1.2221,0.9612,0.0,0.0,0.6872,0.6675,0.6145,0.0,0.0,0.0,-0.0336,-0.0875,-0.113,-0.1103,-0.2328,-0.3099,-0.3286,-0.4507,-0.5223,-0.5428,-0.6009,-0.6531,-0.6924,-0.7637,-0.8544,-0.9518,-0.9582,0.0,0.0,-1.0624,-1.0624,-1.0624,-1.0624,-1.0624,-1.0624,-1.0624,-1.0624,-1.0624,-1.0624,-1.0624,-1.0624,-1.0624,-1.0624,-1.0624,-1.0807,-1.0933,-1.1122,-1.1303,-1.1435,-1.1622,-1.1685,-1.2097,-1.2818,-1.4163,-1.4942,-1.541,-1.541,-1.541,-1.541,-1.541,-1.541,-1.541,-1.541,-1.541,-1.541,-1.541,-1.541,-1.5633,-1.6197,-1.6368,-1.6866,-1.8038,-1.8655,-1.8987,-1.8987,-1.8987,-1.8999,-1.8934,-1.8934,-1.8602,-1.7984,-1.7424,-1.681,-1.6255,-1.569,-1.541,-1.541,-1.541,-1.541,-1.541,-1.541,-1.541,2.1674,2.0933,2.0536,2.0653,2.0611,2.0327,1.9637,1.9775,1.9823,1.9057,1.8733,1.861,1.8643,1.7809,1.7011,0.0,1.6004,1.5369,1.4469,1.3749,1.2711,1.1101,1.0155,0.0,0.0,0.0,0.6075,0.0,0.0,0.0,0.0656,-0.0194,-0.089,-0.1508,-0.2134,-0.282,-0.3566,-0.4128,-0.4697,-0.5223,-0.5474,-0.6036,-0.6789,-0.7632,-0.8484,-0.9396,-0.9913,0.0,0.0,-1.0624,-1.0624,-1.0624,-1.0624,-1.0624,-1.0624,-1.0624,-1.0624,-1.0624,-1.0624,-1.0624,-1.0624,-1.0624,-1.0624,-1.0624,-1.0744,-1.0933,-1.1122,-1.124,-1.1428,-1.1677,-1.2035,-1.2948,-1.3855,-1.435,-1.4942,-1.541,-1.541,-1.541,-1.541,-1.541,-1.541,-1.541,-1.541,-1.541,-1.541,-1.541,-1.541,-1.5468,-1.5748,-1.6083,-1.6641,-1.7479,-1.7754,-1.8038,-1.8429,-1.8147,-1.7929,-1.7929,-1.7929,-1.7809,-1.7589,-1.7313,-1.709,-1.6866,-1.6244,-1.5911,-1.5911,-1.5575,-1.541,-1.541,-1.541,-1.541,2.295,2.2308,2.1978,2.2249,2.2065,2.1668,2.1164,2.1245,2.1112,2.0326,1.9887,1.962,1.9505,1.8328,1.7335,0.0,1.6425,1.5782,1.5605,1.4674,1.3611,1.2491,0.0,0.9892,0.0,0.7489,0.0,0.0,0.0,0.0,0.0,0.0613,-0.0482,-0.164,-0.2065,-0.2792,-0.3819,-0.4062,-0.4494,-0.5067,-0.5067,-0.5583,-0.6638,-0.7283,-0.8222,-0.9338,0.0,0.0,0.0,-1.0624,-1.0624,-1.0624,-1.0624,-1.0624,-1.0624,-1.0624,-1.0624,-1.0624,-1.0624,-1.0624,-1.0624,-1.0624,-1.0624,-1.0624,-1.0681,-1.087,-1.1059,-1.1185,-1.1435,-1.1685,-1.2097,-1.307,-1.3983,-1.4172,-1.4706,-1.5177,-1.5352,-1.541,-1.541,-1.541,-1.541,-1.541,-1.541,-1.541,-1.541,-1.541,-1.541,-1.5468,-1.5633,-1.6026,-1.6585,-1.7368,-1.7313,-1.7424,-1.8038,-1.7534,-1.7202,-1.7202,-1.7202,-1.7202,-1.7202,-1.7034,-1.6922,-1.6922,-1.6358,-1.6026,-1.6026,-1.5633,-1.541,-1.541,-1.541,-1.541,2.3904,2.2905,2.2264,2.2519,2.2178,2.1898,2.2299,2.2165,2.1922,2.1729,2.0847,2.0042,1.9902,1.8412,1.7202,1.7202,1.7064,1.6787,1.6176,1.5864,1.4997,0.0,0.0,1.0896,0.9176,0.7574,0.0,0.0,0.0,0.0,0.0,0.1448,0.0227,-0.1174,-0.2172,-0.3051,-0.3812,-0.44,-0.4769,-0.4921,-0.4921,-0.5424,-0.6387,-0.6634,-0.7691,0.0,0.0,0.0,0.0,-1.0624,-1.0624,-1.0624,-1.0624,-1.0624,-1.0624,-1.0624,-1.0624,-1.0624,-1.0624,-1.0624,-1.0624,-1.0624,-1.0624,-1.0624,-1.0624,-1.0681,-1.0863,-1.1059,-1.131,-1.1622,-1.1622,-1.2035,-1.2696,-1.3321,-1.4052,-1.4647,-1.5294,-1.541,-1.541,-1.541,-1.541,-1.541,-1.541,-1.541,-1.541,-1.541,-1.541,-1.5642,-1.6197,-1.6312,-1.6754,-1.7984,-1.7534,-1.7424,-1.8038,-1.7534,-1.7202,-1.7202,-1.7202,-1.7202,-1.7202,-1.6641,-1.6301,-1.6301,-1.569,-1.541,-1.541,-1.541,-1.541,-1.541,-1.541,-1.541,2.6098,2.5005,2.3793,2.42,2.3756,2.3135,2.2687,2.2844,2.2878,2.2071,2.1513,2.1015,2.0584,1.9359,1.8371,1.8328,0.0,0.0,0.0,1.6233,0.0,1.423,1.1781,0.9768,0.0,0.0,0.0,0.0,0.0,0.0,0.0,0.1421,0.0058,-0.1079,-0.1761,-0.261,-0.3629,-0.3854,-0.4206,-0.4762,-0.5174,-0.543,-0.5572,-0.6639,0.0,0.0,0.0,0.0,0.0,-1.0364,-1.0624,-1.0624,-1.0624,-1.0624,-1.0624,-1.0624,-1.0624,-1.0624,-1.0624,-1.0624,-1.0624,-1.0624,-1.0624,-1.0624,-1.0681,-1.087,-1.1059,-1.1373,-1.1498,-1.1622,-1.1622,-1.2035,-1.2696,-1.3321,-1.3983,-1.4647,-1.5294,-1.541,-1.541,-1.541,-1.541,-1.541,-1.541,-1.541,-1.541,-1.541,-1.541,-1.5468,-1.5633,-1.569,-1.5968,-1.6754,-1.6698,-1.6978,-1.8038,-1.7534,-1.7034,-1.6585,-1.6585,-1.6585,-1.6585,-1.6415,-1.6472,-1.6922,-1.6301,-1.6026,-1.6026,-1.5584,-1.541,-1.541,-1.541,-1.541,2.6464,2.5595,2.4338,2.4295,2.4028,2.3624,2.2994,2.3171,2.3326,2.275,2.2062,2.1465,2.1091,1.994,1.8988,1.8861,1.8328,0.0,0.0,0.0,0.0,1.384,0.0,0.0,0.0,0.0,0.0,0.0,0.0,0.0,0.0,0.1468,0.0286,-0.0504,-0.1566,-0.2625,-0.3569,-0.3849,-0.4172,-0.4606,-0.5223,-0.5459,-0.5479,-0.6652,0.0,0.0,0.0,0.0,0.0,-1.0428,-1.0624,-1.0624,-1.0624,-1.0624,-1.0624,-1.0624,-1.0624,-1.0624,-1.0624,-1.0624,-1.0624,-1.0624,-1.0618,-1.0681,-1.087,-1.1059,-1.1247,-1.1435,-1.156,-1.1622,-1.1622,-1.1864,-1.2336,-1.2948,-1.3433,-1.3974,-1.4874,-1.5059,-1.5118,-1.5352,-1.541,-1.541,-1.541,-1.541,-1.541,-1.541,-1.541,-1.5468,-1.569,-1.5748,-1.5968,-1.6585,-1.6641,-1.6922,-1.7699,-1.7424,-1.7034,-1.6641,-1.6641,-1.6528,-1.6301,-1.6312,-1.6358,-1.6528,-1.614,-1.5968,-1.5968,-1.5575,-1.541,-1.541,-1.541,-1.541,0.0,2.4856,2.4007,2.3183,2.3267,2.3468,2.3155,2.3189,0.0,2.3503,2.2483,2.1527,2.1423,2.0118,1.9064,1.9095,1.8486,0.0,0.0,1.6145,0.0,0.0,1.0942,0.0,0.0,0.0,0.0,0.0,0.0,0.0,0.0,0.165,0.0727,0.0393,-0.1564,-0.2903,-0.3514,-0.4184,-0.4519,-0.4519,-0.5062,-0.5523,-0.6053,-0.6768,0.0,0.0,0.0,0.0,0.0,-1.0561,-1.0624,-1.0624,-1.0624,-1.0624,-1.0624,-1.0624,-1.0624,-1.0624,-1.0624,-1.0624,-1.0624,-1.0624,-1.0681,-1.087,-1.1059,-1.1185,-1.1303,-1.1303,-1.1435,-1.1622,-1.1622,-1.1622,-1.174,-1.2328,-1.2512,-1.2879,-1.4222,-1.4469,-1.4706,-1.5294,-1.541,-1.541,-1.541,-1.541,-1.541,-1.541,-1.541,-1.5633,-1.6197,-1.6312,-1.6518,-1.7102,-1.7235,-1.7246,-1.7147,-1.718,-1.7202,-1.7146,-1.7146,-1.6866,-1.6301,-1.6255,-1.5968,-1.5468,-1.541,-1.541,-1.541,-1.541,-1.541,-1.541,-1.541,-1.541,2.4364,0.0,2.3379,2.3664,2.3306,2.2927,0.0,2.3114,2.3143,2.2952,2.2128,2.1456,2.1427,2.0438,1.9719,2.0069,1.9541,1.8813,1.7871,1.5734,0.0,1.2594,1.1206,1.0353,0.0,0.0,0.0,0.0,0.0,0.0,0.0,0.165,0.0727,0.0393,-0.1174,-0.2291,-0.2903,-0.3959,-0.4519,-0.4519,-0.5062,-0.5523,-0.5992,-0.6588,0.0,0.0,0.0,0.0,-0.9779,-1.0364,-1.0624,-1.0624,-1.0624,-1.0624,-1.0624,-1.0624,-1.0624,-1.0624,-1.0624,-1.0624,-1.0624,-1.0624,-1.0681,-1.087,-1.1059,-1.1185,-1.1303,-1.1498,-1.156,-1.1622,-1.1622,-1.1622,-1.174,-1.2328,-1.2512,-1.2879,-1.4222,-1.4469,-1.4706,-1.5294,-1.541,-1.541,-1.541,-1.541,-1.541,-1.541,-1.541,-1.5633,-1.6197,-1.6312,-1.6392,-1.658,-1.7366,-1.7553,-1.6688,-1.6939,-1.6978,-1.6528,-1.6528,-1.6472,-1.6312,-1.5864,-1.5748,-1.6083,-1.5633,-1.541,-1.541,-1.541,-1.541,-1.541,-1.541,-1.541,2.4045,2.3872,2.359,2.3335,2.3539,2.3703,2.3285,2.3382,2.3455,2.3113,2.2161,2.1477,2.1704,2.0669,2.0015,2.0814,1.9995,0.0,0.0,0.0,1.3874,1.2653,1.1586,0.0,0.0,0.0,0.0,0.0,0.0,0.0,0.0,0.1581,0.0727,0.0393,-0.1007,-0.2069,-0.2681,-0.3627,-0.4239,-0.4519,-0.5062,-0.5647,-0.628,-0.6963,-0.7857,0.0,0.0,0.0,-1.004,-1.0428,-1.0624,-1.0624,-1.0624,-1.0624,-1.0624,-1.0624,-1.0624,-1.0624,-1.0624,-1.0624,-1.0624,-1.0624,-1.0681,-1.0807,-1.0933,-1.1122,-1.1373,-1.156,-1.1622,-1.1622,-1.1622,-1.1802,-1.2097,-1.2451,-1.2757,-1.3252,-1.4282,-1.4469,-1.4706,-1.5294,-1.541,-1.541,-1.541,-1.541,-1.5468,-1.5748,-1.5796,-1.6026,-1.6641,-1.6698,-1.6714,-1.6787,-1.7323,-1.7434,-1.683,-1.7049,-1.709,-1.6754,-1.6698,-1.6585,-1.6301,-1.5968,-1.5864,-1.5921,-1.5584,-1.541,-1.541,-1.541,-1.541,-1.541,-1.541,-1.541,2.3885,2.4261,2.4249,2.2942,2.3687,2.4517,2.3615,2.3636,2.3761,2.3478,2.2392,2.165,2.1985,2.0914,0.0,0.0,0.0,0.0,1.6008,1.4974,1.3944,1.2653,1.1843,0.0,0.0,0.0,0.0,0.0,0.0,0.0,0.0,0.1677,0.0839,0.0393,-0.0896,-0.19,-0.2681,-0.3292,-0.3904,-0.4519,-0.4952,-0.5703,-0.6635,-0.7438,-0.852,0.0,0.0,0.0,-1.0624,-1.0624,-1.0624,-1.0624,-1.0624,-1.0624,-1.0624,-1.0624,-1.0624,-1.0624,-1.0624,-1.0624,-1.0624,-1.0624,-1.0681,-1.0744,-1.08,-1.0989,-1.124,-1.1498,-1.156,-1.1622,-1.1622,-1.2035,-1.2512,-1.2512,-1.3009,-1.3692,-1.435,-1.4469,-1.4706,-1.5294,-1.541,-1.541,-1.541,-1.541,-1.5575,-1.6083,-1.6255,-1.6528,-1.7146,-1.7257,-1.7346,-1.7379,-1.7434,-1.739,-1.7214,-1.7269,-1.7313,-1.7202,-1.709,-1.681,-1.6197,-1.6244,-1.6026,-1.541,-1.541,-1.541,-1.541,-1.541,-1.541,-1.541,-1.541,-1.541,2.3203,2.4146,2.5065,2.3934,2.3432,2.329,2.3367,2.3213,2.313,0.0,2.2694,2.1979,2.1528,2.1264,2.1034,0.0,0.0,1.6691,0.0,0.0,1.247,1.2498,0.0,0.0,0.0,0.0,0.0,0.0,0.0,0.0,0.0,0.2347,0.1399,0.0449,-0.0168,-0.1175,-0.2681,-0.3292,-0.3904,-0.4519,-0.457,-0.5369,-0.6796,-0.7203,-0.828,0.0,0.0,-1.0371,-1.0624,-1.0624,-1.0624,-1.0624,-1.0624,-1.0624,-1.0624,-1.0624,-1.0624,-1.0624,-1.0624,-1.0624,-1.0624,-1.0624,-1.0624,-1.0618,-1.0744,-1.087,-1.0926,-1.124,-1.1498,-1.1622,-1.1622,-1.2035,-1.2512,-1.2512,-1.3009,-1.3692,-1.435,-1.4469,-1.4706,-1.5294,-1.541,-1.541,-1.541,-1.541,-1.541,-1.5526,-1.5968,-1.6528,-1.7146,-1.7644,-1.7986,-1.8041,-1.8448,-1.8307,-1.7391,-1.769,-1.7754,-1.7257,-1.6698,-1.6197,-1.5575,-1.6026,-1.6026,-1.541,-1.541,-1.541,-1.541,-1.541,-1.541,-1.541,-1.541,-1.541,2.3433,2.4133,2.4839,2.4571,2.4275,2.3919,2.3514,2.3299,2.3178,0.0,0.0,0.0,0.0,0.0,2.0273,1.916,0.0,1.7399,1.512,1.4247,1.3476,0.0,0.0,0.0,0.0,0.0,0.0,0.0,0.0,0.0,0.0,0.0,0.1512,0.0449,0.0,-0.1008,-0.2681,-0.2959,-0.3569,-0.4519,-0.4519,-0.5211,-0.6563,-0.6568,-0.7725,-0.9669,0.0,-0.9963,-1.0624,-1.0624,-1.0624,-1.0624,-1.0624,-1.0624,-1.0624,-1.0624,-1.0624,-1.0624,-1.0624,-1.0624,-1.0624,-1.0624,-1.0624,-1.0624,-1.0681,-1.0744,-1.087,-1.1122,-1.131,-1.1435,-1.156,-1.2035,-1.2573,-1.2948,-1.3563,-1.4231,-1.4824,-1.5001,-1.5059,-1.5352,-1.541,-1.541,-1.541,-1.541,-1.5526,-1.5864,-1.614,-1.6528,-1.7146,-1.7699,-1.812,-1.8154,-1.8684,-1.8785,-1.826,-1.846,-1.8201,-1.7257,-1.6641,-1.6197,-1.5921,-1.5864,-1.569,-1.541,-1.541,-1.541,-1.541,-1.541,-1.541,-1.541,-1.541,-1.541,2.3622,2.4064,2.4489,2.4666,2.4808,2.4664,2.3752,2.3363,2.3143,0.0,0.0,0.0,0.0,2.0542,0.0,1.8041,1.8208,1.7719,1.5317,0.0,0.0,0.0,0.0,0.0,0.0,0.0,0.0,0.0,0.0,0.0,0.0,0.0,0.1624,0.0449,0.0112,-0.0839,-0.2458,-0.2625,-0.3292,-0.4519,-0.4519,-0.5117,-0.6258,-0.6088,-0.727,-0.9343,-0.9132,-0.9649,-1.0624,-1.0624,-1.0624,-1.0624,-1.0624,-1.0624,-1.0624,-1.0624,-1.0624,-1.0624,-1.0624,-1.0624,-1.0624,-1.0624,-1.0624,-1.0624,-1.0624,-1.0681,-1.087,-1.1059,-1.1185,-1.1365,-1.156,-1.2035,-1.2634,-1.313,-1.3803,-1.441,-1.5059,-1.5177,-1.5235,-1.5352,-1.541,-1.541,-1.541,-1.541,-1.5584,-1.6026,-1.6197,-1.6472,-1.6922,-1.7644,-1.8093,-1.8093,-1.8655,-1.8987,-1.8987,-1.8987,-1.8602,-1.7699,-1.6922,-1.6472,-1.6312,-1.569,-1.541,-1.541,-1.541,-1.541,-1.541,-1.541,-1.541,-1.541,-1.541,-1.541,2.3224,2.3796,2.4393,2.4006,2.4219,2.4441,2.4067,2.3334,0.0,2.2709,0.0,0.0,0.0,1.9294,1.8714,1.8484,1.7402,1.6098,0.0,0.0,0.0,0.0,0.0,0.0,0.0,0.0,0.0,0.0,0.0,0.0,0.0,0.0,0.0,0.0449,0.0393,-0.0336,-0.1846,-0.2402,-0.3292,-0.4519,-0.4519,-0.4956,-0.5832,-0.6084,-0.714,-0.8851,-0.918,-0.9773,-1.0624,-1.0624,-1.0624,-1.0624,-1.0624,-1.0624,-1.0624,-1.0624,-1.0624,-1.0624,-1.0624,-1.0624,-1.0624,-1.0624,-1.0624,-1.0624,-1.0624,-1.0681,-1.087,-1.1059,-1.1185,-1.1365,-1.156,-1.2035,-1.2512,-1.2573,-1.307,-1.3743,-1.441,-1.4588,-1.4706,-1.5294,-1.541,-1.541,-1.541,-1.541,-1.541,-1.5468,-1.5911,-1.6312,-1.6358,-1.7368,-1.8093,-1.8093,-1.8655,-1.8987,-1.8987,-1.8987,-1.8987,-1.8881,-1.7754,-1.6866,-1.6301,-1.569,-1.541,-1.541,-1.541,-1.541,-1.541,-1.541,-1.541,-1.541,-1.541,-1.541,2.2864,2.3421,2.4116,2.412,2.3867,0.0,0.0,2.2768,2.2449,2.2586,2.1908,0.0,0.0,0.0,1.7854,1.7701,1.6925,1.5759,0.0,0.0,0.0,0.0,0.0,0.0,0.0,0.0,0.0,0.0,0.0,0.0,0.0,0.0,0.0,0.0898,0.0561,-0.0336,-0.1898,-0.2456,-0.3292,-0.4519,-0.4519,-0.4952,-0.5773,-0.5516,-0.6388,-0.8193,-0.8414,-0.9058,-0.9977,-1.0428,-1.0624,-1.0624,-1.0624,-1.0624,-1.0624,-1.0624,-1.0624,-1.0624,-1.0624,-1.0624,-1.0624,-1.0624,-1.0681,-1.0744,-1.0744,-1.087,-1.0996,-1.1185,-1.124,-1.1365,-1.156,-1.174,-1.2035,-1.2389,-1.2696,-1.3191,-1.4291,-1.4469,-1.4706,-1.5294,-1.541,-1.541,-1.541,-1.541,-1.541,-1.541,-1.5575,-1.5748,-1.5748,-1.681,-1.7534,-1.7534,-1.8429,-1.8987,-1.8987,-1.8987,-1.8987,-1.8987,-1.8201,-1.7479,-1.6866,-1.6301,-1.5796,-1.541,-1.541,-1.541,-1.541,-1.541,-1.541,-1.541,-1.541,-1.541,2.2346,2.292,2.3623,2.3724,0.0,0.0,2.2402,2.2137,2.1996,2.2077,2.1527,2.0688,1.9641,0.0,0.0,0.0,0.0,0.0,0.0,0.0,0.0,0.0,0.0,0.0,0.0,0.0,0.0,0.0,0.0,0.0,0.0,0.0,0.0,0.0,0.0617,-0.0168,-0.1396,-0.2289,-0.3125,-0.3959,-0.4294,-0.4846,-0.5449,-0.5066,-0.5776,-0.7374,-0.7491,-0.8303,-0.9454,-0.997,-1.0342,-1.0624,-1.0624,-1.0624,-1.0624,-1.0624,-1.0624,-1.0624,-1.0624,-1.0624,-1.0624,-1.0624,-1.0681,-1.0744,-1.0807,-1.0933,-1.1122,-1.124,-1.1365,-1.1435,-1.156,-1.1622,-1.174,-1.2328,-1.2512,-1.2879,-1.4222,-1.4469,-1.4706,-1.5294,-1.541,-1.541,-1.541,-1.541,-1.541,-1.541,-1.541,-1.541,-1.541,-1.6312,-1.709,-1.7424,-1.8201,-1.8762,-1.8987,-1.8987,-1.8987,-1.8987,-1.8602,-1.8093,-1.7534,-1.6698,-1.6083,-1.569,-1.569,-1.5575,-1.541,-1.5575,-1.5584,-1.541,-1.541,-1.541,2.161,2.2258,2.2844,2.2558,0.0,0.0,2.1935,2.1616,2.1313,2.1042,2.0795,2.0144,1.878,0.0,0.0,0.0,0.0,0.0,0.0,0.0,0.0,0.0,0.0,0.0,0.0,0.0,0.0,0.0,0.0,0.0,0.0,0.0,0.0,0.0,0.0673,0.0224,-0.0224,-0.1845,-0.2681,-0.2736,-0.3959,-0.4574,-0.4691,-0.4846,-0.5437,-0.6411,-0.6521,-0.7629,-0.9297,-0.9303,-0.9848,-1.0624,-1.0624,-1.0624,-1.0624,-1.0624,-1.0624,-1.0624,-1.0624,-1.0624,-1.0624,-1.0624,-1.0624,-1.0624,-1.0744,-1.0933,-1.1122,-1.124,-1.1428,-1.1622,-1.1622,-1.1622,-1.174,-1.2328,-1.2512,-1.2879,-1.4222,-1.4469,-1.4706,-1.5294,-1.541,-1.541,-1.541,-1.541,-1.541,-1.541,-1.541,-1.541,-1.541,-1.5911,-1.6754,-1.7984,-1.8093,-1.8375,-1.8934,-1.8987,-1.8987,-1.8987,-1.8987,-1.8709,-1.8147,-1.6922,-1.6312,-1.6312,-1.6301,-1.6026,-1.541,-1.6026,-1.5968,-1.541,-1.541,-1.541,2.2797,2.2867,2.2979,2.3334,0.0,0.0,0.0,2.1921,0.0,0.0,2.0054,1.9426,1.8525,0.0,0.0,0.0,0.0,0.0,0.0,0.0,0.0,0.0,0.0,0.0,0.0,0.0,0.0,0.0,0.0,0.0,0.0,0.0,0.0,0.0,0.1064,-0.0056,-0.0949,-0.212,-0.3125,-0.3959,-0.4732,-0.4956,-0.4691,-0.4846,-0.5214,-0.574,-0.6506,-0.7485,-0.8634,-0.9768,-1.0349,-1.0624,-1.0624,-1.0624,-1.0624,-1.0624,-1.0624,-1.0624,-1.0624,-1.0624,-1.0624,-1.0624,-1.0681,-1.0744,-1.0807,-1.0996,-1.1247,-1.131,-1.1428,-1.1685,-1.2097,-1.2212,-1.2274,-1.2451,-1.2887,-1.3442,-1.4291,-1.4469,-1.4706,-1.5294,-1.541,-1.541,-1.541,-1.541,-1.541,-1.541,-1.541,-1.5526,-1.5968,-1.6585,-1.7257,-1.8038,-1.8483,-1.8827,-1.8987,-1.8987,-1.8987,-1.8987,-1.8987,-1.8709,-1.8147,-1.7368,-1.6754,-1.6301,-1.5853,-1.5575,-1.541,-1.5575,-1.5575,-1.541,-1.541,-1.541,2.2746,2.2845,2.2979,2.3334,2.2844,2.2203,2.2109,0.0,0.0,0.0,1.9976,1.9397,1.8312,1.7546,0.0,0.0,0.0,0.0,0.0,0.0,0.0,0.0,0.0,0.0,0.0,0.0,0.0,0.0,0.0,0.0,0.0,0.0,0.0,0.0,0.1119,0.0056,-0.0614,-0.2009,-0.307,-0.3793,-0.4622,-0.4956,-0.4959,-0.5391,-0.5563,-0.5636,-0.6533,-0.737,-0.8326,-0.9599,-1.0364,-1.0624,-1.0624,-1.0624,-1.0624,-1.0624,-1.0624,-1.0624,-1.0624,-1.0624,-1.0624,-1.0624,-1.0618,-1.0744,-1.0807,-1.0989,-1.124,-1.131,-1.1428,-1.174,-1.2336,-1.2696,-1.2948,-1.3243,-1.3614,-1.4043,-1.4706,-1.4883,-1.4942,-1.5352,-1.541,-1.541,-1.541,-1.5584,-1.5748,-1.5748,-1.5748,-1.5979,-1.6585,-1.6754,-1.7146,-1.8038,-1.8429,-1.8762,-1.8987,-1.8987,-1.8987,-1.8987,-1.8987,-1.8827,-1.8483,-1.7875,-1.7368,-1.7034,-1.6641,-1.6358,-1.614,-1.6358,-1.6368,-1.614,-1.614,-1.614,2.2119,2.2542,2.2979,2.2979,2.2934,2.2694,2.1913,2.1568,2.1232,2.0544,0.0,1.9724,1.8099,0.0,0.0,0.0,0.0,0.0,0.0,0.0,0.0,0.0,0.0,0.0,0.0,0.0,0.0,0.0,0.0,0.0,0.0,0.0,0.0,0.2294,0.1064,0.0336,0.028,-0.1732,-0.2736,0.0,-0.4015,-0.4846,-0.5332,-0.6154,-0.6282,-0.6009,-0.6725,-0.7502,-0.8296,-0.9225,-0.9977,-1.0498,-1.0561,-1.0624,-1.0624,-1.0624,-1.0624,-1.0624,-1.0624,-1.0624,-1.0624,-1.0624,-1.0624,-1.0624,-1.0744,-1.0933,-1.1122,-1.1247,-1.1428,-1.174,-1.2397,-1.307,-1.3692,-1.441,-1.4588,-1.4706,-1.5294,-1.541,-1.541,-1.541,-1.541,-1.541,-1.541,-1.5921,-1.6312,-1.6358,-1.6368,-1.6585,-1.7146,-1.6754,-1.6866,-1.7984,-1.8147,-1.8375,-1.8934,-1.8987,-1.8987,-1.8987,-1.8987,-1.8987,-1.8987,-1.8429,-1.8093,-1.8093,-1.7984,-1.7699,-1.7202,-1.7699,-1.7699,-1.7202,-1.7202,-1.7202,2.3781,2.3618,2.3465,2.3465,2.3157,2.2624,2.1657,2.1485,2.1321,2.0489,1.9507,1.8541,1.7508,0.0,0.0,0.0,0.0,0.0,0.0,0.0,0.0,0.0,0.0,0.0,0.0,0.0,0.0,0.0,0.0,0.0,0.0,0.0,0.0,0.2899,0.1286,0.0,-0.0783,-0.2066,-0.2959,0.0,-0.4563,-0.5171,-0.5336,-0.5668,-0.6337,-0.7285,-0.8024,-0.8381,-0.8542,-0.9824,-1.0104,-0.9779,-1.0364,-1.0624,-1.0624,-1.0624,-1.0624,-1.0624,-1.0624,-1.0624,-1.0624,-1.0624,-1.0681,-1.0744,-1.08,-1.0996,-1.124,-1.1303,-1.1428,-1.1864,-1.3017,-1.3381,-1.3803,-1.4932,-1.5235,-1.5235,-1.5352,-1.541,-1.541,-1.541,-1.541,-1.541,-1.541,-1.5921,-1.6472,-1.6922,-1.7034,-1.7034,-1.7202,-1.7479,-1.7809,-1.8093,-1.8536,-1.8881,-1.8987,-1.8987,-1.8987,-1.8987,-1.8987,-1.8987,-1.8987,-1.8429,-1.8093,-1.8093,-1.7146,-1.6866,-1.7202,-1.6866,-1.6866,-1.7202,-1.7202,-1.7202,2.3377,2.3421,2.352,2.3206,2.2961,2.2483,2.1341,2.1054,2.0782,2.0012,1.9137,1.8377,0.0,0.0,0.0,0.0,0.0,0.0,0.0,0.0,0.0,0.0,0.0,0.0,0.0,0.0,0.0,0.0,0.0,0.0,0.0,0.4831,0.3729,0.3231,0.1398,0.0168,-0.0392,-0.1899,-0.2847,-0.3181,-0.4343,-0.5226,-0.5714,-0.5996,-0.6718,-0.7791,-0.8011,-0.8354,-0.8828,-0.9205,-0.9599,-1.004,-1.004,-1.0295,-1.0624,-1.0624,-1.0624,-1.0624,-1.0624,-1.0624,-1.0624,-1.0681,-1.0744,-1.0807,-1.0933,-1.1122,-1.1303,-1.1303,-1.1428,-1.1864,-1.3147,-1.3511,-1.3803,-1.5118,-1.541,-1.541,-1.541,-1.541,-1.541,-1.541,-1.541,-1.541,-1.541,-1.614,-1.7034,-1.7929,-1.782,-1.7754,-1.8038,-1.8093,-1.8213,-1.8483,-1.8827,-1.8987,-1.8987,-1.8987,-1.8987,-1.8987,-1.8987,-1.8987,-1.8987,-1.8709,-1.8536,-1.8536,-1.7918,-1.7765,-1.8038,-1.7765,-1.7754,-1.8038,-1.8038,-1.8038,2.2452,2.3068,2.3531,2.2787,2.2664,0.0,2.1152,2.0621,2.0172,1.9518,1.8948,0.0,0.0,0.0,0.0,0.0,0.0,0.0,0.0,0.0,0.0,0.0,0.0,0.0,0.0,0.0,0.0,0.0,0.0,0.0,0.5941,0.467,0.3729,0.3231,0.1398,0.0393,0.028,-0.1676,-0.2681,-0.2736,-0.3904,-0.5117,-0.6258,-0.648,-0.7154,-0.8117,-0.7762,-0.8132,-0.8998,-0.8504,-0.9063,-1.022,-0.9756,-0.9964,-1.0488,-1.0604,-1.0688,-1.0744,-1.0624,-1.0688,-1.0744,-1.0744,-1.0807,-1.087,-1.1059,-1.124,-1.1483,-1.1365,-1.1615,-1.2174,-1.3208,-1.3571,-1.3983,-1.5118,-1.541,-1.541,-1.541,-1.5468,-1.5526,-1.541,-1.5468,-1.5575,-1.569,-1.6641,-1.7699,-1.8815,-1.8602,-1.8429,-1.8934,-1.8536,-1.8429,-1.8934,-1.8987,-1.8987,-1.8987,-1.8987,-1.8987,-1.8987,-1.8987,-1.8987,-1.8987,-1.8987,-1.8987,-1.8987,-1.8881,-1.8881,-1.8987,-1.8881,-1.8881,-1.8987,-1.8987,-1.8987,2.3083,2.3824,2.3967,2.287,2.2925,2.2766,0.0,0.0,2.0422,0.0,1.8845,0.0,0.0,0.0,0.0,0.0,0.0,0.0,0.0,0.0,0.0,0.0,0.0,0.0,0.0,0.0,0.0,0.0,0.0,0.0,0.7106,0.5097,0.3616,0.2781,0.1229,0.0224,-0.0112,-0.1845,-0.2681,-0.2736,-0.3904,-0.5167,-0.6362,-0.6529,-0.7367,-0.8726,-0.8899,-0.8846,-0.8723,-0.9258,-0.9225,-0.892,-0.9704,-1.0052,-1.0207,-1.0461,-1.0933,-1.1303,-1.0807,-1.0933,-1.1303,-1.0807,-1.0681,-1.087,-1.1059,-1.1608,-1.2089,-1.1677,-1.2351,-1.3268,-1.345,-1.3923,-1.4529,-1.5235,-1.541,-1.541,-1.541,-1.5806,-1.6026,-1.5526,-1.5806,-1.6368,-1.6866,-1.7534,-1.8213,-1.8881,-1.8934,-1.8934,-1.8987,-1.8934,-1.8934,-1.8987,-1.8987,-1.8987,-1.8987,-1.8987,-1.8987,-1.8987,-1.8987,-1.8987,-1.8987,-1.8987,-1.8987,-1.8987,-1.8483,-1.8483,-1.8987,-1.8483,-1.8483,-1.8987,-1.8987,-1.8987,2.2236,2.3283,2.3701,2.2828,2.2677,2.254,2.1789,2.1325,2.0849,2.0251,0.0,0.0,0.0,0.0,0.0,0.0,0.0,0.0,0.0,0.0,0.0,0.0,0.0,0.0,0.0,0.0,0.0,0.0,0.0,0.8271,0.81,0.5467,0.3999,0.3932,0.1616,0.0336,0.0112,-0.1732,-0.3014,-0.3738,-0.4239,-0.5167,-0.6411,-0.6529,-0.7344,-0.8708,-0.8883,-0.8938,-0.8909,-0.8858,-0.901,-0.922,-0.9223,-0.9601,-1.0134,-1.0267,-1.0843,-1.1483,-1.1178,-1.1545,-1.2027,-1.1911,-1.1849,-1.1973,-1.2097,-1.2466,-1.2834,-1.2597,-1.3025,-1.3571,-1.3992,-1.4291,-1.4647,-1.5235,-1.541,-1.5468,-1.5853,-1.614,-1.6312,-1.6358,-1.6641,-1.6978,-1.7589,-1.7929,-1.8309,-1.8934,-1.8987,-1.8987,-1.8987,-1.8987,-1.8987,-1.8987,-1.8987,-1.8987,-1.8987,-1.8987,-1.8987,-1.8987,-1.8987,-1.8987,-1.8987,-1.8987,-1.8987,-1.8987,-1.8762,-1.8709,-1.8987,-1.8709,-1.8762,-1.8987,-1.8987,-1.8987,2.1179,2.2556,2.3445,2.2787,2.2586,2.2501,0.0,0.0,2.1495,0.0,0.0,0.0,0.0,0.0,0.0,0.0,0.0,0.0,0.0,0.0,0.0,0.0,0.0,0.0,0.0,0.0,0.0,0.0,0.0,0.8888,0.8783,0.5946,0.444,0.47,0.1988,0.05,0.0393,-0.1676,-0.3236,-0.4294,-0.4463,-0.5171,-0.6253,-0.6529,-0.723,-0.8256,-0.8639,-0.8931,-0.9077,-0.8576,-0.8807,-0.9416,-0.9034,-0.9335,-1.002,-1.0174,-1.0794,-1.1483,-1.1483,-1.1965,-1.2512,-1.2696,-1.2765,-1.2826,-1.2948,-1.3252,-1.3502,-1.339,-1.3692,-1.4043,-1.441,-1.4588,-1.4824,-1.5294,-1.541,-1.5633,-1.6368,-1.6528,-1.6698,-1.7313,-1.7424,-1.7589,-1.8038,-1.8213,-1.8483,-1.8934,-1.8987,-1.8987,-1.8987,-1.8987,-1.8987,-1.8987,-1.8987,-1.8987,-1.8987,-1.8987,-1.8987,-1.8987,-1.8987,-1.8987,-1.8987,-1.8987,-1.8987,-1.8987,-1.8987,-1.8987,-1.8987,-1.8987,-1.8987,-1.8987,-1.8987,-1.8987,2.0359,2.2028,2.3445,2.2787,2.2935,2.3086,0.0,0.0,0.0,0.0,0.0,0.0,0.0,0.0,0.0,0.0,0.0,0.0,0.0,0.0,0.0,0.0,0.0,0.0,0.0,0.0,0.0,0.0,0.0,0.9363,0.8933,0.6538,0.4929,0.4271,0.2054,0.0705,0.0392,-0.1676,-0.3014,-0.368,-0.4353,-0.5069,-0.5882,-0.6583,-0.6966,-0.7246,-0.8321,-0.8818,-0.8831,-0.8771,-0.8785,-0.8911,-0.9409,-0.9693,-0.9773,-1.0334,-1.0975,-1.1483,-1.1483,-1.1965,-1.2512,-1.2512,-1.2634,-1.2826,-1.2948,-1.3545,-1.4034,-1.3623,-1.4341,-1.5177,-1.4647,-1.4942,-1.5352,-1.541,-1.541,-1.569,-1.6922,-1.7146,-1.7313,-1.7929,-1.8038,-1.8038,-1.8093,-1.859,-1.8987,-1.8987,-1.8987,-1.8987,-1.8987,-1.8987,-1.8987,-1.8987,-1.8987,-1.8987,-1.8987,-1.8987,-1.8987,-1.8987,-1.8987,-1.8987,-1.8987,-1.8987,-1.8987,-1.8987,-1.8987,-1.8987,-1.8987,-1.8987,-1.8987,-1.8987,-1.8987,-1.8987,1.8319,2.039,2.2479,2.2566,2.296,2.3491,2.4189,2.3812,2.3421,0.0,0.0,0.0,0.0,0.0,0.0,0.0,0.0,0.0,0.0,0.0,0.0,0.0,0.0,0.0,0.0,0.0,0.0,0.0,0.0,0.0,1.0356,0.7234,0.5343,0.5125,0.2702,0.0619,-0.1046,-0.2086,-0.303,-0.4,-0.4374,-0.5015,-0.5828,-0.6159,-0.6593,-0.7139,-0.7883,-0.8203,-0.8256,-0.8646,-0.9008,-0.9285,-0.9194,-0.9569,-1.0207,-1.0091,-1.0655,-1.1545,-1.1965,-1.2581,-1.3252,-1.3734,-1.3974,-1.4043,-1.4231,-1.4538,-1.4834,-1.4666,-1.501,-1.5352,-1.5118,-1.5235,-1.5526,-1.5921,-1.6585,-1.7257,-1.7699,-1.7754,-1.7984,-1.8536,-1.8655,-1.8655,-1.8655,-1.8881,-1.8987,-1.8987,-1.8987,-1.8987,-1.8987,-1.8987,-1.8987,-1.8987,-1.8987,-1.8987,-1.8987,-1.8987,-1.8987,-1.8987,-1.8987,-1.8987,-1.8987,-1.8987,-1.8987,-1.8987,-1.8987,-1.8987,-1.8987,-1.8987,-1.8987,-1.8987,-1.8987,-1.8987,1.6459,0.0,2.0982,0.0,2.2547,2.3345,2.4595,0.0,2.4185,0.0,0.0,0.0,0.0,0.0,0.0,0.0,0.0,0.0,0.0,0.0,0.0,0.0,0.0,0.0,0.0,0.0,0.0,0.0,0.0,0.0,1.1607,0.83,0.5925,0.4972,0.2782,0.0661,-0.1257,-0.2139,-0.292,-0.3661,-0.4343,-0.4958,-0.55,-0.6105,-0.6539,-0.6864,-0.7771,-0.809,-0.7925,-0.8533,-0.9106,-0.9569,-0.9323,-0.9828,-1.0587,-1.015,-1.0564,-1.1541,-1.2124,-1.2685,-1.3269,-1.4163,-1.4676,-1.4907,-1.508,-1.536,-1.5594,-1.5594,-1.5478,-1.541,-1.541,-1.5526,-1.5864,-1.6472,-1.7368,-1.8093,-1.8093,-1.8255,-1.8536,-1.8934,-1.8987,-1.8987,-1.8987,-1.8987,-1.8987,-1.8987,-1.8987,-1.9093,-1.9251,-1.9093,-1.9093,-1.9239,-1.9093,-1.8987,-1.8987,-1.8987,-1.8987,-1.8987,-1.8987,-1.8987,-1.8987,-1.8987,-1.8987,-1.8987,-1.8987,-1.8987,-1.8987,-1.8987,-1.8987,-1.8987,-1.8987,-1.8987,0.0,0.0,0.0,0.0,0.0,0.0,2.34,0.0,2.4486,0.0,0.0,0.0,0.0,0.0,0.0,0.0,0.0,0.0,0.0,0.0,0.0,0.0,0.0,0.0,0.0,0.0,0.0,0.0,0.0,1.2551,1.2503,0.9709,0.6739,0.3721,0.2212,0.0936,-0.01,-0.1766,-0.259,-0.2647,-0.4152,-0.4889,-0.4952,-0.6372,-0.6756,-0.6317,-0.799,-0.8421,-0.7925,-0.8533,-0.9113,-0.9643,-0.9965,-1.0408,-1.0879,-1.061,-1.0857,-1.1373,-1.1927,-1.2159,-1.2496,-1.3688,-1.4608,-1.533,-1.542,-1.5827,-1.6301,-1.6301,-1.5911,-1.541,-1.541,-1.5911,-1.6472,-1.709,-1.771,-1.8147,-1.8147,-1.859,-1.904,-1.8987,-1.8987,-1.8987,-1.8987,-1.8987,-1.8987,-1.8987,-1.8987,-1.9198,-1.9695,-1.9356,-1.9198,-1.9695,-1.9291,-1.8987,-1.8987,-1.8987,-1.8987,-1.8987,-1.8987,-1.8987,-1.8987,-1.8987,-1.8987,-1.8987,-1.8987,-1.8987,-1.8987,-1.8987,-1.8987,-1.8987,-1.8987,-1.8987,1.1945,0.0,0.0,0.0,0.0,0.0,0.0,0.0,0.0,0.0,0.0,0.0,0.0,0.0,0.0,0.0,0.0,0.0,0.0,0.0,0.0,0.0,0.0,0.0,0.0,0.0,0.0,0.0,1.4936,1.3736,1.3097,0.973,0.6827,0.4614,0.2624,0.1196,0.0277,-0.144,-0.2585,-0.3115,-0.3968,-0.4568,-0.4901,-0.5449,-0.5832,-0.6263,-0.7187,-0.7723,-0.7925,-0.8533,-0.9361,-1.0174,-0.9866,-1.0469,-1.1399,-1.095,-1.0988,-1.139,-1.2043,-1.229,-1.2496,-1.3688,-1.4608,-1.5391,-1.5761,-1.6388,-1.6922,-1.6922,-1.6528,-1.6026,-1.6026,-1.681,-1.7644,-1.7809,-1.8321,-1.8762,-1.8762,-1.9186,-1.9448,-1.9093,-1.8987,-1.8987,-1.8987,-1.8987,-1.8987,-1.8987,-1.9344,-1.95,-1.9239,-1.9448,-1.95,-1.9239,-1.9093,-1.8987,-1.8987,-1.8987,-1.8987,-1.8987,-1.8987,-1.8987,-1.8987,-1.8987,-1.8987,-1.8987,-1.8987,-1.8987,-1.8987,-1.8987,-1.8987,-1.8987,-1.8987,-1.8987,0.9381,1.1336,0.0,0.0,0.0,0.0,0.0,2.1186,0.0,0.0,0.0,0.0,0.0,0.0,0.0,0.0,0.0,0.0,0.0,0.0,0.0,0.0,0.0,0.0,0.0,0.0,0.0,1.8194,1.6498,1.4729,1.2826,1.0288,0.7869,0.5659,0.3861,0.2225,0.0731,-0.0701,-0.198,-0.3016,-0.3676,-0.4285,-0.4901,-0.5285,-0.5991,-0.695,-0.7289,-0.7871,-0.8613,-0.8745,-0.9413,-1.0364,-1.0064,-1.0713,-1.18,-1.1264,-1.13,-1.1668,-1.2035,-1.2303,-1.2644,-1.3553,-1.4629,-1.5636,-1.6061,-1.6772,-1.749,-1.7545,-1.7146,-1.6754,-1.6978,-1.7589,-1.8147,-1.8429,-1.8762,-1.8987,-1.8987,-1.9251,-1.9396,-1.904,-1.9198,-1.9239,-1.904,-1.8987,-1.8987,-1.8987,-1.9448,-1.9747,-1.9708,-1.9759,-1.9747,-1.9708,-1.9251,-1.8987,-1.8987,-1.8987,-1.8987,-1.8987,-1.8987,-1.8987,-1.8987,-1.8987,-1.8987,-1.8987,-1.8987,-1.8987,-1.8987,-1.8987,-1.8987,-1.8987,-1.8987,-1.8987,0.7026,0.8593,0.0,1.1884,1.3761,0.0,1.6646,1.8067,1.9549,0.0,0.0,0.0,0.0,0.0,0.0,0.0,0.0,0.0,0.0,0.0,0.0,0.0,0.0,0.0,0.0,2.2865,2.189,2.0324,1.8212,1.5608,1.2438,1.1325,0.9581,0.6871,0.5418,0.3688,0.1561,0.0283,-0.1059,-0.2357,-0.3229,-0.4044,-0.4787,-0.5559,-0.6632,-0.7894,-0.7812,-0.8508,-0.9562,-0.9008,-0.9413,-1.0415,-1.0415,-1.1091,-1.2026,-1.1578,-1.1669,-1.2072,-1.1956,-1.2262,-1.2788,-1.3373,-1.4621,-1.5944,-1.6364,-1.7189,-1.8007,-1.8104,-1.7765,-1.7534,-1.7984,-1.8147,-1.8321,-1.8881,-1.8987,-1.8987,-1.8987,-1.9093,-1.9146,-1.9093,-1.9448,-1.9643,-1.9198,-1.9093,-1.9093,-1.8987,-1.95,-2.0003,-2.0359,-2.0105,-2.0055,-2.0359,-1.9552,-1.8987,-1.8987,-1.8987,-1.8987,-1.8987,-1.8987,-1.8987,-1.8987,-1.8987,-1.8987,-1.8987,-1.8987,-1.8987,-1.8987,-1.8987,-1.8987,-1.8987,-1.8987,-1.8987,0.4476,0.6373,0.8381,0.909,0.0,0.0,1.4762,1.5753,1.6798,0.0,0.0,0.0,0.0,0.0,0.0,0.0,0.0,0.0,0.0,0.0,0.0,0.0,0.0,0.0,0.0,2.3793,2.3221,2.1147,1.8851,1.6645,1.4672,1.3017,1.0991,0.8497,0.6527,0.4879,0.3612,0.1035,-0.0482,-0.095,-0.2657,-0.3675,-0.4018,-0.4787,-0.6081,-0.7723,-0.7385,-0.8137,-0.9562,-0.9008,-0.9413,-1.0415,-1.0415,-1.1091,-1.2076,-1.1977,-1.2026,-1.2085,-1.2059,-1.2346,-1.2831,-1.3772,-1.4881,-1.6116,-1.7115,-1.7981,-1.8572,-1.8213,-1.8375,-1.8536,-1.8213,-1.8483,-1.8881,-1.8987,-1.8987,-1.8987,-1.8987,-1.9708,-2.0156,-1.9747,-1.9747,-1.9747,-1.9643,-1.9656,-1.95,-1.904,-1.9798,-2.0156,-1.9396,-1.9952,-2.0156,-1.9396,-1.9146,-1.8987,-1.8987,-1.8987,-1.8987,-1.8987,-1.8987,-1.8987,-1.8987,-1.8987,-1.8987,-1.8987,-1.8987,-1.8987,-1.8987,-1.8987,-1.8987,-1.8987,-1.8987,-1.8987,0.2491,0.4026,0.5479,0.613,0.0,0.0,0.0,1.2255,1.342,1.5418,1.608,0.0,0.0,0.0,0.0,0.0,0.0,0.0,0.0,0.0,0.0,0.0,0.0,0.0,0.0,2.5045,2.4131,2.1911,2.0145,1.826,1.6145,1.4575,1.2573,1.0014,0.8049,0.6259,0.4699,0.2315,0.0624,-0.03,-0.2132,-0.3265,-0.3812,-0.4587,-0.5963,-0.778,-0.7281,-0.8109,-0.9632,-0.9044,-0.9413,-1.0415,-1.0415,-1.1225,-1.2442,-1.2442,-1.2442,-1.2442,-1.2442,-1.2909,-1.3523,-1.4106,-1.5357,-1.6786,-1.7588,-1.8333,-1.8839,-1.8602,-1.8774,-1.8934,-1.8655,-1.8762,-1.8987,-1.8987,-1.8987,-1.8987,-1.8987,-1.9396,-1.9901,-2.0156,-2.0207,-2.0105,-1.985,-1.9798,-1.9695,-1.9448,-2.0105,-2.0409,-1.985,-2.0258,-2.0308,-1.95,-1.9146,-1.8987,-1.8987,-1.8987,-1.8987,-1.8987,-1.8987,-1.8987,-1.8987,-1.8987,-1.8987,-1.8987,-1.8987,-1.8987,-1.8987,-1.8987,-1.8987,-1.8987,-1.8987,-1.8855,0.0,0.0,0.0,0.0,0.0,0.67,0.0,0.0,0.0,1.1778,0.0,0.0,0.0,0.0,0.0,0.0,0.0,0.0,0.0,0.0,0.0,0.0,0.0,0.0,0.0,2.6194,2.4923,2.2965,2.1663,1.9894,1.7463,1.5885,1.3925,1.142,0.9489,0.7577,0.5702,0.3557,0.1736,0.03,-0.1653,-0.2887,-0.3574,-0.4424,-0.5934,-0.7872,-0.7321,-0.8178,-0.993,-0.9155,-0.9431,-1.0332,-1.0367,-1.1366,-1.2764,-1.2725,-1.2725,-1.2764,-1.2725,-1.3289,-1.411,-1.4463,-1.6009,-1.7722,-1.8116,-1.8655,-1.9198,-1.9303,-1.9291,-1.9291,-1.9198,-1.9146,-1.9146,-1.904,-1.8987,-1.904,-1.9146,-1.9251,-1.9592,-2.056,-2.0858,-2.0696,-2.0055,-1.9952,-1.9901,-1.9811,-2.0258,-2.056,-2.0459,-2.056,-2.0359,-1.9695,-1.9239,-1.8987,-1.8987,-1.8987,-1.8987,-1.8987,-1.8987,-1.8987,-1.8987,-1.8987,-1.8987,-1.8987,-1.8987,-1.8987,-1.8987,-1.8987,-1.8987,-1.8987,-1.8987,-1.871,0.0,0.0,0.0,0.0,0.2441,0.0,0.0,0.0,0.6634,0.7476,0.0,0.0,0.0,0.0,0.0,0.0,0.0,0.0,0.0,0.0,0.0,0.0,0.0,0.0,0.0,0.0,2.5802,2.4795,2.2859,2.0931,1.8962,1.665,1.4463,1.2588,1.0341,0.8588,0.733,0.4344,0.2477,0.1752,-0.1057,-0.2482,-0.2583,-0.3855,-0.5767,-0.7952,-0.7279,-0.838,-1.0516,-0.9534,-0.9509,-1.0077,-1.0326,-1.1366,-1.2774,-1.2353,-1.2452,-1.2716,-1.2304,-1.2764,-1.3665,-1.4821,-1.6755,-1.8732,-1.9239,-1.9552,-1.9798,-2.0258,-2.0409,-2.0308,-1.985,-1.9695,-1.9592,-1.9093,-1.8987,-1.9146,-1.9604,-2.0105,-2.061,-2.1166,-2.1698,-2.1684,-2.066,-2.051,-2.0359,-1.985,-2.0258,-2.0409,-1.9952,-2.0308,-2.0207,-1.9198,-1.904,-1.8987,-1.8987,-1.8987,-1.8987,-1.8987,-1.8987,-1.8987,-1.8987,-1.8987,-1.8987,-1.8987,-1.8987,-1.8987,-1.8987,-1.8987,-1.8987,-1.8987,-1.8987,-1.871,0.0,0.0,0.0,0.0,0.0,0.0,0.1866,0.0,0.3166,0.0,0.0,0.0,0.0,0.0,0.0,0.0,0.0,0.0,0.0,0.0,0.0,0.0,0.0,0.0,0.0,0.0,0.0,0.0,0.0,2.2045,1.9817,1.7761,1.5664,1.3429,1.1488,0.9522,0.7635,0.522,0.3337,0.1987,-0.0495,-0.1937,-0.2439,-0.3775,-0.5445,-0.7289,-0.7074,-0.811,-0.9908,-0.967,-1.0048,-1.0835,-1.0876,-1.1538,-1.248,-1.285,-1.3084,-1.3218,-1.3035,-1.3421,-1.4256,-1.5853,-1.753,-1.8999,-1.9552,-1.9759,-1.9901,-2.0459,-2.061,-2.0459,-1.9952,-1.9798,-1.9643,-1.9146,-1.9251,-1.9552,-1.9747,-2.0207,-2.0759,-2.1326,-2.1568,-2.1506,-2.0709,-2.061,-2.051,-2.0308,-2.0459,-2.051,-2.0308,-2.0459,-2.0207,-1.9093,-1.8987,-1.8987,-1.8987,-1.8987,-1.8987,-1.8987,-1.8987,-1.8987,-1.8987,-1.8987,-1.8987,-1.8987,-1.8987,-1.8987,-1.8987,-1.8987,-1.8987,-1.8987,-1.8987,-1.8542,-0.4203,0.0,0.0,0.0,0.0,0.0,0.0,0.0,0.0,0.0,0.0,0.0,0.0,0.0,0.0,0.0,0.0,0.0,0.0,0.0,0.0,0.0,0.0,0.0,0.0,0.0,0.0,0.0,0.0,0.0,2.0506,1.858,1.654,1.4334,1.2394,1.0277,0.7835,0.5775,0.3842,0.1986,-0.0096,-0.1534,-0.2339,-0.3554,-0.5105,-0.6911,-0.6957,-0.7992,-0.9675,-0.9735,-1.0366,-1.1286,-1.1232,-1.1713,-1.2513,-1.3152,-1.3563,-1.381,-1.3668,-1.4142,-1.5055,-1.6672,-1.7977,-1.9004,-1.9748,-2.0003,-2.0156,-2.0858,-2.1055,-2.0908,-2.0359,-2.0258,-2.0055,-1.9396,-1.95,-1.985,-2.0003,-2.0308,-2.0809,-2.1506,-2.1616,-2.1458,-2.0908,-2.0709,-2.061,-2.061,-2.061,-2.066,-2.0809,-2.0709,-2.0258,-1.9291,-1.9093,-1.8987,-1.8987,-1.8987,-1.8987,-1.8987,-1.8987,-1.8987,-1.8987,-1.8987,-1.8987,-1.8987,-1.8987,-1.8987,-1.8987,-1.8987,-1.8987,-1.8987,-1.8987,-1.8506,0.0,0.0,0.0,-0.5756,0.0,0.0,0.0,0.0,-0.2277,0.0,0.0,0.0,0.0,0.0,0.0,0.0,0.0,0.0,0.0,0.0,0.0,0.0,0.0,0.0,0.0,0.0,0.0,0.0,0.0,0.0,2.1223,1.8804,1.6815,1.5502,1.2988,1.0631,0.8383,0.5873,0.3752,0.1984,0.0,-0.1345,-0.2148,-0.2912,-0.4661,-0.716,-0.7065,-0.8265,-1.0242,-0.9866,-1.0214,-1.1018,-1.0938,-1.1772,-1.2958,-1.2847,-1.3494,-1.428,-1.3763,-1.4609,-1.5995,-1.705,-1.7945,-1.882,-2.0015,-2.0484,-2.0809,-2.1841,-2.2137,-2.2044,-2.1471,-2.1361,-2.1068,-2.0055,-1.9798,-1.9952,-2.0459,-2.061,-2.0908,-2.1983,-2.2184,-2.1996,-2.1471,-2.0957,-2.061,-2.061,-2.061,-2.0772,-2.1326,-2.0921,-2.0409,-1.985,-1.9291,-1.8987,-1.8987,-1.8987,-1.8987,-1.8987,-1.8987,-1.8987,-1.8987,-1.8987,-1.8987,-1.8987,-1.8987,-1.8987,-1.8987,-1.8987,-1.8987,-1.8987,-1.8987,-1.8698,0.0,0.0,-0.5909,-0.6322,0.0,0.0,0.0,0.0,0.0,0.0,0.0,0.0,0.0,0.0,0.0,0.0,0.0,0.0,0.0,0.0,0.0,0.0,0.0,0.0,0.0,0.0,0.0,0.0,0.0,0.0,0.0,1.8329,1.6432,1.3981,1.2469,1.0531,0.816,0.6304,0.4368,0.2303,0.0716,-0.0758,-0.2144,-0.2857,-0.4535,-0.6796,-0.6959,-0.8118,-0.9947,-1.0342,-1.1055,-1.19,-1.1754,-1.2788,-1.4315,-1.3585,-1.38,-1.4419,-1.4455,-1.5081,-1.6043,-1.6942,-1.7798,-1.8645,-1.9889,-2.0346,-2.0633,-2.1458,-2.1949,-2.2091,-2.1568,-2.1423,-2.1215,-2.051,-2.061,-2.0921,-2.1068,-2.141,-2.1793,-2.2137,-2.2184,-2.2044,-2.1471,-2.097,-2.0709,-2.1068,-2.0809,-2.066,-2.0858,-2.0709,-2.0258,-1.9344,-1.9093,-1.8987,-1.8987,-1.8987,-1.8987,-1.8987,-1.8987,-1.8987,-1.8987,-1.8987,-1.8987,-1.8987,-1.8987,-1.8987,-1.8987,-1.8987,-1.8987,-1.8987,-1.8987,-1.871,-0.6659,-0.6605,0.0,-0.6961,-0.6751,0.0,-0.7106,0.0,0.0,0.0,0.0,0.0,0.0,0.0,0.0,0.0,0.0,0.0,0.0,-0.635,0.0,0.0,0.0,0.0,0.0,0.0,1.7567,1.9434,0.0,0.0,0.0,0.0,1.6029,1.3767,1.2404,1.0645,0.8461,0.6503,0.4554,0.2521,0.0983,-0.0624,-0.2324,-0.2857,-0.4413,-0.6703,-0.6912,-0.8016,-0.9762,-1.039,-1.1346,-1.2372,-1.204,-1.3203,-1.4971,-1.3988,-1.4035,-1.4743,-1.5187,-1.5668,-1.616,-1.7095,-1.7787,-1.845,-1.9609,-2.0191,-2.0597,-2.1215,-2.1793,-2.2137,-2.1746,-2.1664,-2.1554,-2.1006,-2.1166,-2.1423,-2.1423,-2.1664,-2.1996,-2.2184,-2.2184,-2.2091,-2.1746,-2.1264,-2.1019,-2.1375,-2.0957,-2.066,-2.0858,-2.0709,-2.0258,-1.9396,-1.9093,-1.8987,-1.8987,-1.8987,-1.8987,-1.8987,-1.8987,-1.8987,-1.8987,-1.8987,-1.8987,-1.8987,-1.8987,-1.8987,-1.8987,-1.8987,-1.8987,-1.8987,-1.8987,-1.8806]}]]